Date StartTime U_cm/s V_cm/s W_cm/s Ustd_cm/s Vstd_cm/s Wstd_cm/s Uvar_(cm/s)^2 Vvar_(cm/s)^2 Wvar_(cm/s)^2 KE_(m/s)^2 TurbulentKE_(m/s)^2 HorizWindSpeed_cm/s FrictionSpeec_cm/s DragCoef SpeedOfSound_m/s SonicTemperature_C Pressure_mb 
04/25/2013  00:00:00      -82.722      -28.570      -15.753       16.046        8.298        4.906      257.488       68.852       24.072        0.413        0.018       87.517        5.630        0.004      337.660        9.784      860.641
04/25/2013  00:01:00     -112.606      -10.743      -18.090        8.981        9.677        8.185       80.656       93.643       67.001        0.668        0.012      113.118        5.049        0.002      337.791       10.005      860.643
04/25/2013  00:02:00     -128.950      -26.684      -20.101       10.268       11.235        7.064      105.440      126.229       49.901        0.901        0.014      131.682        3.848        0.001      337.818       10.049      860.637
04/25/2013  00:03:00      -89.285      -55.633       -4.306       46.942       22.608       18.579     2203.522      511.137      345.164        0.707        0.153      105.199       22.205        0.045      337.779        9.983      860.631
04/25/2013  00:04:00      -76.319       20.365       -7.104       53.875       48.319       32.682     2902.480     2334.703     1068.116        0.630        0.315       78.989       28.006        0.126      337.940       10.255      860.641
04/25/2013  00:05:00      -81.821      -27.741      -14.143       20.999       29.273       12.320      440.940      856.887      151.775        0.456        0.072       86.396        5.215        0.004      337.570        9.634      860.643
04/25/2013  00:06:00      -31.285      -30.716       -2.534       31.547       12.657       12.466      995.182      160.188      155.413        0.162        0.066       43.843       11.695        0.071      337.555        9.607      860.639
04/25/2013  00:07:00     -138.677      -43.668      -13.594       47.104       28.744       17.539     2218.782      826.201      307.630        1.234        0.168      145.390       18.447        0.016      337.515        9.543      860.637
04/25/2013  00:08:00      -49.421      -27.937        3.329       52.787       25.705       25.714     2786.491      660.768      661.193        0.367        0.205       56.771       31.878        0.315      337.256        9.108      860.649
04/25/2013  00:09:00      -10.636      -13.968        9.507       20.722       14.546       12.721      429.407      211.580      161.811        0.060        0.040       17.556       11.722        0.446      337.255        9.106      860.653
04/25/2013  00:10:00      -63.160      -27.757       -9.196       29.035       17.401       16.351      843.050      302.778      267.359        0.313        0.071       68.990       14.459        0.044      337.315        9.205      860.648
04/25/2013  00:11:00      -43.299      -35.308        0.426       33.488       19.054       15.869     1121.425      363.051      251.823        0.243        0.087       55.871       15.445        0.076      337.297        9.176      860.645
04/25/2013  00:12:00      -61.702      -51.507       -1.705       48.239       26.997       19.442     2327.002      728.865      377.979        0.495        0.172       80.375       20.527        0.065      337.243        9.086      860.630
04/25/2013  00:13:00      -70.743      -59.354        2.055       44.497       24.834       20.235     1979.956      616.741      409.457        0.577        0.150       92.344       23.147        0.063      337.152        8.933      860.631
04/25/2013  00:14:00      -82.195      -47.711       -2.680       23.383       23.892       16.105      546.778      570.813      259.370        0.521        0.069       95.039       11.846        0.016      337.195        9.005      860.629
04/25/2013  00:15:00       -8.988      -34.634       10.683       25.304       25.629       21.126      640.315      656.825      446.302        0.157        0.087       35.781       14.819        0.172      337.153        8.934      860.637
04/25/2013  00:16:00      -33.923      -34.323        3.594       36.462       25.021       16.996     1329.497      626.044      288.849        0.229        0.112       48.258       18.331        0.144      337.006        8.688      860.644
04/25/2013  00:17:00      -68.389      -36.388       -6.568       23.743       13.544       12.400      563.713      183.449      153.760        0.347        0.045       77.467        8.344        0.012      337.077        8.806      860.653
04/25/2013  00:18:00      -25.312      -33.014       -6.523       25.998       16.069       11.996      675.888      258.219      143.908        0.143        0.054       41.600        7.317        0.031      337.041        8.746      860.671
04/25/2013  00:19:00      -66.106      -18.580       -8.272       13.901        9.494        7.486      193.235       90.139       56.035        0.256        0.017       68.667        6.593        0.009      337.078        8.808      860.678
04/25/2013  00:20:00      -67.014      -30.957       -3.398       47.730       18.700       16.917     2278.123      349.683      286.199        0.419        0.146       73.819       24.034        0.106      336.958        8.608      860.688
04/25/2013  00:21:00      -59.465      -43.044       -2.208       29.553       20.163       14.705      873.352      406.537      216.236        0.344        0.075       73.409       11.476        0.024      336.932        8.565      860.674
04/25/2013  00:22:00      -88.101      -54.402        3.021       52.744       33.088       27.873     2781.890     1094.789      776.918        0.769        0.233      103.544       26.255        0.064      336.885        8.486      860.667
04/25/2013  00:23:00      -82.096      -51.630        5.137       53.794       25.784       25.243     2893.829      664.789      637.212        0.681        0.210       96.982       20.428        0.044      336.899        8.509      860.675
04/25/2013  00:24:00     -112.780      -57.847       -4.386       47.075       33.564       25.088     2216.080     1126.568      629.387        1.003        0.199      126.750       17.540        0.019      336.940        8.579      860.682
04/25/2013  00:25:00     -106.536      -87.532       -4.849       41.807       28.240       23.074     1747.828      797.496      532.429        1.106        0.154      137.883       21.220        0.024      336.886        8.488      860.676
04/25/2013  00:26:00      -91.140      -63.099       -3.256       34.740       28.827       16.440     1206.897      830.995      270.273        0.730        0.115      110.851       10.473        0.009      336.951        8.595      860.683
04/25/2013  00:27:00      -78.185      -33.801       -1.354       30.794       27.955       19.721      948.275      781.483      388.901        0.469        0.106       85.178       19.962        0.055      336.954        8.602      860.696
04/25/2013  00:28:00      -51.365      -39.494        1.967       35.067       18.215       17.530     1229.693      331.774      307.314        0.303        0.093       64.793       15.489        0.057      336.945        8.586      860.706
04/25/2013  00:29:00      -56.863      -23.121        3.233       35.133       16.573       15.201     1234.299      274.666      231.057        0.276        0.087       61.384       17.903        0.085      336.911        8.529      860.704
04/25/2013  00:30:00      -92.091       -9.206       -1.263       25.552       23.405       14.996      652.880      547.789      224.872        0.500        0.071       92.550       14.338        0.024      336.872        8.465      860.708
04/25/2013  00:31:00     -122.636      -10.139       -9.474       21.127       17.361       12.819      446.331      301.422      164.330        0.807        0.046      123.055       10.028        0.007      336.842        8.415      860.719
04/25/2013  00:32:00     -113.432      -12.342      -11.159       28.586       18.881       16.380      817.152      356.489      268.293        0.729        0.072      114.101       14.478        0.016      336.843        8.417      860.715
04/25/2013  00:33:00     -133.537      -29.095       -9.495       21.479       16.268       19.830      461.367      264.633      393.220        0.994        0.056      136.670       14.769        0.012      336.886        8.487      860.717
04/25/2013  00:34:00     -127.606      -35.855      -10.588       20.135       12.546       10.860      405.431      157.398      117.944        0.918        0.034      132.547        6.691        0.003      336.912        8.531      860.717
04/25/2013  00:35:00      -76.268      -35.308        2.637       32.252       19.471       16.530     1040.173      379.136      273.253        0.438        0.085       84.044       17.512        0.043      336.955        8.602      860.708
04/25/2013  00:36:00     -102.144      -35.023       -1.697       32.403       18.471       18.086     1049.973      341.178      327.088        0.669        0.086      107.981       18.653        0.030      336.938        8.574      860.704
04/25/2013  00:37:00     -102.980      -32.146       -6.615       25.809       17.449       13.330      666.106      304.452      177.689        0.641        0.057      107.881       13.310        0.015      336.823        8.384      860.695
04/25/2013  00:38:00      -99.544      -28.336      -12.141       21.705       23.653       15.773      471.110      559.464      248.779        0.607        0.064      103.499       13.823        0.018      336.747        8.256      860.687
04/25/2013  00:39:00      -69.466      -27.477       -9.742       17.561       19.028       12.039      308.397      362.080      144.934        0.325        0.041       74.702        8.640        0.013      336.853        8.433      860.685
04/25/2013  00:40:00      -93.090        0.317      -11.659       33.818       13.022       15.671     1143.652      169.567      245.571        0.518        0.078       93.091       18.433        0.039      336.671        8.132      860.696
04/25/2013  00:41:00     -131.178       -8.921      -19.131       10.912       12.345        8.570      119.082      152.395       73.437        0.900        0.017      131.481        5.428        0.002      336.592        7.999      860.708
04/25/2013  00:42:00     -115.340      -29.247      -21.284       15.327       16.771        8.209      234.931      281.271       67.391        0.760        0.029      118.990        1.772        0.000      336.524        7.885      860.714
04/25/2013  00:43:00     -130.317      -16.445      -19.797       24.222       20.568       12.355      586.725      423.061      152.648        0.940        0.058      131.350       12.133        0.009      336.461        7.777      860.715
04/25/2013  00:44:00     -117.400      -10.572      -16.350       29.631       21.598       17.665      878.008      466.495      312.061        0.791        0.083      117.875       14.122        0.014      336.471        7.795      860.713
04/25/2013  00:45:00     -123.859      -19.484      -21.593       17.408       16.564       11.885      303.024      274.362      141.248        0.845        0.036      125.382       10.219        0.007      336.479        7.807      860.717
04/25/2013  00:46:00     -122.729        6.787      -22.382       20.084       11.459        8.294      403.357      131.312       68.783        0.811        0.030      122.916        5.475        0.002      336.713        8.201      860.709
04/25/2013  00:47:00      -80.867       -4.266      -17.572       13.915       14.086       11.451      193.620      198.420      131.125        0.369        0.026       80.980        7.620        0.009      336.745        8.254      860.700
04/25/2013  00:48:00     -100.641      -23.546      -14.289       15.019       18.099       12.664      225.560      327.591      160.390        0.580        0.036      103.358        9.165        0.008      336.657        8.107      860.704
04/25/2013  00:49:00     -100.789      -42.552      -22.955       13.268       13.013        8.725      176.049      169.326       76.133        0.646        0.021      109.404        4.552        0.002      336.522        7.880      860.709
04/25/2013  00:50:00      -96.786      -13.162      -13.953       18.867       17.435       13.119      355.952      303.971      172.114        0.528        0.042       97.677       10.138        0.011      336.595        8.004      860.710
04/25/2013  00:51:00     -122.441      -10.689      -21.408       18.723       12.969       10.017      350.567      168.184      100.349        0.809        0.031      122.907        7.735        0.004      336.663        8.117      860.707
04/25/2013  00:52:00     -112.268      -11.231      -27.139       20.354       16.462       12.252      414.284      271.003      150.102        0.715        0.042      112.828        6.859        0.004      336.666        8.120      860.704
04/25/2013  00:53:00      -76.955      -59.911      -20.697       17.373       27.373       17.271      301.834      749.266      298.305        0.564        0.067       97.526       13.243        0.018      336.373        7.631      860.692
04/25/2013  00:54:00      -69.388      -53.266      -15.268       21.512       23.516       20.347      462.770      552.987      413.987        0.466        0.071       87.475       16.674        0.036      336.372        7.628      860.688
04/25/2013  00:55:00     -110.965      -39.027      -15.268       19.421       18.021       10.088      377.176      324.749      101.771        0.744        0.040      117.628       10.639        0.008      336.439        7.742      860.680
04/25/2013  00:56:00     -128.991      -17.314      -22.736       12.407        9.745       10.003      153.925       94.958      100.060        0.890        0.017      130.148        5.969        0.002      336.470        7.794      860.675
04/25/2013  00:57:00     -123.515      -28.592      -21.016       10.287       12.660       11.282      105.815      160.272      127.282        0.845        0.020      126.782        2.450        0.000      336.426        7.720      860.672
04/25/2013  00:58:00     -105.746      -55.404      -18.451       25.529       26.259       14.430      651.723      689.543      208.231        0.807        0.077      119.381       15.631        0.017      336.337        7.572      860.666
04/25/2013  00:59:00     -101.021      -44.971       -7.719       26.414       23.261       20.389      697.685      541.077      415.709        0.697        0.083      110.578       14.448        0.017      336.400        7.678      860.663
04/25/2013  01:00:00     -116.355      -38.424      -14.598       27.327       25.318       16.549      746.766      641.010      273.876        0.844        0.083      122.535       15.296        0.016      336.373        7.631      860.662
04/25/2013  01:01:00     -125.731      -23.800      -11.252       23.911       20.855       14.708      571.753      434.925      216.311        0.886        0.061      127.964       10.634        0.007      336.564        7.952      860.654
04/25/2013  01:02:00     -142.150      -22.251      -16.461       16.573       16.679       14.052      274.660      278.173      197.453        1.086        0.038      143.881        5.290        0.001      336.446        7.753      860.651
04/25/2013  01:03:00     -162.300      -32.952      -23.922       18.823       19.421       12.581      354.303      377.171      158.287        1.444        0.044      165.612        8.781        0.003      336.365        7.618      860.660
04/25/2013  01:04:00     -140.266      -59.402      -13.861       12.337       12.749       11.241      152.206      162.537      126.369        1.192        0.022      152.326        5.389        0.001      336.388        7.656      860.660
04/25/2013  01:05:00     -142.291      -44.345      -13.753       23.091       17.970       13.307      533.186      322.923      177.087        1.172        0.052      149.041       13.658        0.008      336.439        7.741      860.665
04/25/2013  01:06:00     -116.284      -51.800       -3.276       22.691       20.486       12.610      514.898      419.686      159.008        0.865        0.055      127.300       12.366        0.009      336.549        7.927      860.667
04/25/2013  01:07:00     -116.388      -34.076      -16.902       13.082       13.194       11.807      171.130      174.080      139.398        0.774        0.024      121.274        3.540        0.001      336.521        7.880      860.664
04/25/2013  01:08:00     -126.405      -35.713      -10.260       17.010       14.740       12.013      289.342      217.268      144.311        0.900        0.033      131.353        9.419        0.005      336.476        7.804      860.657
04/25/2013  01:09:00     -126.551      -48.781      -13.223       18.958       16.186       14.210      359.402      261.988      201.922        0.970        0.041      135.627       12.784        0.009      336.399        7.675      860.664
04/25/2013  01:10:00     -104.798      -51.109       -5.646       20.104       16.878       13.517      404.151      284.861      182.706        0.725        0.044      116.597       10.129        0.008      336.354        7.601      860.656
04/25/2013  01:11:00      -62.368      -44.793       -3.540       33.402       18.029       14.503     1115.712      325.045      210.339        0.378        0.083       76.786       14.085        0.034      336.429        7.725      860.659
04/25/2013  01:12:00      -22.704      -32.307       -2.889       29.459       19.961       13.062      867.834      398.428      170.610        0.150        0.072       39.487       12.764        0.104      336.458        7.773      860.656
04/25/2013  01:13:00      -22.101      -22.502       -7.088       15.486       14.622        9.242      239.817      213.810       85.411        0.079        0.027       31.540        6.465        0.042      336.441        7.746      860.656
04/25/2013  01:14:00      -27.804      -26.237       -1.708       16.738       13.339       11.266      280.144      177.921      126.934        0.102        0.029       38.229        8.390        0.048      336.447        7.755      860.660
04/25/2013  01:15:00      -59.781      -58.207       -9.329       23.326       16.210       15.316      544.121      262.769      234.573        0.404        0.052       83.438       14.892        0.032      336.420        7.710      860.658
04/25/2013  01:16:00      -83.028      -48.358       -6.617       32.856       20.503       15.562     1079.497      420.377      242.182        0.551        0.087       96.084        7.047        0.005      336.381        7.645      860.663
04/25/2013  01:17:00     -141.089      -75.679       -6.622       27.086       16.955       18.914      733.651      287.466      357.729        1.353        0.069      160.105       15.486        0.009      336.196        7.335      860.657
04/25/2013  01:18:00     -135.284      -51.736      -12.380       21.439       19.427       15.333      459.644      377.392      235.109        1.110        0.054      144.839        7.166        0.002      336.053        7.096      860.658
04/25/2013  01:19:00     -105.303      -69.866      -13.717       17.595       14.885       14.850      309.590      221.550      220.533        0.845        0.038      126.372       10.843        0.007      336.114        7.198      860.669
04/25/2013  01:20:00     -112.400      -56.194       -3.430       18.870       15.938       13.789      356.093      254.006      190.136        0.830        0.040      125.664        9.332        0.006      336.111        7.193      860.658
04/25/2013  01:21:00     -120.334      -44.751       -8.482       15.421       20.884       12.074      237.801      436.133      145.792        0.869        0.041      128.386        5.115        0.002      336.118        7.204      860.668
04/25/2013  01:22:00      -95.896      -46.188       -1.975       30.497       19.978       16.266      930.050      399.114      264.582        0.646        0.080      106.440       16.875        0.025      336.109        7.189      860.668
04/25/2013  01:23:00     -104.615      -41.941       -7.131       23.219       21.702       16.429      539.129      470.992      269.927        0.702        0.064      112.709       10.833        0.009      336.182        7.312      860.662
04/25/2013  01:24:00     -115.859      -51.862       -7.336       34.116       19.301       15.906     1163.900      372.521      252.985        0.898        0.089      126.937       16.291        0.016      336.112        7.196      860.651
04/25/2013  01:25:00      -91.015      -41.070       -3.345       37.537       23.097       16.444     1409.007      533.455      270.421        0.610        0.111       99.852       15.177        0.023      336.056        7.102      860.646
04/25/2013  01:26:00      -95.299      -49.242       -9.736       26.119       19.376       11.422      682.185      375.423      130.459        0.639        0.059      107.269       10.194        0.009      336.076        7.135      860.651
04/25/2013  01:27:00      -64.453      -46.368       -1.334       19.571       22.609       17.262      383.022      511.166      297.970        0.375        0.060       79.399       10.019        0.016      336.137        7.237      860.641
04/25/2013  01:28:00      -67.276      -88.813       -3.477       38.452       21.667       19.339     1478.555      469.460      373.981        0.737        0.116      111.417       20.520        0.034      336.210        7.360      860.640
04/25/2013  01:29:00      -89.310      -65.816      -11.250       24.677       21.548       18.623      608.946      464.337      346.800        0.693        0.071      110.941       15.213        0.019      336.219        7.376      860.635
04/25/2013  01:30:00      -96.910      -52.318       -6.658       25.159       22.495       16.791      632.951      506.036      281.936        0.680        0.071      110.130        6.040        0.003      336.317        7.536      860.635
04/25/2013  01:31:00      -70.211      -52.148       -1.363       48.871       25.746       22.619     2388.357      662.878      511.619        0.561        0.178       87.459       26.734        0.093      336.221        7.377      860.633
04/25/2013  01:32:00      -59.709      -53.377        9.372       40.955       31.935       22.916     1677.334     1019.843      525.129        0.486        0.161       80.089       23.458        0.086      336.106        7.185      860.631
04/25/2013  01:33:00      -70.097      -59.795        3.543       48.103       36.448       24.213     2313.876     1328.475      586.279        0.636        0.211       92.136       20.461        0.049      336.037        7.069      860.631
04/25/2013  01:34:00      -70.082      -50.058        7.325       53.085       30.093       24.373     2818.031      905.592      594.065        0.589        0.216       86.124       27.391        0.101      335.967        6.952      860.615
04/25/2013  01:35:00      -77.423      -63.485        9.322       52.725       33.005       22.676     2779.903     1089.355      514.216        0.725        0.219      100.124       23.988        0.057      336.006        7.019      860.610
04/25/2013  01:36:00      -83.883      -71.995        3.494       42.101       26.200       20.686     1772.468      686.424      427.905        0.756        0.144      110.542       12.864        0.014      336.090        7.158      860.604
04/25/2013  01:37:00     -128.532      -72.900       -9.641       44.731       29.610       22.522     2000.828      876.759      507.262        1.266        0.169      147.766       15.493        0.011      336.097        7.168      860.613
04/25/2013  01:38:00      -97.462      -54.941       -5.899       41.535       31.979       21.281     1725.148     1022.660      452.881        0.788        0.160      111.881       18.068        0.026      336.045        7.083      860.612
04/25/2013  01:39:00     -108.643      -57.492      -12.499       28.733       27.873       16.351      825.612      776.886      267.366        0.857        0.093      122.917        9.916        0.007      336.016        7.034      860.613
04/25/2013  01:40:00      -98.242      -33.355       -7.281       15.988       20.299       12.419      255.612      412.032      154.231        0.582        0.041      103.750        7.811        0.006      336.024        7.047      860.621
04/25/2013  01:41:00     -133.933      -20.034       -9.392       26.631       14.916       12.668      709.217      222.489      160.472        0.976        0.055      135.423       10.849        0.006      335.964        6.947      860.628
04/25/2013  01:42:00     -127.857      -27.887       -5.815       42.258       30.398       22.007     1785.777      924.016      484.310        1.018        0.160      130.863       20.426        0.024      335.749        6.590      860.635
04/25/2013  01:43:00     -107.838      -21.220       -4.117       35.739       23.664       20.186     1277.302      559.966      407.474        0.717        0.112      109.906       13.897        0.016      335.700        6.509      860.644
04/25/2013  01:44:00     -113.847      -39.396       -2.716       26.939       24.589       15.690      725.713      604.627      246.180        0.805        0.079      120.471       10.831        0.008      335.741        6.576      860.649
04/25/2013  01:45:00     -118.442      -44.590       -1.587       27.493       19.008       15.999      755.850      361.302      255.956        0.870        0.069      126.557       12.202        0.009      335.725        6.550      860.650
04/25/2013  01:46:00      -76.968      -37.835        5.010       38.057       31.334       17.671     1448.317      981.812      312.278        0.506        0.137       85.765       19.173        0.050      335.793        6.664      860.649
04/25/2013  01:47:00     -111.260      -40.836        0.681       34.511       28.287       20.243     1190.988      800.149      409.779        0.822        0.120      118.517       17.815        0.023      335.771        6.626      860.651
04/25/2013  01:48:00      -98.692      -49.901       -1.785       31.383       24.811       18.290      984.870      615.604      334.533        0.708        0.097      110.591       17.858        0.026      335.788        6.655      860.651
04/25/2013  01:49:00     -104.167      -16.171       -7.865       30.785       21.246       14.428      947.696      451.386      208.157        0.639        0.080      105.415       15.539        0.022      335.764        6.615      860.660
04/25/2013  01:50:00     -114.661      -30.299       -7.745       26.885       20.822       15.428      722.783      433.570      238.024        0.776        0.070      118.597        9.476        0.006      335.709        6.525      860.655
04/25/2013  01:51:00      -92.937      -27.878        0.026       29.008       25.953       19.606      841.440      673.551      384.379        0.566        0.095       97.028       16.687        0.030      335.659        6.440      860.651
04/25/2013  01:52:00     -114.687      -40.254        1.039       29.627       25.217       18.201      877.738      635.904      331.286        0.831        0.092      121.546       14.552        0.014      335.647        6.421      860.639
04/25/2013  01:53:00     -128.288      -37.473       -1.011       25.785       26.203       20.646      664.890      686.619      426.238        0.982        0.089      133.649       16.317        0.015      335.700        6.510      860.627
04/25/2013  01:54:00      -73.467      -45.372        2.632       37.954       22.724       15.809     1440.492      516.381      249.910        0.483        0.110       86.348       13.967        0.026      335.782        6.644      860.629
04/25/2013  01:55:00      -86.783      -44.030        6.400       42.619       19.759       18.539     1816.346      390.419      343.697        0.603        0.128       97.314       20.960        0.046      335.776        6.636      860.615
04/25/2013  01:56:00      -64.877      -52.596       -4.204       37.555       27.614       15.467     1410.360      762.523      239.225        0.470        0.121       83.518       13.222        0.025      335.852        6.762      860.605
04/25/2013  01:57:00      -69.347      -46.467        2.380       34.384       28.929       18.780     1182.285      836.902      352.685        0.467        0.119       83.476       16.213        0.038      335.828        6.723      860.583
04/25/2013  01:58:00      -69.115      -36.743        2.317       27.715       19.722       15.601      768.131      388.964      243.383        0.377        0.070       78.275       14.214        0.033      335.771        6.628      860.576
04/25/2013  01:59:00      -56.952      -30.582       -0.148       30.662       16.939       17.530      940.148      286.921      307.299        0.286        0.077       64.643       16.702        0.067      335.785        6.651      860.557
04/25/2013  02:00:00     -111.796      -46.211       -5.895       16.265       13.983       14.123      264.550      195.532      199.463        0.766        0.033      120.971       10.040        0.007      335.778        6.639      860.541
04/25/2013  02:01:00     -118.035      -41.362      -11.749       19.425       15.931       12.569      377.334      253.811      157.987        0.828        0.039      125.073       10.961        0.008      335.748        6.588      860.527
04/25/2013  02:02:00     -108.530      -61.972      -11.400       13.719       12.313       13.167      188.200      151.617      173.368        0.813        0.026      124.977        9.665        0.006      335.645        6.418      860.520
04/25/2013  02:03:00     -114.588      -50.202       -6.759       21.036       20.254       16.168      442.527      410.213      261.420        0.841        0.056      125.103       14.235        0.013      335.733        6.563      860.513
04/25/2013  02:04:00     -122.295      -56.487       -5.114       24.737       18.379       16.909      611.921      337.775      285.915        0.970        0.062      134.711       14.963        0.012      335.697        6.503      860.512
04/25/2013  02:05:00     -117.855      -35.150      -18.396       15.882       20.510       12.658      252.249      420.650      160.225        0.815        0.042      122.985        7.170        0.003      335.674        6.465      860.508
04/25/2013  02:06:00     -137.855      -28.739      -14.479       17.472       16.408       12.918      305.257      269.212      166.878        1.039        0.037      140.819        7.913        0.003      335.588        6.321      860.498
04/25/2013  02:07:00     -105.450      -41.766       -0.593       35.605       25.088       21.059     1267.749      629.390      443.494        0.760        0.117      113.420       17.549        0.024      335.585        6.317      860.512
04/25/2013  02:08:00     -106.389      -36.802       -4.619       24.554       23.599       18.905      602.896      556.901      357.404        0.711        0.076      112.575       12.636        0.013      335.595        6.334      860.505
04/25/2013  02:09:00     -115.627      -34.844       -5.058       29.897       22.734       13.583      893.827      516.848      184.509        0.810        0.080      120.763       14.640        0.015      335.578        6.306      860.510
04/25/2013  02:10:00     -135.556      -29.537      -10.194       29.736       23.276       18.088      884.215      541.770      327.164        1.055        0.088      138.736       14.048        0.010      335.539        6.241      860.505
04/25/2013  02:11:00     -143.248      -52.273       -5.805       27.791       26.347       22.393      772.331      694.159      501.460        1.263        0.098      152.488       16.086        0.011      335.615        6.366      860.512
04/25/2013  02:12:00     -129.271      -39.767       -0.589       32.372       26.757       16.439     1047.965      715.929      270.239        1.016        0.102      135.250       14.027        0.011      335.542        6.245      860.505
04/25/2013  02:13:00     -126.236      -30.813       -2.296       37.099       25.950       17.215     1376.346      673.406      296.373        0.962        0.117      129.943       17.895        0.019      335.543        6.247      860.509
04/25/2013  02:14:00      -96.927      -33.438       -0.075       25.674       22.649       16.328      659.174      512.964      266.607        0.598        0.072      102.532       13.879        0.018      335.582        6.311      860.523
04/25/2013  02:15:00      -80.346      -42.387        4.669       32.518       25.578       18.518     1057.420      654.251      342.909        0.516        0.103       90.841       20.745        0.052      335.602        6.346      860.524
04/25/2013  02:16:00      -84.136      -46.405        2.242       31.651       26.107       19.065     1001.808      681.564      363.488        0.564        0.102       96.085       15.039        0.024      335.505        6.184      860.526
04/25/2013  02:17:00      -60.640      -47.304        6.180       37.009       30.012       22.218     1369.670      900.720      493.627        0.436        0.138       76.908       18.974        0.061      335.541        6.243      860.524
04/25/2013  02:18:00      -70.474      -52.883        4.575       50.974       28.930       22.362     2598.386      836.945      500.064        0.586        0.197       88.109       21.218        0.058      335.523        6.214      860.521
04/25/2013  02:19:00      -86.722      -68.342       11.963       51.241       43.282       28.090     2625.689     1873.336      789.045        0.881        0.264      110.414       32.396        0.086      335.491        6.160      860.514
04/25/2013  02:20:00     -109.236      -84.539       -1.560       59.434       36.470       26.569     3532.428     1330.049      705.924        1.232        0.278      138.128       29.257        0.045      335.521        6.209      860.513
04/25/2013  02:21:00      -94.367      -73.376        4.856       63.074       47.684       29.338     3978.283     2273.721      860.741        1.071        0.356      119.538       29.444        0.061      335.505        6.183      860.516
04/25/2013  02:22:00      -75.411      -82.019        2.328       54.663       45.176       26.691     2987.997     2040.860      712.404        0.908        0.287      111.418       26.394        0.056      335.500        6.176      860.508
04/25/2013  02:23:00      -74.687      -69.726        9.834       57.420       46.501       29.335     3297.076     2162.345      860.563        0.843        0.316      102.176       34.722        0.115      335.486        6.152      860.506
04/25/2013  02:24:00      -73.889      -70.720       12.932       52.929       40.981       31.608     2801.492     1679.443      999.064        0.805        0.274      102.279       31.953        0.098      335.525        6.218      860.511
04/25/2013  02:25:00     -102.996      -76.504        3.640       61.066       28.715       29.270     3729.049      824.569      856.740        1.094        0.271      128.301       33.043        0.066      335.459        6.107      860.524
04/25/2013  02:26:00     -132.675     -107.481       -6.371       44.054       31.099       24.029     1940.797      967.138      577.373        1.634        0.174      170.748       14.869        0.008      335.545        6.250      860.522
04/25/2013  02:27:00      -61.912      -73.547        1.561       46.698       37.162       26.432     2180.697     1381.017      698.625        0.675        0.213       96.136       24.463        0.065      335.556        6.268      860.529
04/25/2013  02:28:00      -64.844      -60.498        9.933       46.867       40.729       27.980     2196.562     1658.847      782.885        0.630        0.232       88.684       23.649        0.071      335.519        6.208      860.515
04/25/2013  02:29:00      -69.206      -49.346        8.674       47.654       37.770       24.333     2270.860     1426.544      592.100        0.579        0.214       84.997       25.122        0.087      335.477        6.137      860.506
04/25/2013  02:30:00      -59.150      -51.238        4.836       46.003       45.791       25.546     2116.267     2096.794      652.582        0.551        0.243       78.257       22.211        0.081      335.512        6.194      860.512
04/25/2013  02:31:00      -77.219      -80.806        0.373       47.763       35.769       30.786     2281.292     1279.393      947.786        0.850        0.225      111.770       27.352        0.060      335.482        6.146      860.492
04/25/2013  02:32:00     -103.649      -85.056        1.188       52.301       46.929       30.642     2735.416     2202.312      938.943        1.193        0.294      134.081       33.874        0.064      335.476        6.136      860.490
04/25/2013  02:33:00      -69.112      -41.532        8.512       54.391       35.985       28.453     2958.332     1294.947      809.562        0.582        0.253       80.631       25.511        0.100      335.446        6.085      860.479
04/25/2013  02:34:00      -94.300      -58.476        5.019       59.158       40.652       27.020     3499.693     1652.606      730.096        0.911        0.294      110.959       30.083        0.074      335.450        6.091      860.466
04/25/2013  02:35:00      -79.371      -70.146        9.420       41.657       33.671       24.275     1735.342     1133.758      589.291        0.738        0.173      105.925       23.356        0.049      335.453        6.096      860.450
04/25/2013  02:36:00      -45.665      -44.444       16.073       47.043       38.541       32.496     2213.025     1485.375     1055.972        0.454        0.238       63.722       28.467        0.200      335.442        6.079      860.440
04/25/2013  02:37:00      -43.523      -45.173       13.966       58.478       33.233       25.381     3419.622     1104.406      644.199        0.465        0.258       62.728       31.431        0.251      335.433        6.063      860.427
04/25/2013  02:38:00      -98.614      -61.098        1.715       44.456       26.298       21.227     1976.300      691.572      450.603        0.829        0.156      116.007       15.910        0.019      335.453        6.096      860.420
04/25/2013  02:39:00     -123.641      -61.000       -6.119       30.500       25.972       18.631      930.237      674.526      347.110        1.050        0.098      137.870       12.582        0.008      335.405        6.017      860.410
04/25/2013  02:40:00      -40.116      -35.700       17.864       44.847       26.683       17.761     2011.292      711.972      315.453        0.312        0.152       53.701       22.551        0.176      335.404        6.014      860.392
04/25/2013  02:41:00      -78.309      -51.819        3.948       45.036       26.714       24.086     2028.224      713.640      580.115        0.608        0.166       93.902       23.961        0.065      335.354        5.931      860.380
04/25/2013  02:42:00      -80.499      -53.836        3.247       43.593       29.560       19.813     1900.327      873.803      392.564        0.628        0.158       96.842       22.286        0.053      335.330        5.891      860.374
04/25/2013  02:43:00      -64.080      -58.452        0.832       47.508       34.264       23.817     2257.050     1174.013      567.272        0.576        0.200       86.735       17.288        0.040      335.343        5.912      860.370
04/25/2013  02:44:00      -47.900      -67.210        9.714       45.111       33.162       29.291     2035.019     1099.692      857.964        0.545        0.200       82.532       28.710        0.121      335.363        5.946      860.372
04/25/2013  02:45:00      -50.556      -43.246        8.000       44.356       41.197       25.193     1967.441     1697.175      634.699        0.439        0.215       66.529       26.191        0.155      335.339        5.907      860.365
04/25/2013  02:46:00      -53.437      -38.005        6.941       47.318       29.419       20.022     2239.024      865.464      400.877        0.393        0.175       65.574       19.115        0.085      335.336        5.901      860.380
04/25/2013  02:47:00      -39.100      -37.668        6.990       42.567       34.011       24.336     1811.980     1156.736      592.265        0.328        0.178       54.293       26.847        0.245      335.327        5.886      860.375
04/25/2013  02:48:00      -63.381      -39.463        5.098       49.615       34.015       22.409     2461.680     1157.035      502.182        0.486        0.206       74.662       26.491        0.126      335.352        5.927      860.384
04/25/2013  02:49:00      -75.234      -48.796        2.417       40.391       28.055       25.765     1631.454      787.064      663.824        0.556        0.154       89.673       25.023        0.078      335.327        5.885      860.389
04/25/2013  02:50:00      -86.961      -73.361       -6.759       40.769       35.365       22.742     1662.102     1250.656      517.190        0.821        0.171      113.772       20.867        0.034      335.305        5.850      860.383
04/25/2013  02:51:00      -98.337      -50.581       -3.792       42.224       22.306       19.185     1782.854      497.562      368.076        0.745        0.132      110.583       15.153        0.019      335.187        5.654      860.386
04/25/2013  02:52:00     -134.245      -44.985       -8.558       36.601       19.505       16.741     1339.620      380.447      280.272        1.106        0.100      141.582       18.755        0.018      335.146        5.586      860.398
04/25/2013  02:53:00     -139.069      -46.890       -4.520       49.761       36.718       23.471     2476.143     1348.234      550.909        1.297        0.219      146.761       25.723        0.031      335.201        5.676      860.395
04/25/2013  02:54:00     -109.514      -44.655        2.589       41.469       30.879       21.545     1719.694      953.504      464.174        0.857        0.157      118.269       18.247        0.024      335.248        5.754      860.403
04/25/2013  02:55:00     -120.590      -55.168       -0.200       35.521       31.509       18.058     1261.729      992.800      326.074        1.008        0.129      132.610       11.701        0.008      335.253        5.764      860.400
04/25/2013  02:56:00     -116.197      -54.412       -4.487       27.233       26.893       21.145      741.614      723.227      447.130        0.920        0.096      128.306       16.662        0.017      335.205        5.684      860.405
04/25/2013  02:57:00     -115.953      -55.122       -3.022       29.248       29.976       18.730      855.448      898.552      350.819        0.930        0.105      128.388       16.192        0.016      335.227        5.720      860.402
04/25/2013  02:58:00      -83.626      -60.654        4.956       41.344       25.743       20.466     1709.346      662.712      418.868        0.674        0.140      103.306       21.810        0.045      335.298        5.838      860.396
04/25/2013  02:59:00     -101.361      -49.652       -1.754       33.582       27.534       19.202     1127.769      758.095      368.715        0.750        0.113      112.868       18.184        0.026      335.313        5.863      860.392
04/25/2013  03:00:00     -125.845      -51.659       -3.535       24.912       37.749       17.820      620.608     1424.989      317.536        1.044        0.118      136.035       15.375        0.013      335.306        5.851      860.371
04/25/2013  03:01:00     -123.278      -39.243       -4.862       30.296       27.049       18.569      917.864      731.659      344.798        0.938        0.100      129.373       17.540        0.018      335.279        5.807      860.362
04/25/2013  03:02:00     -116.736      -24.263       -3.379       30.652       28.402       18.392      939.557      806.650      338.263        0.816        0.104      119.231       16.030        0.018      335.236        5.735      860.352
04/25/2013  03:03:00     -110.805      -20.484       -1.281       30.706       25.222       19.153      942.844      636.156      366.856        0.732        0.097      112.683       19.088        0.029      335.232        5.729      860.338
04/25/2013  03:04:00     -112.940      -22.703       -3.086       28.229       23.797       16.551      796.902      566.288      273.934        0.746        0.082      115.199       15.369        0.018      335.184        5.649      860.331
04/25/2013  03:05:00     -112.331      -12.890       -4.382       35.144       27.745       18.840     1235.080      769.761      354.938        0.758        0.118      113.068       13.853        0.015      335.186        5.652      860.324
04/25/2013  03:06:00     -132.308      -36.596       -2.544       30.003       21.460       15.028      900.204      460.541      225.834        1.022        0.079      137.276       14.398        0.011      335.279        5.806      860.333
04/25/2013  03:07:00     -116.385      -57.705        2.805       30.479       26.115       18.379      928.975      682.016      337.802        0.942        0.097      129.905       17.906        0.019      335.249        5.756      860.353
04/25/2013  03:08:00     -139.940      -49.219       -4.667       14.845       22.300       13.800      220.384      497.312      190.448        1.147        0.045      148.343        8.953        0.004      335.292        5.827      860.359
04/25/2013  03:09:00     -146.520      -62.059       -7.895       27.894       22.474       17.696      778.068      505.075      313.131        1.349        0.080      159.120       15.497        0.009      335.283        5.813      860.373
04/25/2013  03:10:00     -125.640      -49.177       -4.764       26.643       20.563       16.550      709.836      422.827      273.901        0.982        0.070      134.922       13.809        0.010      335.218        5.705      860.386
04/25/2013  03:11:00     -133.210      -46.193      -10.306       27.569       19.558       16.981      760.056      382.506      288.351        1.071        0.072      140.992       15.651        0.012      335.238        5.736      860.386
04/25/2013  03:12:00     -120.465      -57.845      -12.729       20.349       19.889       16.115      414.073      395.565      259.700        0.954        0.053      133.633        8.425        0.004      335.243        5.746      860.393
04/25/2013  03:13:00     -108.254      -62.203       -5.389       23.576       25.492       17.140      555.820      649.846      293.793        0.856        0.075      124.853       15.290        0.015      335.261        5.777      860.394
04/25/2013  03:14:00     -117.825      -36.996       -8.812       25.136       17.485       11.926      631.809      305.741      142.230        0.820        0.054      123.497       11.450        0.009      335.273        5.797      860.381
04/25/2013  03:15:00      -73.272      -59.393       -1.628       22.247       20.724       12.317      494.926      429.497      151.711        0.499        0.054       94.320        9.827        0.011      335.309        5.855      860.384
04/25/2013  03:16:00      -88.224      -47.596        0.019       34.572       15.284       17.243     1195.207      233.610      297.319        0.589        0.086      100.244       19.396        0.037      335.324        5.881      860.386
04/25/2013  03:17:00      -93.453      -48.436       -9.316       29.172       13.969       14.244      850.996      195.142      202.904        0.621        0.062      105.259       13.903        0.017      335.301        5.843      860.381
04/25/2013  03:18:00     -136.203      -55.988       -4.107       22.951       14.607       12.585      526.770      213.373      158.370        1.130        0.045      147.261       11.470        0.006      335.268        5.788      860.381
04/25/2013  03:19:00      -89.952      -60.273        0.277       32.310       26.400       21.252     1043.922      696.954      451.637        0.696        0.110      108.278       17.180        0.025      335.239        5.739      860.397
04/25/2013  03:20:00      -99.911      -69.646       -6.760       28.760       19.092       13.901      827.159      364.523      193.238        0.813        0.069      121.790       10.943        0.008      335.305        5.848      860.400
04/25/2013  03:21:00     -115.982      -58.162       -5.913       29.955       29.489       17.318      897.283      869.600      299.904        0.947        0.103      129.748       15.179        0.014      335.235        5.733      860.402
04/25/2013  03:22:00      -81.088      -51.038        3.024       35.677       23.510       20.717     1272.871      552.705      429.187        0.572        0.113       95.814       19.792        0.043      335.170        5.626      860.411
04/25/2013  03:23:00      -53.546      -52.121        3.489       36.613       24.871       20.391     1340.535      618.584      415.810        0.398        0.119       74.725       13.772        0.034      335.171        5.627      860.419
04/25/2013  03:24:00      -49.358      -47.388        5.459       45.146       30.246       21.699     2038.148      914.835      470.857        0.407        0.171       68.424       22.979        0.113      335.100        5.510      860.419
04/25/2013  03:25:00      -65.238      -42.324        2.506       43.333       30.994       26.214     1877.772      960.627      687.172        0.479        0.176       77.765       18.222        0.055      335.108        5.523      860.423
04/25/2013  03:26:00      -83.711      -72.583        3.400       50.017       34.540       22.885     2501.663     1193.004      523.705        0.825        0.211      110.797       26.524        0.057      335.158        5.606      860.431
04/25/2013  03:27:00      -92.629      -84.268        6.434       56.925       43.249       28.361     3240.408     1870.483      804.353        1.082        0.296      125.225       31.709        0.064      335.111        5.529      860.429
04/25/2013  03:28:00     -109.298      -77.214        5.151       60.413       44.942       32.413     3649.709     2019.742     1050.614        1.233        0.336      133.821       35.895        0.072      335.075        5.468      860.423
04/25/2013  03:29:00     -119.676      -82.919       -2.643       49.724       53.397       31.321     2472.462     2851.288      981.018        1.375        0.315      145.595       23.421        0.026      335.130        5.562      860.414
04/25/2013  03:30:00     -108.090      -96.627        5.904       65.670       30.511       32.263     4312.542      930.936     1040.915        1.367        0.314      144.984       34.040        0.055      335.084        5.484      860.411
04/25/2013  03:31:00     -116.484     -101.203       -3.024       38.421       42.255       24.474     1476.171     1785.456      598.993        1.384        0.193      154.306       21.154        0.019      335.046        5.420      860.410
04/25/2013  03:32:00      -84.490      -83.893        1.501       56.530       45.004       26.862     3195.657     2025.362      721.561        1.006        0.297      119.066       26.758        0.051      335.046        5.421      860.408
04/25/2013  03:33:00     -106.260      -90.856       -1.058       38.691       41.835       24.895     1496.976     1750.156      619.756        1.171        0.193      139.807       21.220        0.023      335.086        5.487      860.410
04/25/2013  03:34:00      -67.782      -63.369        1.768       45.769       37.435       20.010     2094.818     1401.365      400.410        0.625        0.195       92.791       22.437        0.058      335.099        5.509      860.414
04/25/2013  03:35:00      -80.436      -70.210        3.517       57.535       38.267       25.862     3310.306     1464.387      668.858        0.843        0.272      106.768       30.014        0.079      335.065        5.453      860.432
04/25/2013  03:36:00      -45.272      -43.378       14.225       51.795       31.239       28.025     2682.678      975.887      785.406        0.429        0.222       62.700       30.160        0.231      335.062        5.449      860.454
04/25/2013  03:37:00      -63.284      -70.766        5.736       49.947       49.043       26.981     2494.720     2405.180      727.998        0.734        0.281       94.935       30.708        0.105      335.022        5.382      860.459
04/25/2013  03:38:00      -70.848      -53.518        5.572       32.414       24.583       20.601     1050.650      604.307      424.394        0.500        0.104       88.790       17.138        0.037      335.059        5.442      860.456
04/25/2013  03:39:00      -30.479      -31.930       12.431       28.071       19.593       17.372      787.966      383.898      301.796        0.179        0.074       44.142       14.875        0.114      335.071        5.461      860.457
04/25/2013  03:40:00      -22.002      -19.793        6.914       37.485       25.291       24.108     1405.098      639.652      581.196        0.177        0.131       29.595       23.331        0.621      335.079        5.474      860.459
04/25/2013  03:41:00      -44.467      -39.745        7.923       44.036       29.106       29.256     1939.155      847.169      855.905        0.363        0.182       59.641       25.029        0.176      334.963        5.281      860.444
04/25/2013  03:42:00      -63.705      -50.770        5.321       49.233       31.517       20.952     2423.895      993.313      439.007        0.526        0.193       81.461       25.833        0.101      334.875        5.135      860.434
04/25/2013  03:43:00      -58.047      -39.755        2.805       39.618       25.885       22.700     1569.584      670.052      515.280        0.386        0.138       70.355       21.580        0.094      334.902        5.180      860.430
04/25/2013  03:44:00      -44.797      -45.276        2.717       44.958       33.073       26.405     2021.239     1093.849      697.234        0.394        0.191       63.692       25.704        0.163      334.918        5.207      860.421
04/25/2013  03:45:00      -18.209      -33.912       18.299       42.206       28.949       21.961     1781.306      838.024      482.298        0.246        0.155       38.492       24.062        0.391      334.883        5.148      860.419
04/25/2013  03:46:00      -25.819      -35.392       10.683       35.078       25.786       21.420     1230.473      664.917      458.818        0.219        0.118       43.809       19.242        0.193      334.896        5.171      860.432
04/25/2013  03:47:00      -45.913      -40.927       14.449       28.866       21.576       19.145      833.244      465.524      366.534        0.283        0.083       61.506       11.114        0.033      334.893        5.167      860.440
04/25/2013  03:48:00      -52.557      -44.257        7.700       30.790       19.351       20.292      947.997      374.445      411.779        0.326        0.087       68.709       16.231        0.056      334.897        5.173      860.454
04/25/2013  03:49:00      -55.565      -52.600        8.911       38.733       35.000       21.470     1500.256     1225.033      460.971        0.456        0.159       76.513       24.187        0.100      334.887        5.156      860.452
04/25/2013  03:50:00      -34.385      -42.585        6.671       40.452       26.234       22.448     1636.355      688.248      503.934        0.293        0.141       54.734       19.295        0.124      334.918        5.208      860.463
04/25/2013  03:51:00      -47.303      -34.146        9.691       36.872       24.713       18.404     1359.550      610.717      338.698        0.290        0.115       58.340       19.265        0.109      334.823        5.049      860.475
04/25/2013  03:52:00      -30.507      -37.390        2.561       39.216       22.879       16.408     1537.905      523.463      269.225        0.233        0.117       48.256       18.376        0.145      334.873        5.132      860.484
04/25/2013  03:53:00      -48.146      -29.292        4.088       39.500       16.017       20.372     1560.272      256.537      415.016        0.271        0.112       56.356       24.132        0.183      334.845        5.087      860.489
04/25/2013  03:54:00      -73.719      -44.271       -2.837       18.392       18.294       14.597      338.257      334.658      213.068        0.414        0.044       85.991       10.287        0.014      334.862        5.116      860.489
04/25/2013  03:55:00      -67.225      -20.901       -8.638       20.334       17.542       11.682      413.470      307.720      136.459        0.294        0.043       70.399        5.964        0.007      334.905        5.186      860.503
04/25/2013  03:56:00     -105.341      -21.858       -8.688       16.636       14.532       11.346      276.753      211.187      128.723        0.613        0.031      107.584        7.366        0.005      334.840        5.077      860.499
04/25/2013  03:57:00     -121.717      -24.926       -3.907       17.436       17.957       12.353      304.013      322.454      152.584        0.812        0.039      124.243       11.301        0.008      334.813        5.035      860.514
04/25/2013  03:58:00     -109.543      -32.262       -3.098       19.428       15.266        9.528      377.428      233.053       90.792        0.688        0.035      114.195        7.425        0.004      334.799        5.010      860.524
04/25/2013  03:59:00      -91.765      -37.015       -0.687       31.097       21.324       12.953      967.029      454.734      167.775        0.569        0.079       98.949       13.518        0.019      334.784        4.985      860.536
04/25/2013  04:00:00      -80.834      -47.179        1.749       30.392       16.840       18.649      923.660      283.595      347.795        0.516        0.078       93.595       17.914        0.037      334.809        5.025      860.560
04/25/2013  04:01:00      -55.072      -31.465        5.592       43.236       23.505       15.681     1869.352      552.484      245.901        0.336        0.133       63.427       19.060        0.090      334.806        5.022      860.570
04/25/2013  04:02:00      -16.740      -24.028        4.231       23.624       16.469       11.669      558.103      271.214      136.171        0.092        0.048       29.285       13.063        0.199      334.827        5.055      860.572
04/25/2013  04:03:00       -5.053      -12.499        9.322       18.275       11.949       10.411      333.990      142.777      108.393        0.043        0.029       13.482        9.838        0.532      334.857        5.106      860.572
04/25/2013  04:04:00      -61.986      -28.755       -1.770       24.580       17.958       13.511      604.171      322.479      182.541        0.289        0.055       68.331       14.510        0.045      334.789        4.994      860.563
04/25/2013  04:05:00      -88.391      -44.915       -6.539       20.641       15.822       16.544      426.036      250.346      273.692        0.541        0.048       99.148       13.492        0.019      334.759        4.944      860.555
04/25/2013  04:06:00      -98.660      -49.614        2.016       22.929       18.571       16.143      525.733      344.875      260.612        0.667        0.057      110.432       12.200        0.012      334.775        4.969      860.560
04/25/2013  04:07:00      -97.284      -31.398       -4.241       33.902       16.032       15.159     1149.332      257.017      229.781        0.605        0.082      102.225       18.469        0.033      334.755        4.937      860.567
04/25/2013  04:08:00     -100.428      -56.145       -2.302       25.842       18.392       14.645      667.806      338.262      214.490        0.723        0.061      115.057       15.286        0.018      334.789        4.991      860.578
04/25/2013  04:09:00     -118.433      -42.857       -8.650       22.587       20.290       15.997      510.187      411.684      255.888        0.856        0.059      125.949       14.130        0.013      334.716        4.870      860.589
04/25/2013  04:10:00     -104.775      -39.323       -2.533       24.498       21.179       17.252      600.142      448.561      297.644        0.694        0.067      111.911       14.210        0.016      334.630        4.730      860.592
04/25/2013  04:11:00     -108.725      -31.103       -0.275       40.955       26.108       16.752     1677.307      681.631      280.625        0.771        0.132      113.086       18.373        0.026      334.626        4.721      860.602
04/25/2013  04:12:00     -128.898      -25.218       -5.145       29.134       19.850       15.462      848.781      394.014      239.062        0.938        0.074      131.342       14.931        0.013      334.636        4.740      860.604
04/25/2013  04:13:00     -118.583      -38.374       -1.791       27.624       24.591       13.617      763.084      604.705      185.411        0.855        0.078      124.637       12.843        0.011      334.693        4.833      860.609
04/25/2013  04:14:00      -90.509      -30.127       -3.027       26.819       19.212       17.719      719.236      369.084      313.970        0.526        0.070       95.391        9.785        0.011      334.681        4.814      860.629
04/25/2013  04:15:00      -82.288      -35.218        1.397       25.171       19.019       13.888      633.602      361.721      192.871        0.460        0.059       89.508       11.396        0.016      334.736        4.906      860.635
04/25/2013  04:16:00      -83.501      -42.314       -9.002       28.179       18.391       15.953      794.067      338.222      254.494        0.512        0.069       93.611        5.867        0.004      334.811        5.030      860.634
04/25/2013  04:17:00      -80.280      -38.908       -2.783       29.073       20.901       13.017      845.223      436.859      169.443        0.471        0.073       89.211       13.762        0.024      334.769        4.960      860.643
04/25/2013  04:18:00      -71.030      -35.941       -3.113       36.187       17.906       14.934     1309.512      320.642      223.035        0.410        0.093       79.605       18.786        0.056      334.704        4.852      860.651
04/25/2013  04:19:00     -109.772      -40.363       -2.271       23.684       18.844       11.728      560.948      355.098      137.556        0.737        0.053      116.958       12.190        0.011      334.768        4.958      860.646
04/25/2013  04:20:00     -113.836      -31.674      -10.474       15.457       20.869        9.883      238.933      435.517       97.671        0.742        0.039      118.161        5.476        0.002      334.732        4.899      860.660
04/25/2013  04:21:00     -111.812      -20.366       -9.293       16.782       16.244       11.942      281.623      263.860      142.615        0.685        0.034      113.652        6.248        0.003      334.723        4.884      860.660
04/25/2013  04:22:00     -103.887      -24.605       -9.845       20.642       13.906       12.260      426.088      193.368      150.314        0.613        0.038      106.761        9.456        0.008      334.664        4.786      860.658
04/25/2013  04:23:00     -105.450      -31.980      -11.809       15.514       16.253       10.064      240.671      264.153      101.291        0.644        0.030      110.193        6.136        0.003      334.606        4.688      860.659
04/25/2013  04:24:00      -95.555      -45.089      -13.787       14.793       10.311        6.621      218.827      106.321       43.841        0.586        0.018      105.659        3.822        0.001      334.575        4.637      860.667
04/25/2013  04:25:00      -95.426      -37.384      -17.482        8.278        6.592        7.706       68.524       43.454       59.388        0.549        0.009      102.487        3.281        0.001      334.618        4.711      860.665
04/25/2013  04:26:00      -96.963      -43.884      -13.578       15.538       13.350        8.997      241.419      178.235       80.954        0.601        0.025      106.431        6.414        0.004      334.610        4.696      860.657
04/25/2013  04:27:00      -94.714      -33.066       -6.606       18.001       14.613       10.493      324.048      213.531      110.104        0.538        0.032      100.320        7.060        0.005      334.543        4.584      860.655
04/25/2013  04:28:00      -96.785      -36.679       -4.408       16.216       12.833        8.392      262.944      164.675       70.434        0.562        0.025      103.503        6.690        0.004      334.604        4.685      860.640
04/25/2013  04:29:00      -73.963      -33.127       -0.727       18.769       17.002       10.830      352.287      289.074      117.284        0.366        0.038       81.043        8.362        0.011      334.690        4.829      860.620
04/25/2013  04:30:00      -50.247      -15.092        4.300       24.502       20.921       11.784      600.364      437.699      138.868        0.197        0.059       52.465       11.873        0.051      334.683        4.817      860.608
04/25/2013  04:31:00      -75.019      -21.679       -1.323       26.033       16.564       13.709      677.713      274.359      187.931        0.362        0.057       78.088       14.947        0.037      334.672        4.799      860.584
04/25/2013  04:32:00      -96.684      -19.446       -6.478       10.229       10.471        7.393      104.627      109.643       54.649        0.502        0.013       98.621        2.862        0.001      334.795        5.004      860.577
04/25/2013  04:33:00      -95.929      -27.561      -11.055       11.807       12.437        8.286      139.409      154.672       68.660        0.522        0.018       99.810        3.130        0.001      334.769        4.959      860.578
04/25/2013  04:34:00      -70.688      -17.180        0.950       25.602       14.770       11.087      655.444      218.165      122.912        0.314        0.050       72.746       11.713        0.026      334.699        4.845      860.567
04/25/2013  04:35:00      -84.962       -5.889       -3.043       20.934       15.604       13.137      438.213      243.479      172.589        0.406        0.043       85.165       12.320        0.021      334.630        4.730      860.568
04/25/2013  04:36:00      -92.504       -3.479       -6.708       21.274       15.664       13.806      452.570      245.363      190.608        0.475        0.044       92.570       12.410        0.018      334.646        4.757      860.568
04/25/2013  04:37:00     -100.622      -20.463       -9.019       21.905       11.305       11.211      479.848      127.794      125.694        0.568        0.037      102.681       10.083        0.010      334.680        4.812      860.590
04/25/2013  04:38:00     -119.863      -25.186       -7.545       17.147       14.759       11.528      294.012      217.828      132.885        0.785        0.032      122.480        9.441        0.006      334.576        4.640      860.599
04/25/2013  04:39:00     -118.606      -19.522      -10.171       23.813       12.815       11.677      567.052      164.222      136.345        0.771        0.043      120.202       11.185        0.009      334.547        4.592      860.603
04/25/2013  04:40:00     -110.838       -8.912       -8.074       34.670       12.468       14.403     1202.040      155.440      207.455        0.700        0.078      111.196       16.256        0.021      334.447        4.425      860.611
04/25/2013  04:41:00     -117.890      -10.543       -3.028       24.214       16.370       15.108      586.302      267.962      228.260        0.755        0.054      118.360       14.361        0.015      334.359        4.280      860.602
04/25/2013  04:42:00     -112.156      -15.672       -2.982       31.240       19.248       15.131      975.942      370.467      228.962        0.720        0.079      113.246       14.481        0.016      334.313        4.205      860.587
04/25/2013  04:43:00     -107.096      -14.561        1.052       33.957       24.125       22.148     1153.045      582.010      490.525        0.695        0.111      108.081       20.633        0.036      334.324        4.222      860.563
04/25/2013  04:44:00     -120.901      -10.576       -8.260       27.416       18.710       18.842      751.633      350.053      355.006        0.813        0.073      121.363       17.710        0.021      334.332        4.234      860.554
04/25/2013  04:45:00     -127.290       -5.839       -9.490       26.197       16.088       16.817      686.292      258.820      282.817        0.878        0.061      127.424       14.092        0.012      334.337        4.244      860.540
04/25/2013  04:46:00     -130.040       -1.691       -8.186       33.763       22.115       18.775     1139.917      489.069      352.515        0.948        0.099      130.051       17.086        0.017      334.287        4.160      860.526
04/25/2013  04:47:00     -128.994      -23.296       -6.327       25.992       26.197       16.829      675.582      686.300      283.228        0.943        0.082      131.081       15.504        0.014      334.316        4.209      860.518
04/25/2013  04:48:00     -122.335      -42.767       -9.626       32.117       29.463       15.309     1031.528      868.084      234.362        0.951        0.107      129.595       12.636        0.010      334.176        3.976      860.524
04/25/2013  04:49:00     -128.506      -10.755       -8.418       34.792       35.449       22.836     1210.502     1256.625      521.487        0.984        0.149      128.955       19.097        0.022      334.125        3.891      860.519
04/25/2013  04:50:00     -145.714       -8.545      -18.649       40.861       27.206       24.609     1669.653      740.161      605.607        1.233        0.151      145.965       26.010        0.032      334.126        3.892      860.513
04/25/2013  04:51:00     -159.528        9.630      -15.507       46.798       30.283       22.284     2190.060      917.061      496.594        1.469        0.180      159.819       24.809        0.024      334.162        3.952      860.512
04/25/2013  04:52:00     -143.738       16.686      -16.998       43.682       31.325       24.562     1908.104      981.230      603.305        1.236        0.175      144.703       20.704        0.020      334.221        4.052      860.508
04/25/2013  04:53:00     -140.742       11.830      -14.090       37.077       34.359       26.341     1374.683     1180.539      693.871        1.170        0.162      141.238       23.838        0.028      334.210        4.032      860.496
04/25/2013  04:54:00     -131.882       -1.445      -13.895       37.501       34.971       17.790     1406.290     1222.972      316.479        1.027        0.147      131.890       12.834        0.009      334.265        4.124      860.502
04/25/2013  04:55:00      -92.492      -29.456       -4.189       45.628       38.409       21.068     2081.883     1475.283      443.846        0.672        0.200       97.069       22.853        0.055      334.218        4.046      860.496
04/25/2013  04:56:00      -58.862       -2.557       -2.834       42.174       35.771       19.570     1778.612     1279.575      382.993        0.346        0.172       58.917       19.587        0.111      334.180        3.983      860.498
04/25/2013  04:57:00     -113.068       -0.243      -18.184       38.819       37.304       21.186     1506.951     1391.562      448.855        0.823        0.167      113.069       16.584        0.022      334.191        4.001      860.502
04/25/2013  04:58:00      -86.549       -6.262       -6.048       47.748       34.755       22.309     2279.905     1207.898      497.684        0.578        0.199       86.776       20.922        0.058      334.199        4.014      860.489
04/25/2013  04:59:00     -105.939       -7.491      -14.559       30.867       35.520       17.504      952.793     1261.680      306.397        0.701        0.126      106.203        8.389        0.006      334.293        4.170      860.475
04/25/2013  05:00:00      -83.400       -4.770       -9.944       37.541       35.454       22.667     1409.339     1257.016      513.773        0.513        0.159       83.536       14.228        0.029      334.228        4.063      860.457
04/25/2013  05:01:00     -107.490       -9.685      -13.828       51.969       28.944       21.436     2700.803      837.742      459.523        0.792        0.200      107.926       24.595        0.052      334.199        4.013      860.448
04/25/2013  05:02:00      -79.420      -36.727       -4.727       45.012       37.054       23.318     2026.058     1373.025      543.747        0.581        0.197       87.501       23.932        0.075      334.241        4.084      860.438
04/25/2013  05:03:00      -87.048      -41.505       -2.828       40.237       32.660       18.872     1618.998     1066.644      356.168        0.617        0.152       96.437       18.609        0.037      334.359        4.280      860.435
04/25/2013  05:04:00      -77.998      -39.693        1.193       29.609       28.414       19.307      876.718      807.378      372.758        0.486        0.103       87.517       15.143        0.030      334.394        4.338      860.425
04/25/2013  05:05:00      -87.227      -38.384       -6.444       32.861       37.976       20.944     1079.846     1442.180      438.652        0.604        0.148       95.299       12.980        0.019      334.447        4.425      860.411
04/25/2013  05:06:00     -106.044      -38.861       -0.285       45.531       30.192       23.228     2073.047      911.557      539.542        0.814        0.176      112.940       24.789        0.048      334.279        4.147      860.396
04/25/2013  05:07:00     -134.048      -35.109       -4.675       36.552       29.181       22.308     1336.025      851.555      497.657        1.095        0.134      138.570       20.782        0.022      334.325        4.224      860.391
04/25/2013  05:08:00     -109.971      -33.037       -3.622       40.577       38.724       23.699     1646.532     1499.517      561.629        0.845        0.185      114.827       14.921        0.017      334.294        4.173      860.387
04/25/2013  05:09:00      -97.081      -42.389       -3.975       23.412       31.104       17.023      548.122      967.476      289.773        0.652        0.090      105.932       12.561        0.014      334.372        4.301      860.397
04/25/2013  05:10:00     -107.212      -38.102       -4.974       18.415       24.700       13.172      339.122      610.112      173.512        0.705        0.056      113.782        8.598        0.006      334.306        4.192      860.402
04/25/2013  05:11:00     -111.027      -40.738       -6.626       15.539       14.823       11.417      241.475      219.722      130.343        0.731        0.030      118.265        8.578        0.005      334.408        4.362      860.420
04/25/2013  05:12:00      -79.380      -41.513        0.524       23.867       15.653       13.880      569.610      245.023      192.652        0.452        0.050       89.579       14.587        0.027      334.448        4.428      860.432
04/25/2013  05:13:00      -35.408      -27.453       11.620       28.411       21.104       17.964      807.202      445.370      322.688        0.186        0.079       44.804       16.579        0.137      334.469        4.461      860.439
04/25/2013  05:14:00      -58.704      -29.666        4.112       36.939       27.828       20.371     1364.460      774.420      414.964        0.345        0.128       65.774       22.347        0.115      334.383        4.319      860.453
04/25/2013  05:15:00     -105.139      -51.212       -2.206       23.007       21.678       14.297      529.301      469.957      204.392        0.744        0.060      116.948        9.623        0.007      334.297        4.177      860.466
04/25/2013  05:16:00     -120.256      -26.049       -7.324       21.734       21.930       14.266      472.362      480.904      203.520        0.818        0.058      123.045        6.353        0.003      334.296        4.175      860.473
04/25/2013  05:17:00     -106.141      -53.829       -1.228       24.885       24.889       17.155      619.280      619.453      294.300        0.785        0.077      119.011       13.359        0.013      334.362        4.284      860.476
04/25/2013  05:18:00      -97.484      -50.448        4.140       29.520       27.524       19.184      871.424      757.549      368.022        0.703        0.100      109.764       12.321        0.013      334.354        4.272      860.485
04/25/2013  05:19:00      -90.945      -39.549        4.729       29.350       23.156       16.296      861.409      536.222      265.567        0.576        0.083       99.172       17.213        0.030      334.313        4.205      860.483
04/25/2013  05:20:00     -104.710      -52.462        0.386       28.248       20.348       16.783      797.941      414.045      281.661        0.760        0.075      117.117       16.801        0.021      334.301        4.183      860.486
04/25/2013  05:21:00      -82.542      -43.577        4.718       36.846       31.301       18.154     1357.605      979.749      329.568        0.570        0.133       93.339       19.058        0.042      334.267        4.127      860.494
04/25/2013  05:22:00      -68.909      -40.670        7.481       42.106       20.949       20.917     1772.925      438.867      437.535        0.455        0.132       80.016       21.497        0.072      334.314        4.207      860.495
04/25/2013  05:23:00      -54.474      -16.751        2.718       34.371       24.630       16.371     1181.339      606.616      268.015        0.266        0.103       56.991       17.510        0.094      334.307        4.194      860.494
04/25/2013  05:24:00      -85.144      -33.109       -0.827       27.489       25.567       13.955      755.620      653.666      194.749        0.497        0.080       91.355       16.216        0.032      334.271        4.136      860.489
04/25/2013  05:25:00      -94.561      -27.664       -4.345       23.440       14.723       15.843      549.455      216.764      251.010        0.537        0.051       98.524       14.750        0.022      334.280        4.148      860.501
04/25/2013  05:26:00      -89.693      -15.139        1.038       22.693       15.233       14.463      514.993      232.037      209.184        0.462        0.048       90.962       11.814        0.017      334.280        4.150      860.499
04/25/2013  05:27:00      -96.726       -8.104       -2.963       20.172       15.896       13.149      406.910      252.680      172.895        0.513        0.042       97.065       10.847        0.012      334.286        4.160      860.508
04/25/2013  05:28:00      -96.716      -24.199       -9.481       18.088       15.207       12.097      327.174      231.253      146.343        0.537        0.035       99.698        9.253        0.009      334.397        4.344      860.525
04/25/2013  05:29:00      -95.088      -44.010       -0.949       23.634       16.556       12.853      558.579      274.108      165.209        0.599        0.050      104.779       12.130        0.013      334.400        4.349      860.543
04/25/2013  05:30:00      -97.650      -32.496       -5.484       22.912       24.164       15.949      524.978      583.922      254.371        0.599        0.068      102.915       15.211        0.022      334.372        4.300      860.547
04/25/2013  05:31:00     -116.591      -24.056      -10.764       22.396       16.696       10.298      501.598      278.741      106.045        0.759        0.044      119.047        6.892        0.003      334.298        4.179      860.551
04/25/2013  05:32:00     -126.877      -37.400      -17.635       16.635       19.346       12.200      276.709      374.251      148.842        0.930        0.040      132.275       10.440        0.006      334.274        4.138      860.563
04/25/2013  05:33:00     -116.944      -39.050       -4.999       24.348       16.103       12.202      592.807      259.315      148.890        0.811        0.050      123.292       12.207        0.010      334.224        4.056      860.585
04/25/2013  05:34:00      -95.628      -42.609      -14.182       19.928       12.668       12.501      397.124      160.472      156.283        0.594        0.036      104.691       10.034        0.009      334.174        3.973      860.593
04/25/2013  05:35:00     -108.871      -27.951      -18.467       15.652       16.575       11.449      244.993      274.730      131.071        0.681        0.033      112.402        9.072        0.007      334.272        4.135      860.631
04/25/2013  05:36:00     -102.111      -41.260      -10.539       18.166       16.255       12.407      329.994      264.224      153.940        0.649        0.037      110.132        7.544        0.005      334.211        4.033      860.625
04/25/2013  05:37:00      -93.164      -47.499       -3.844       22.232       18.532       15.102      494.255      343.440      228.083        0.601        0.053      104.574       14.881        0.020      334.311        4.200      860.615
04/25/2013  05:38:00      -79.554      -36.094       -4.484       27.358       18.597       12.772      748.484      345.855      163.128        0.445        0.063       87.359       13.763        0.025      334.313        4.205      860.615
04/25/2013  05:39:00      -46.253      -31.259       13.810       56.248       26.913       23.451     3163.884      724.312      549.937        0.387        0.222       55.825       30.078        0.290      334.223        4.053      860.618
04/25/2013  05:40:00     -103.793      -56.054        2.368       36.078       27.171       26.041     1301.628      738.274      678.126        0.832        0.136      117.962       22.822        0.037      334.310        4.198      860.622
04/25/2013  05:41:00      -92.910      -77.069        1.063       62.421       43.424       29.331     3896.443     1885.671      860.304        1.061        0.332      120.715       31.212        0.067      334.411        4.368      860.636
04/25/2013  05:42:00      -85.621      -62.419       -2.306       52.544       36.501       23.640     2760.875     1332.351      558.840        0.794        0.233      105.958       25.946        0.060      334.348        4.262      860.651
04/25/2013  05:43:00      -86.877      -38.331        3.447       39.000       29.864       24.181     1521.022      891.881      584.715        0.601        0.150       94.957       22.518        0.056      334.316        4.209      860.660
04/25/2013  05:44:00      -68.103      -24.246       -0.467       45.325       21.414       17.627     2054.373      458.568      310.716        0.402        0.141       72.290       16.922        0.055      334.234        4.073      860.671
04/25/2013  05:45:00      -79.055      -18.285        2.883       32.818       20.238       13.107     1077.015      409.574      171.793        0.413        0.083       81.142       14.630        0.033      334.184        3.990      860.678
04/25/2013  05:46:00      -74.779      -14.148       -0.027       37.492       21.707       16.684     1405.616      471.210      278.360        0.397        0.108       76.105       20.754        0.074      334.056        3.779      860.706
04/25/2013  05:47:00      -96.064      -20.691       -1.825       23.775       24.306       14.459      565.264      590.793      209.060        0.551        0.068       98.267       10.317        0.011      334.073        3.805      860.731
04/25/2013  05:48:00      -77.456      -22.475       -1.224       23.056       19.687       13.471      531.573      387.567      181.471        0.380        0.055       80.651        4.560        0.003      334.156        3.942      860.741
04/25/2013  05:49:00      -63.958      -21.287        0.134       24.715       22.565       15.415      610.842      509.167      237.632        0.295        0.068       67.408       11.399        0.029      334.249        4.098      860.740
04/25/2013  05:50:00      -67.993      -37.286       -1.401       33.994       28.235       14.440     1155.577      797.197      208.526        0.409        0.108       77.546       13.929        0.032      334.207        4.028      860.737
04/25/2013  05:51:00      -64.862      -26.512        3.741       30.068       21.573       13.067      904.094      465.382      170.759        0.323        0.077       70.071       13.944        0.040      334.141        3.919      860.751
04/25/2013  05:52:00      -85.849      -28.691       -2.339       29.996       25.305       13.639      899.742      640.363      186.035        0.496        0.086       90.516       12.817        0.020      334.115        3.874      860.766
04/25/2013  05:53:00     -104.677      -30.935       -1.987       27.298       15.077       12.376      745.157      227.304      153.173        0.652        0.056      109.152       12.902        0.014      334.048        3.764      860.793
04/25/2013  05:54:00      -91.817      -37.794       -1.969       28.335       26.109       12.338      802.899      681.690      152.214        0.575        0.082       99.291        8.606        0.008      334.043        3.756      860.809
04/25/2013  05:55:00      -70.066      -43.026        2.825       28.686       26.557       15.082      822.864      705.280      227.467        0.426        0.088       82.222       13.071        0.025      334.075        3.809      860.818
04/25/2013  05:56:00      -73.548      -22.797       -4.255       38.737       21.680       17.822     1500.556      470.023      317.622        0.412        0.114       77.000       19.296        0.063      334.022        3.721      860.816
04/25/2013  05:57:00     -109.541       -2.930       -5.253       30.219       16.869       15.596      913.160      284.574      243.227        0.674        0.072      109.580       14.766        0.018      333.804        3.358      860.827
04/25/2013  05:58:00     -118.830       -1.748      -10.442       25.308       20.225       17.686      640.516      409.050      312.805        0.780        0.068      118.843       15.535        0.017      333.828        3.399      860.831
04/25/2013  05:59:00     -138.842      -13.958       -9.274       20.465       16.123       16.793      418.822      259.939      282.019        1.026        0.048      139.542       13.768        0.010      333.798        3.349      860.836
04/25/2013  06:00:00     -133.677      -10.415      -14.107       13.437       12.659       12.499      180.550      160.263      156.232        0.934        0.025      134.082        8.873        0.004      333.821        3.387      860.832
04/25/2013  06:01:00     -104.194      -23.754      -12.924       31.162       22.599       11.908      971.069      510.717      141.805        0.661        0.081      106.867       12.334        0.013      333.765        3.294      860.827
04/25/2013  06:02:00      -96.449      -26.123       -7.197       28.981       23.455       15.339      839.918      550.155      235.287        0.583        0.081       99.924       18.303        0.034      333.852        3.439      860.814
04/25/2013  06:03:00     -100.941      -12.045      -10.189       20.447       17.323       13.434      418.090      300.099      180.485        0.567        0.045      101.657        4.534        0.002      333.815        3.377      860.817
04/25/2013  06:04:00     -101.211      -23.383      -13.955       12.227       21.128       10.200      149.507      446.404      104.042        0.584        0.035      103.877        9.915        0.009      333.808        3.366      860.813
04/25/2013  06:05:00      -98.475      -22.244      -11.866       15.868       16.452       10.436      251.781      270.678      108.913        0.548        0.032      100.956        5.679        0.003      333.771        3.306      860.816
04/25/2013  06:06:00      -71.279      -50.549       -6.953       24.001       21.136       16.076      576.051      446.738      258.446        0.448        0.064       87.384       11.818        0.018      333.790        3.336      860.821
04/25/2013  06:07:00      -95.814      -31.334      -11.309       30.090       16.830       14.747      905.409      283.251      217.474        0.585        0.070      100.807       15.669        0.024      333.810        3.369      860.829
04/25/2013  06:08:00     -106.468      -48.908      -18.983       15.529       22.016       14.348      241.151      484.720      205.876        0.751        0.047      117.164       11.551        0.010      333.768        3.300      860.830
04/25/2013  06:09:00      -95.174      -54.087      -17.393       13.450       14.228       10.022      180.895      202.435      100.438        0.638        0.024      109.469        7.886        0.005      333.699        3.186      860.844
04/25/2013  06:10:00      -91.654      -44.004       -8.192       17.142       23.653       12.855      293.847      559.456      165.263        0.571        0.051      101.670        8.875        0.008      333.722        3.224      860.843
04/25/2013  06:11:00      -89.303      -26.750      -16.054       11.069       16.388       13.746      122.520      268.576      188.966        0.476        0.029       93.223        7.192        0.006      333.743        3.258      860.850
04/25/2013  06:12:00      -85.079      -23.308      -11.195       17.367       15.764       11.491      301.628      248.504      132.051        0.429        0.034       88.214        6.118        0.005      333.837        3.415      860.853
04/25/2013  06:13:00      -85.626      -21.316       -8.036       17.283       16.372       12.796      298.712      268.035      163.746        0.429        0.037       88.240        9.595        0.012      333.819        3.384      860.850
04/25/2013  06:14:00     -109.522      -42.557       -8.566       19.551       18.952       12.381      382.249      359.191      153.297        0.739        0.045      117.499        9.541        0.007      333.783        3.324      860.873
04/25/2013  06:15:00     -103.096      -49.575       -9.275       18.349       24.254       12.890      336.696      588.279      166.146        0.713        0.055      114.396        9.703        0.007      333.920        3.552      860.878
04/25/2013  06:16:00      -96.739      -47.248        0.740       27.776       24.385       21.154      771.534      594.644      447.497        0.670        0.091      107.661       18.974        0.031      333.970        3.635      860.897
04/25/2013  06:17:00     -105.799      -44.627       -3.327       26.946       19.861       18.265      726.070      394.448      333.619        0.732        0.073      114.826       13.111        0.013      333.898        3.515      860.915
04/25/2013  06:18:00     -115.007      -34.466      -10.556       20.468       18.400       11.318      418.920      338.556      128.094        0.771        0.044      120.061        4.527        0.001      333.944        3.590      860.928
04/25/2013  06:19:00     -132.011      -41.650       -1.174       30.412       24.368       17.724      924.905      593.820      314.157        1.050        0.092      138.426       14.312        0.011      333.871        3.468      860.951
04/25/2013  06:20:00      -95.784      -40.592       -0.431       29.510       22.899       15.388      870.861      524.348      236.791        0.623        0.082      104.030       15.534        0.022      333.809        3.367      860.964
04/25/2013  06:21:00     -129.588      -41.933       -2.915       30.021       23.554       15.867      901.258      554.773      251.760        1.013        0.085      136.204       15.977        0.014      333.801        3.354      860.991
04/25/2013  06:22:00     -127.179      -41.770       -1.550       29.696       25.012       14.941      881.880      625.604      223.236        0.983        0.087      133.863       10.365        0.006      333.759        3.284      861.015
04/25/2013  06:23:00     -107.483      -43.156        5.559       47.773       30.255       24.086     2282.279      915.395      580.155        0.861        0.189      115.823       26.001        0.050      333.822        3.389      861.034
04/25/2013  06:24:00     -120.046      -44.771       -3.800       41.918       32.299       17.574     1757.085     1043.229      308.851        0.977        0.155      128.123       13.981        0.012      333.826        3.395      861.051
04/25/2013  06:25:00     -138.835      -31.570      -15.124       31.159       19.032       14.600      970.910      362.204      213.163        1.102        0.077      142.379       12.993        0.008      333.719        3.218      861.064
04/25/2013  06:26:00     -113.960      -19.307      -12.925       22.161       16.836       13.647      491.118      283.436      186.247        0.724        0.048      115.584       10.399        0.008      333.674        3.142      861.063
04/25/2013  06:27:00     -118.215      -16.218       -7.853       33.006       24.066       20.247     1089.398      579.196      409.960        0.819        0.104      119.322       14.764        0.015      333.773        3.307      861.058
04/25/2013  06:28:00     -122.611       -3.894      -13.351       29.291       24.805       19.484      857.987      615.300      379.625        0.854        0.093      122.673       14.325        0.014      333.746        3.262      861.065
04/25/2013  06:29:00     -108.398      -26.670      -15.884       31.539       21.245       11.574      994.724      451.350      133.958        0.715        0.079      111.631       11.776        0.011      333.691        3.171      861.072
04/25/2013  06:30:00      -96.272      -45.148      -11.262       20.836       21.056       12.425      434.154      443.371      154.392        0.623        0.052      106.332       11.197        0.011      333.783        3.323      861.072
04/25/2013  06:31:00     -107.071      -53.063       -8.042       36.079       21.210       16.991     1301.665      449.851      288.703        0.819        0.102      119.499       15.619        0.017      333.841        3.421      861.076
04/25/2013  06:32:00     -118.035      -49.828      -11.933       33.346       17.232       13.730     1111.948      296.938      188.503        0.908        0.080      128.121       12.555        0.010      333.888        3.500      861.093
04/25/2013  06:33:00      -90.125      -45.435       -6.215       32.094       22.012       17.567     1030.026      484.544      308.604        0.602        0.091      100.930       13.837        0.019      333.920        3.550      861.095
04/25/2013  06:34:00     -109.381      -44.009       -6.834       22.072       24.732       16.521      487.184      611.678      272.957        0.766        0.069      117.902       13.486        0.013      333.884        3.491      861.099
04/25/2013  06:35:00     -107.773      -35.346      -12.070       28.561       20.988       15.437      815.745      440.484      238.299        0.725        0.075      113.421        9.530        0.007      333.935        3.577      861.101
04/25/2013  06:36:00     -118.099      -30.812      -11.416       18.957       21.125       12.611      359.360      446.263      159.036        0.800        0.048      122.052        7.256        0.004      333.870        3.469      861.127
04/25/2013  06:37:00     -103.023       -8.200      -10.329       22.833       18.705       17.253      521.353      349.884      297.672        0.598        0.058      103.349       13.256        0.016      333.895        3.510      861.140
04/25/2013  06:38:00     -124.303      -29.029      -13.969       21.180       24.030       13.524      448.575      577.433      182.898        0.885        0.060      127.648        8.721        0.005      333.828        3.400      861.157
04/25/2013  06:39:00     -100.009      -26.103       -5.124       22.617       23.499       17.694      511.520      552.192      313.087        0.604        0.069      103.360       11.577        0.013      333.825        3.394      861.182
04/25/2013  06:40:00      -88.694      -12.869       -7.959       31.331       17.597       14.237      981.603      309.660      202.680        0.479        0.075       89.623       15.274        0.029      333.795        3.343      861.204
04/25/2013  06:41:00      -82.723      -25.566       -4.057       19.437       17.436       11.568      377.778      304.016      133.818        0.416        0.041       86.583        6.472        0.006      333.891        3.504      861.222
04/25/2013  06:42:00      -69.597      -49.097       -1.615       25.414       18.554       14.513      645.853      344.257      210.618        0.423        0.060       85.172       13.989        0.027      334.007        3.697      861.240
04/25/2013  06:43:00      -83.952      -40.323       -5.021       17.299       16.962       14.177      299.256      287.694      200.996        0.474        0.039       93.134        9.897        0.011      334.031        3.736      861.248
04/25/2013  06:44:00      -81.930      -36.828      -16.594       14.892       10.931       10.748      221.768      119.479      115.518        0.440        0.023       89.826        7.217        0.006      334.055        3.774      861.268
04/25/2013  06:45:00      -75.581      -22.670       -9.671       19.043        9.962        8.153      362.652       99.241       66.472        0.342        0.026       78.907        7.281        0.009      334.043        3.757      861.282
04/25/2013  06:46:00      -94.578      -26.315       -7.293       13.424       15.283       12.118      180.211      233.562      146.855        0.513        0.028       98.171        9.725        0.010      334.178        3.979      861.296
04/25/2013  06:47:00      -61.386      -33.614       -2.151       19.604       13.731        9.611      384.327      188.538       92.375        0.278        0.033       69.987        8.349        0.014      334.218        4.046      861.299
04/25/2013  06:48:00      -59.867      -47.689       -1.494       23.718       14.802       13.380      562.531      219.111      179.018        0.341        0.048       76.539        9.863        0.017      334.281        4.151      861.291
04/25/2013  06:49:00      -44.704      -44.421        4.237       28.426       16.206       13.412      808.057      262.637      179.871        0.262        0.063       63.022       12.768        0.041      334.435        4.405      861.287
04/25/2013  06:50:00      -40.315      -36.489       -0.630       17.621       17.361       13.584      310.491      301.391      184.527        0.188        0.040       54.376       11.670        0.046      334.474        4.470      861.277
04/25/2013  06:51:00      -45.060      -24.008        4.355       16.171       11.557       13.574      261.493      133.562      184.241        0.160        0.029       51.056        9.106        0.032      334.504        4.519      861.265
04/25/2013  06:52:00      -31.283      -29.315       -2.747       20.538       14.893       13.019      421.825      221.791      169.504        0.133        0.041       42.871       10.746        0.063      334.580        4.646      861.259
04/25/2013  06:53:00      -68.040      -28.155       -0.113       31.735       24.266       14.994     1007.109      588.851      224.824        0.362        0.091       73.635       12.173        0.027      334.519        4.546      861.252
04/25/2013  06:54:00      -42.302      -25.513       -3.126       37.899       26.913       15.872     1436.299      724.310      251.931        0.243        0.121       49.400       10.130        0.042      334.528        4.559      861.248
04/25/2013  06:55:00      -55.670      -53.253       -3.803       43.306       34.085       24.012     1875.386     1161.802      576.596        0.478        0.181       77.040       12.561        0.027      334.610        4.697      861.262
04/25/2013  06:56:00      -82.607      -44.690        1.740       37.015       34.864       19.479     1370.121     1215.498      379.450        0.589        0.148       93.921       15.369        0.027      334.583        4.650      861.267
04/25/2013  06:57:00     -109.587      -66.911       -0.725       53.104       41.921       26.962     2820.018     1757.373      726.975        1.089        0.265      128.400       22.256        0.030      334.575        4.638      861.288
04/25/2013  06:58:00     -135.510     -114.979       -6.846       51.591       33.325       33.555     2661.644     1110.571     1125.943        1.826        0.245      177.716       30.893        0.030      334.495        4.505      861.298
04/25/2013  06:59:00     -120.718     -102.504       -4.591       42.782       35.836       27.775     1830.308     1284.210      771.428        1.449        0.194      158.367       28.318        0.032      334.568        4.625      861.301
04/25/2013  07:00:00      -99.545      -80.684        0.595       35.406       37.743       25.765     1253.618     1424.548      663.831        0.988        0.167      128.138       23.076        0.032      334.605        4.688      861.299
04/25/2013  07:01:00      -81.280      -86.918       -6.806       42.798       47.238       28.862     1831.684     2231.472      833.034        0.955        0.245      119.001       30.052        0.064      334.613        4.701      861.318
04/25/2013  07:02:00     -101.164     -104.566       -7.637       37.172       37.719       25.792     1381.754     1422.718      665.221        1.235        0.173      145.493       27.258        0.035      334.603        4.684      861.333
04/25/2013  07:03:00     -111.683     -111.256      -11.533       33.895       29.685       22.981     1148.896      881.180      528.137        1.377        0.128      157.642       22.327        0.020      334.688        4.825      861.341
04/25/2013  07:04:00      -70.958      -67.175        0.271       30.399       29.608       15.386      924.126      876.611      236.720        0.579        0.102       97.711       12.266        0.016      334.769        4.960      861.345
04/25/2013  07:05:00      -43.098      -41.216        4.448       28.306       26.972       20.665      801.243      727.477      427.053        0.277        0.098       59.633       18.589        0.097      334.848        5.092      861.349
04/25/2013  07:06:00      -60.081      -58.546       -7.721       17.616       24.562       10.606      310.317      603.306      112.486        0.406        0.051       83.889        8.014        0.009      334.827        5.057      861.346
04/25/2013  07:07:00      -58.762      -26.902       -3.002       28.858       17.889       14.146      832.803      320.029      200.099        0.277        0.068       64.628       12.851        0.040      334.927        5.224      861.357
04/25/2013  07:08:00      -42.576      -54.311        5.037       32.110       31.425       20.928     1031.063      987.541      437.985        0.362        0.123       69.010       17.049        0.061      334.945        5.252      861.368
04/25/2013  07:09:00      -57.976      -42.614        0.142       30.380       27.345       19.546      922.936      747.753      382.038        0.361        0.103       71.953       18.313        0.065      334.925        5.218      861.371
04/25/2013  07:10:00      -74.541      -78.662      -11.321       27.680       22.412       12.194      766.194      502.276      148.704        0.664        0.071      108.371       12.877        0.014      334.852        5.099      861.374
04/25/2013  07:11:00      -84.001      -95.346      -17.585       20.858       19.886       14.431      435.037      395.454      208.266        0.875        0.052      127.071       10.230        0.006      334.871        5.130      861.385
04/25/2013  07:12:00      -88.024      -90.213       -9.667       24.544       21.273       16.909      602.412      452.519      285.924        0.866        0.067      126.042       14.604        0.013      334.911        5.196      861.397
04/25/2013  07:13:00      -72.927      -72.588       -2.343       24.964       23.418       21.474      623.195      548.386      461.148        0.611        0.082      102.895       17.985        0.031      334.912        5.199      861.399
04/25/2013  07:14:00      -44.804      -64.035       -2.672       16.107       15.231       10.000      259.424      231.988      100.003        0.335        0.030       78.153        6.811        0.008      334.929        5.226      861.409
04/25/2013  07:15:00      -14.950      -42.700        7.569       22.869       22.181       14.757      522.999      492.011      217.765        0.167        0.062       45.242       11.174        0.061      335.104        5.517      861.397
04/25/2013  07:16:00      -36.125      -23.460       -1.410       13.097       20.096        9.536      171.526      403.857       90.931        0.126        0.033       43.074        7.793        0.033      335.086        5.486      861.381
04/25/2013  07:17:00      -28.551        1.199        1.487       17.423       21.167       14.623      303.548      448.061      213.844        0.089        0.048       28.576       10.580        0.137      335.256        5.770      861.367
04/25/2013  07:18:00      -58.546       -1.454       -0.473       24.791       13.886       10.836      614.611      192.808      117.408        0.218        0.046       58.564       11.654        0.040      335.115        5.534      861.345
04/25/2013  07:19:00      -55.704       -1.555       -0.942       23.103       15.419       11.368      533.746      237.740      129.233        0.200        0.045       55.726        9.941        0.032      335.157        5.604      861.321
04/25/2013  07:20:00      -51.602        8.774        6.289       24.268       16.548       16.513      588.941      273.824      272.668        0.196        0.057       52.343       13.208        0.064      335.206        5.685      861.309
04/25/2013  07:21:00      -27.394      -10.008        3.569       14.538       12.100        9.143      211.366      146.417       83.603        0.065        0.022       29.165        9.161        0.099      335.276        5.800      861.315
04/25/2013  07:22:00      -36.954        3.505       -2.860       11.082       11.749        8.417      122.821      138.034       70.842        0.086        0.017       37.119        3.789        0.010      335.270        5.792      861.310
04/25/2013  07:23:00      -48.774       10.889       -3.406       12.171       13.615        7.250      148.122      185.376       52.556        0.145        0.019       49.974        7.265        0.021      335.208        5.686      861.320
04/25/2013  07:24:00      -44.703        4.603       -7.218        8.928        7.348        9.257       79.703       53.991       85.701        0.115        0.011       44.940        4.511        0.010      335.270        5.791      861.346
04/25/2013  07:25:00      -45.884        3.665       -3.990       11.079       15.978        9.077      122.741      255.281       82.383        0.130        0.023       46.030        6.182        0.018      335.339        5.908      861.373
04/25/2013  07:26:00      -33.432        8.329        2.651       14.189       15.438       12.047      201.325      238.340      145.130        0.089        0.029       34.454        8.478        0.061      335.463        6.112      861.405
04/25/2013  07:27:00      -46.642        5.077       -1.736        9.101       10.752       10.619       82.833      115.610      112.754        0.126        0.016       46.918        5.220        0.012      335.433        6.064      861.447
04/25/2013  07:28:00      -40.178        1.772       -4.508       11.756       14.885        8.096      138.202      221.567       65.537        0.103        0.021       40.217        6.742        0.028      335.523        6.213      861.472
04/25/2013  07:29:00      -43.562      -12.495        2.373       16.442       20.633       15.603      270.344      425.726      243.445        0.150        0.047       45.318       14.840        0.107      335.520        6.207      861.498
04/25/2013  07:30:00      -29.663      -40.344       -1.554       24.069       20.186       10.250      579.299      407.483      105.070        0.180        0.055       50.075        7.750        0.024      335.527        6.220      861.509
04/25/2013  07:31:00      -40.270      -55.442       -0.698       23.439       21.291       18.556      549.398      453.316      344.333        0.302        0.067       68.523       14.733        0.046      335.498        6.171      861.507
04/25/2013  07:32:00      -53.476      -74.365       -6.646       23.330       25.351       15.082      544.309      642.663      227.467        0.492        0.071       91.596        7.370        0.006      335.486        6.150      861.506
04/25/2013  07:33:00      -72.690      -51.534       -4.812       21.239       23.243       13.239      451.096      540.245      175.278        0.456        0.058       89.105       10.758        0.015      335.497        6.169      861.508
04/25/2013  07:34:00      -53.380      -41.203       -5.266       20.567       24.229       15.936      423.020      587.039      253.962        0.292        0.063       67.432       14.482        0.046      335.590        6.326      861.525
04/25/2013  07:35:00      -27.469      -59.906        0.276       15.101       16.894       12.476      228.052      285.414      155.648        0.251        0.033       65.904        8.249        0.016      335.488        6.155      861.539
04/25/2013  07:36:00      -40.986      -42.150       -2.962        9.027       14.467        6.648       81.487      209.291       44.201        0.190        0.017       58.792        6.415        0.012      335.498        6.173      861.553
04/25/2013  07:37:00      -24.201      -23.151       -2.168        8.432       11.657        4.767       71.101      135.884       22.728        0.068        0.011       33.492        1.897        0.003      335.561        6.278      861.567
04/25/2013  07:38:00      -23.595       -6.955       -5.014        8.916        8.852        5.536       79.499       78.353       30.653        0.041        0.009       24.598        5.137        0.044      335.633        6.399      861.572
04/25/2013  07:39:00      -10.016      -14.508        1.816        8.407       10.312       13.676       70.681      106.345      187.046        0.034        0.018       17.630        8.228        0.218      335.801        6.677      861.575
04/25/2013  07:40:00       -9.808      -11.189       -2.018       12.320       15.354       13.303      151.773      235.758      176.968        0.039        0.028       14.880        9.464        0.405      335.985        6.984      861.584
04/25/2013  07:41:00      -22.819       -1.437        5.384       18.970       14.124       13.115      359.872      199.495      172.009        0.064        0.037       22.864       11.126        0.237      336.141        7.244      861.594
04/25/2013  07:42:00      -39.485       -5.395        0.789       19.679       17.459       12.267      387.249      304.828      150.475        0.122        0.042       39.852       10.060        0.064      336.057        7.103      861.591
04/25/2013  07:43:00      -48.553      -11.713       -3.971       19.638       16.238       14.292      385.656      263.676      204.262        0.168        0.043       49.946       11.849        0.056      336.005        7.018      861.593
04/25/2013  07:44:00      -40.961      -10.034       -7.588        9.709        9.268        6.172       94.267       85.890       38.097        0.103        0.011       42.172        3.858        0.008      335.830        6.727      861.587
04/25/2013  07:45:00      -32.176       -6.178       -2.693       17.902        7.235        7.997      320.466       52.346       63.955        0.076        0.022       32.764        4.177        0.016      335.899        6.839      861.586
04/25/2013  07:46:00      -56.546      -21.342       -2.215        9.263        8.842        9.690       85.811       78.189       93.892        0.196        0.013       60.439        6.307        0.011      335.867        6.786      861.592
04/25/2013  07:47:00      -49.559      -11.344       -8.259       11.920        8.581        9.148      142.085       73.640       83.692        0.148        0.015       50.841        5.100        0.010      335.924        6.880      861.601
04/25/2013  07:48:00      -42.300      -20.516       -4.230       14.557        8.264        6.963      211.912       68.301       48.489        0.128        0.016       47.013        4.983        0.011      335.981        6.976      861.604
04/25/2013  07:49:00      -50.207      -21.416       -6.601       15.885       11.025       10.591      252.333      121.548      112.161        0.175        0.024       54.584        4.657        0.007      335.978        6.970      861.617
04/25/2013  07:50:00      -67.969      -21.399       -0.049       19.284       20.120       12.233      371.880      404.812      149.635        0.300        0.046       71.258        9.649        0.018      336.015        7.033      861.628
04/25/2013  07:51:00      -75.395      -25.484        3.843       26.087       22.840       13.447      680.526      521.651      180.821        0.387        0.069       79.586       14.164        0.032      336.027        7.052      861.642
04/25/2013  07:52:00      -72.333      -13.304       -9.839       13.369       15.226       10.458      178.737      231.818      109.361        0.301        0.026       73.546        4.809        0.004      336.014        7.031      861.654
04/25/2013  07:53:00      -47.663       -0.883       -4.402        9.892        8.770        7.897       97.859       76.908       62.367        0.126        0.012       47.671        2.213        0.002      336.119        7.207      861.658
04/25/2013  07:54:00      -43.185      -19.578       -5.276       10.350       10.919       10.012      107.128      119.234      100.235        0.130        0.016       47.416        7.347        0.024      336.124        7.216      861.653
04/25/2013  07:55:00      -20.653      -36.489        3.652        8.667        9.668       10.174       75.123       93.470      103.501        0.102        0.014       41.928        6.532        0.024      336.090        7.159      861.655
04/25/2013  07:56:00       -6.661       -7.265       20.137       12.232       18.231       13.667      149.613      332.357      186.790        0.059        0.033        9.857       11.404        1.339      336.608        8.024      861.652
04/25/2013  07:57:00        0.682       67.304        1.218       21.086       28.043       23.487      444.605      786.435      551.624        0.316        0.089       67.308       21.098        0.098      336.533        7.899      861.666
04/25/2013  07:58:00       -9.833       72.621        5.341       19.963       36.367       22.934      398.528     1322.585      525.955        0.382        0.112       73.284       17.734        0.059      336.575        7.969      861.678
04/25/2013  07:59:00       -9.362       59.652        8.283       13.469       34.389       25.531      181.427     1182.572      651.853        0.286        0.101       60.382       20.607        0.116      336.711        8.196      861.681
04/25/2013  08:00:00       -6.276       85.269        6.833       17.978       32.586       28.183      323.204     1061.826      794.254        0.477        0.109       85.499       23.061        0.073      336.591        7.996      861.675
04/25/2013  08:01:00       -6.569      111.695       -1.940       27.336       25.980       22.951      747.268      674.983      526.736        0.724        0.097      111.888       18.029        0.026      336.366        7.619      861.665
04/25/2013  08:02:00       62.000       76.272        6.986       53.123       31.022       28.968     2822.023      962.348      839.117        0.717        0.231       98.293       17.498        0.032      336.424        7.716      861.661
04/25/2013  08:03:00       73.149       71.792       -3.865       32.653       21.771       25.556     1066.233      473.985      653.109        0.636        0.110      102.494       10.823        0.011      336.365        7.617      861.663
04/25/2013  08:04:00       48.097       59.631        8.558       34.486       24.748       27.748     1189.304      612.472      769.937        0.426        0.129       76.611       13.732        0.032      336.523        7.882      861.654
04/25/2013  08:05:00       34.217       30.964        5.113       27.961       26.997       24.564      781.830      728.842      603.405        0.213        0.106       46.147       19.177        0.173      336.671        8.129      861.660
04/25/2013  08:06:00       22.177       27.832       11.909       33.716       18.520       18.352     1136.739      342.984      336.781        0.161        0.091       35.587       10.265        0.083      336.775        8.304      861.668
04/25/2013  08:07:00       68.901       43.901        2.764       40.817       25.796       32.463     1666.040      665.415     1053.855        0.503        0.169       81.699       18.896        0.053      336.677        8.139      861.684
04/25/2013  08:08:00       15.421       32.610        8.550       33.352       26.863       18.787     1112.366      721.616      352.967        0.178        0.109       36.072       12.674        0.123      336.792        8.332      861.696
04/25/2013  08:09:00       20.608       37.445        0.623       36.418       25.903       24.863     1326.242      670.974      618.189        0.222        0.131       42.741       24.712        0.334      336.635        8.071      861.723
04/25/2013  08:10:00       28.037       26.662       17.288       34.231       27.948       27.315     1171.766      781.071      746.095        0.225        0.135       38.690       20.211        0.273      336.934        8.569      861.740
04/25/2013  08:11:00       14.039       19.768       10.472       32.572       26.843       20.434     1060.934      720.532      417.534        0.145        0.110       24.246       16.257        0.450      337.283        9.154      861.748
04/25/2013  08:12:00       56.842       46.639       26.739       30.801       21.524       27.698      948.701      463.281      767.161        0.415        0.109       73.527       11.712        0.025      336.942        8.583      861.750
04/25/2013  08:13:00       27.253       45.103       -4.369       28.102       25.029       20.454      789.727      626.434      418.373        0.231        0.092       52.698       12.126        0.053      336.764        8.286      861.756
04/25/2013  08:14:00       65.145       55.058        9.964       23.136       22.479       25.549      535.275      505.297      652.739        0.453        0.085       85.295       13.727        0.026      336.707        8.190      861.754
04/25/2013  08:15:00       49.469       50.078       10.192       18.833       24.371       24.994      354.667      593.937      624.695        0.332        0.079       70.392       19.412        0.076      336.754        8.268      861.766
04/25/2013  08:16:00       14.901       21.219        9.429       24.662       13.950       23.010      608.211      194.596      529.480        0.105        0.067       25.929       18.858        0.529      336.812        8.366      861.776
04/25/2013  08:17:00       -2.965        7.090        7.863       15.504       10.664       18.112      240.360      113.710      328.050        0.040        0.034        7.685       10.011        1.697      337.253        9.102      861.795
04/25/2013  08:18:00        5.592       30.633       -1.016       21.991       28.792       12.765      483.614      828.983      162.936        0.122        0.074       31.140        3.830        0.015      337.140        8.914      861.801
04/25/2013  08:19:00       24.316       47.572       -0.398       19.700       30.598       31.546      388.097      936.243      995.124        0.259        0.116       53.426       24.831        0.216      337.052        8.768      861.811
04/25/2013  08:20:00       29.461       71.878        9.791       25.666       32.071       23.756      658.768     1028.549      564.360        0.419        0.113       77.682       18.228        0.055      336.955        8.605      861.801
04/25/2013  08:21:00       38.032       52.279       -3.568       22.635       25.016       33.711      512.354      625.780     1136.442        0.323        0.114       64.649       21.070        0.106      336.968        8.626      861.802
04/25/2013  08:22:00        1.706       22.998       15.630       26.233       25.745       26.020      688.185      662.826      677.017        0.140        0.101       23.061       14.065        0.372      337.263        9.119      861.794
04/25/2013  08:23:00       14.681      -14.200       51.915       27.129       46.438       25.517      735.999     2156.478      651.131        0.333        0.177       20.425       26.751        1.715      337.591        9.669      861.779
04/25/2013  08:24:00        8.487      -10.414       35.621       18.461       41.113       22.926      340.802     1690.251      525.579        0.200        0.128       13.434       18.262        1.848      337.720        9.886      861.778
04/25/2013  08:25:00        0.809       28.646       64.401       25.447       30.163       14.807      647.548      909.809      219.262        0.337        0.089       28.658       11.939        0.174      338.114       10.547      861.772
04/25/2013  08:26:00        7.271       17.801       57.559       28.334       31.877       22.785      802.823     1016.140      519.170        0.301        0.117       19.228       11.210        0.340      337.769        9.966      861.776
04/25/2013  08:27:00       26.149       23.350       43.672       38.862       39.646       33.519     1510.285     1571.777     1123.499        0.367        0.210       35.057       29.230        0.695      337.589        9.665      861.779
04/25/2013  08:28:00       34.984      -27.778        5.416       33.205       41.011       35.662     1102.582     1681.916     1271.769        0.304        0.203       44.670       28.631        0.411      337.572        9.638      861.776
04/25/2013  08:29:00       41.694       43.845       58.943       30.822       23.611       26.544      949.967      557.483      704.561        0.467        0.111       60.505       16.077        0.071      337.432        9.404      861.778
04/25/2013  08:30:00       15.972       13.722        6.760       33.661       27.139       24.188     1133.029      736.550      585.069        0.147        0.123       21.057       21.299        1.023      337.248        9.093      861.784
04/25/2013  08:31:00      -18.618       47.682      -12.214       17.902       16.636       19.207      320.498      276.761      368.926        0.187        0.048       51.188       14.174        0.077      337.169        8.962      861.788
04/25/2013  08:32:00       16.563        7.919       14.685       33.722       40.149       34.492     1137.179     1611.979     1189.675        0.224        0.197       18.359       22.837        1.547      337.766        9.962      861.782
04/25/2013  08:33:00       20.925       23.658       34.002       24.383       28.887       28.442      594.518      834.462      808.924        0.220        0.112       31.583       17.023        0.291      337.818       10.049      861.784
04/25/2013  08:34:00        8.223      -13.137       11.478       26.697       43.729       29.786      712.744     1912.212      887.192        0.194        0.176       15.498       21.393        1.905      337.642        9.754      861.801
04/25/2013  08:35:00       19.064       49.626       69.022       50.672       40.622       35.760     2567.610     1650.148     1278.752        0.654        0.275       53.161       19.776        0.138      337.944       10.260      861.801
04/25/2013  08:36:00       34.268       57.274       65.673       33.219       28.049       22.821     1103.483      786.736      520.813        0.559        0.121       66.743       16.325        0.060      337.657        9.780      861.803
04/25/2013  08:37:00       59.116       51.136       -3.529       23.481       26.915       19.904      551.369      724.444      396.154        0.390        0.084       78.164       15.879        0.041      337.183        8.984      861.810
04/25/2013  08:38:00       39.009       26.270       -8.101       34.245       25.478       25.865     1172.700      649.138      669.020        0.238        0.125       47.030       18.659        0.157      337.539        9.580      861.814
04/25/2013  08:39:00       37.576       42.123       -0.650       28.324       21.082       24.600      802.235      444.440      605.140        0.252        0.093       56.448       15.039        0.071      337.611        9.702      861.806
04/25/2013  08:40:00      -18.626       34.000       -1.520       31.323       35.722       28.433      981.121     1276.089      808.440        0.228        0.153       38.767       16.378        0.178      337.897       10.181      861.812
04/25/2013  08:41:00        1.711      -26.508        9.437       13.718       37.873       22.030      188.197     1434.373      485.321        0.145        0.105       26.563       23.854        0.806      337.968       10.302      861.821
04/25/2013  08:42:00       20.124       25.806        8.532       21.058       16.177       15.971      443.443      261.681      255.087        0.105        0.048       32.725        4.005        0.015      338.143       10.595      861.822
04/25/2013  08:43:00       71.283       56.249        7.647       33.714       31.293       29.202     1136.626      979.222      852.782        0.564        0.148       90.803       13.075        0.021      337.894       10.177      861.814
04/25/2013  08:44:00       47.462       48.774       26.999       45.595       44.175       40.762     2078.892     1951.422     1661.544        0.553        0.285       68.055       31.829        0.219      338.122       10.559      861.813
04/25/2013  08:45:00       -2.045       50.150       72.014       24.599       32.215       20.833      605.120     1037.780      434.013        0.489        0.104       50.192       16.417        0.107      338.514       11.217      861.823
04/25/2013  08:46:00       26.667       38.138        5.269       32.341       32.327       33.859     1045.927     1045.035     1146.437        0.271        0.162       46.536       13.149        0.080      338.057       10.451      861.826
04/25/2013  08:47:00        5.536      -35.029        2.176       52.443       52.837       40.147     2750.252     2791.750     1611.807        0.421        0.358       35.463       28.351        0.639      338.197       10.687      861.828
04/25/2013  08:48:00       23.361       35.477       27.834       44.780       33.505       24.520     2005.279     1122.602      601.220        0.315        0.186       42.478       25.296        0.355      338.613       11.385      861.841
04/25/2013  08:49:00       31.467       32.761       41.132       53.936       54.482       25.163     2909.089     2968.330      633.181        0.513        0.326       45.425       25.989        0.327      338.146       10.599      861.846
04/25/2013  08:50:00       -4.536      -32.156       47.934       39.361       80.606       50.105     1549.280     6497.350     2510.482        0.695        0.528       32.475       54.889        2.857      338.523       11.234      861.854
04/25/2013  08:51:00      -32.175      -36.535       53.118       30.698       56.182       32.040      942.378     3156.376     1026.563        0.516        0.256       48.683       15.432        0.100      338.236       10.751      861.857
04/25/2013  08:52:00       23.454      -28.475       16.370       39.957       51.642       41.004     1596.557     2666.910     1681.343        0.379        0.297       36.891       18.836        0.261      338.504       11.200      861.866
04/25/2013  08:53:00        5.340       -3.077       46.366       25.836       45.316       26.193      667.492     2053.537      686.087        0.280        0.170        6.163       12.416        4.059      338.829       11.748      861.882
04/25/2013  08:54:00       37.098      -42.395        5.951       36.757       54.157       38.563     1351.059     2932.960     1487.119        0.449        0.289       56.334       30.186        0.287      338.410       11.044      861.895
04/25/2013  08:55:00        6.129       10.019       52.838       24.913       29.629       19.980      620.649      877.854      399.197        0.241        0.095       11.745       12.391        1.113      338.516       11.220      861.914
04/25/2013  08:56:00       15.443       11.878       47.796       24.075       41.785       23.651      579.610     1746.027      559.372        0.277        0.144       19.483       17.990        0.853      338.338       10.922      861.919
04/25/2013  08:57:00       13.283       17.963       42.232       29.144       19.649       12.224      849.356      386.068      149.435        0.183        0.069       22.341       10.787        0.233      338.388       11.006      861.928
04/25/2013  08:58:00       51.196       45.524        5.145       26.782       22.423       21.667      717.287      502.792      469.439        0.320        0.084       68.509       13.371        0.038      337.977       10.316      861.926
04/25/2013  08:59:00        7.800       43.156      -18.394       26.501       28.263       13.041      702.301      798.806      170.077        0.197        0.084       43.855        7.902        0.032      337.836       10.079      861.929
04/25/2013  09:00:00        7.669       73.548      -13.331       28.039       22.002       24.326      786.182      484.098      591.760        0.375        0.093       73.947       12.012        0.026      338.114       10.546      861.922
04/25/2013  09:01:00       25.297       38.018       -7.815       18.769       25.698       22.673      352.274      660.367      514.053        0.184        0.076       45.665       13.097        0.082      338.113       10.544      861.939
04/25/2013  09:02:00       -2.426       80.570      -18.312       25.813       32.897       21.356      666.300     1082.183      456.090        0.452        0.110       80.606        7.723        0.009      338.038       10.420      861.937
04/25/2013  09:03:00       50.523      -11.710        7.638       50.188       23.859       30.840     2518.827      569.265      951.087        0.339        0.202       51.862       31.646        0.372      338.393       11.014      861.945
04/25/2013  09:04:00       19.414       24.566       27.778       43.922       32.710       21.786     1929.130     1069.931      474.651        0.261        0.174       31.311       11.244        0.129      338.933       11.921      861.954
04/25/2013  09:05:00       24.125       27.946       33.149       37.458       44.846       27.318     1403.115     2011.188      746.278        0.331        0.208       36.919       21.022        0.324      338.883       11.839      861.964
04/25/2013  09:06:00       36.551       69.576       -4.868       32.272       39.527       32.710     1041.470     1562.351     1069.962        0.494        0.184       78.593       28.647        0.133      338.277       10.819      861.975
04/25/2013  09:07:00       39.065       62.857       10.241       48.508       37.853       39.665     2353.046     1432.879     1573.293        0.547        0.268       74.007       23.585        0.102      338.481       11.164      861.978
04/25/2013  09:08:00       96.591       85.300        6.082       36.190       14.899       20.627     1309.741      221.977      425.482        0.930        0.098      128.864       19.802        0.024      337.974       10.310      861.980
04/25/2013  09:09:00       53.890       80.984       -3.710       36.828       35.802       35.322     1356.328     1281.784     1247.611        0.668        0.194       97.276       18.330        0.036      338.266       10.801      861.980
04/25/2013  09:10:00        8.006       68.695        6.108       30.318       43.525       26.879      919.192     1894.444      722.497        0.418        0.177       69.160       25.843        0.140      338.350       10.943      861.989
04/25/2013  09:11:00       -9.490      103.079       -4.127       34.717       22.544       25.779     1205.257      508.223      664.582        0.655        0.119      103.515       16.195        0.024      338.505       11.203      861.999
04/25/2013  09:12:00       79.433       62.257        2.170       38.140       26.647       29.932     1454.687      710.040      895.942        0.662        0.153      100.924       23.276        0.053      338.114       10.545      862.006
04/25/2013  09:13:00        2.703      110.957      -23.245       21.911       30.896       20.256      480.071      954.583      410.304        0.735        0.092      110.990        9.949        0.008      338.247       10.768      862.012
04/25/2013  09:14:00       36.694       34.656       19.697       28.201       36.514       37.319      795.322     1333.238     1392.716        0.323        0.176       50.472       18.160        0.129      338.759       11.628      862.019
04/25/2013  09:15:00       17.287       21.741       -6.401       14.508       19.311       21.177      210.495      372.929      448.482        0.092        0.052       27.776       17.369        0.391      338.571       11.314      862.021
04/25/2013  09:16:00       61.619       25.080        5.866       26.265       23.477       29.813      689.843      551.177      888.833        0.329        0.106       66.527       18.327        0.076      338.309       10.874      862.021
04/25/2013  09:17:00       58.359        9.755       11.848       17.974       24.224       27.921      323.081      586.824      779.574        0.267        0.084       59.169        8.984        0.023      338.426       11.071      862.024
04/25/2013  09:18:00      -19.113      -46.650      -11.971       27.310       19.583       13.098      745.828      383.508      171.548        0.199        0.065       50.413       14.399        0.082      338.259       10.788      862.018
04/25/2013  09:19:00      -12.646       -0.418        7.692       16.665       18.862       18.846      277.728      355.778      355.165        0.060        0.049       12.653       11.980        0.896      338.810       11.716      862.018
04/25/2013  09:20:00       -5.137      -30.832       13.719       21.415       29.121       32.463      458.607      848.022     1053.842        0.176        0.118       31.257       18.176        0.338      338.992       12.021      862.022
04/25/2013  09:21:00      -66.376      -26.369       -4.171       33.138       27.007       17.455     1098.098      729.375      304.668        0.362        0.107       71.422       17.805        0.062      338.369       10.974      862.037
04/25/2013  09:22:00      -64.253       -3.558       16.299       27.249       30.515       22.791      742.512      931.147      519.420        0.330        0.110       64.351       20.754        0.104      338.697       11.526      862.040
04/25/2013  09:23:00        3.471       -0.541       22.633       39.128       26.509       26.762     1531.039      702.749      716.188        0.174        0.147        3.513       19.832       31.867      339.320       12.574      862.047
04/25/2013  09:24:00       56.005       48.127       14.799       39.891       28.162       33.574     1591.297      793.104     1127.191        0.459        0.176       73.843       21.454        0.084      339.071       12.156      862.046
04/25/2013  09:25:00       67.717       53.309       -8.415       25.602       40.949       23.175      655.480     1676.796      537.081        0.518        0.143       86.182        8.470        0.010      338.651       11.449      862.048
04/25/2013  09:26:00       18.796       26.324       -7.437       29.272       56.283       17.483      856.850     3167.735      305.654        0.272        0.217       32.346       12.686        0.154      338.779       11.662      862.049
04/25/2013  09:27:00        5.163       89.487      -27.816       16.715       33.485       23.339      279.385     1121.219      544.713        0.538        0.097       89.636       14.305        0.025      338.643       11.434      862.050
04/25/2013  09:28:00      -30.909       56.193      -10.095       23.699       24.398       23.056      561.624      595.284      531.587        0.295        0.084       64.133       11.335        0.031      338.819       11.730      862.048
04/25/2013  09:29:00        7.257        9.053       26.699       23.732       14.992       20.905      563.216      224.745      437.016        0.104        0.061       11.603       14.456        1.552      339.771       13.332      862.047
04/25/2013  09:30:00      -34.368      -17.618        9.428       26.038       22.812       15.396      677.953      520.379      237.046        0.151        0.072       38.621        7.199        0.035      339.313       12.561      862.044
04/25/2013  09:31:00      -18.388      -14.287       12.457       22.481       25.070       20.277      505.389      628.490      411.151        0.112        0.077       23.286       19.069        0.671      339.227       12.417      862.049
04/25/2013  09:32:00       23.125       29.254       50.219       49.554       30.974       22.344     2455.592      959.414      499.272        0.391        0.196       37.290       20.980        0.317      339.757       13.310      862.040
04/25/2013  09:33:00       96.069       44.870       43.739       51.562       47.437       44.383     2658.590     2250.225     1969.842        1.002        0.344      106.031       26.211        0.061      339.234       12.428      862.024
04/25/2013  09:34:00       68.345       72.017       57.168       62.141       37.790       43.283     3861.520     1428.065     1873.458        1.014        0.358       99.285       32.833        0.109      339.280       12.507      862.010
04/25/2013  09:35:00       62.006       70.101       15.683       47.706       41.857       40.593     2275.815     1752.032     1647.799        0.734        0.284       93.589       21.028        0.050      339.348       12.620      862.012
04/25/2013  09:36:00      108.185       62.642       14.620       58.737       45.687       27.449     3449.989     2087.319      753.439        1.107        0.315      125.012       16.658        0.018      339.213       12.393      862.008
04/25/2013  09:37:00       45.382       67.202       54.819       61.924       42.811       55.954     3834.546     1832.794     3130.846        0.919        0.440       81.090       52.024        0.412      339.499       12.876      862.012
04/25/2013  09:38:00       52.201       34.376       59.724       56.433       41.572       40.242     3184.668     1728.200     1619.390        0.700        0.327       62.503       26.960        0.186      339.555       12.969      862.010
04/25/2013  09:39:00       11.548       56.578       70.966       40.779       35.006       28.074     1662.955     1225.432      788.139        0.602        0.184       57.744       13.549        0.055      339.656       13.139      862.006
04/25/2013  09:40:00       44.585       39.803       40.009       34.630       29.981       32.079     1199.220      898.871     1029.061        0.415        0.156       59.767       13.634        0.052      339.664       13.153      861.996
04/25/2013  09:41:00      153.908      122.514        2.042       38.424       43.673       38.460     1476.381     1907.359     1479.200        2.178        0.243      196.716       18.958        0.009      339.047       12.112      861.990
04/25/2013  09:42:00       43.857       40.255       34.687       58.466       42.596       38.795     3418.238     1814.407     1505.015        0.574        0.337       59.531       34.869        0.343      339.996       13.713      861.981
04/25/2013  09:43:00       15.684       91.752      101.633       40.382       38.651       23.980     1630.666     1493.907      575.061        1.135        0.185       93.083       23.092        0.062      339.760       13.313      861.969
04/25/2013  09:44:00       29.904       67.626       89.356       38.369       56.131       30.253     1472.204     3150.705      915.218        0.949        0.277       73.943       35.649        0.232      339.674       13.170      861.980
04/25/2013  09:45:00       86.156      103.926       82.850       70.693       46.738       61.108     4997.473     2184.428     3734.220        1.800        0.546      134.994       50.663        0.141      339.511       12.893      861.985
04/25/2013  09:46:00      116.211       86.058       22.192       29.749       22.151       37.325      885.008      490.686     1393.133        1.209        0.138      144.606        8.632        0.004      339.178       12.334      862.009
04/25/2013  09:47:00       99.366       66.656       17.167       36.708       28.808       38.854     1347.512      829.872     1509.605        0.915        0.184      119.652       15.545        0.017      339.431       12.758      862.017
04/25/2013  09:48:00       11.556       35.901       -9.430       50.626       19.790       22.904     2563.016      391.636      524.571        0.249        0.174       37.715       28.650        0.577      339.163       12.308      862.037
04/25/2013  09:49:00       -4.488      -15.904       -5.058       26.678       35.752       18.291      711.690     1278.211      334.564        0.131        0.116       16.525        8.959        0.294      339.669       13.161      862.053
04/25/2013  09:50:00       35.449      -15.327       46.608       37.204       58.779       32.412     1384.168     3454.937     1050.516        0.478        0.294       38.620       27.777        0.517      339.794       13.371      862.060
04/25/2013  09:51:00       63.721       47.604       30.271       18.065       30.801       31.349      326.344      948.714      982.741        0.475        0.113       79.539       18.865        0.056      339.350       12.623      862.065
04/25/2013  09:52:00        6.864       38.655       23.454       30.464       26.974       44.996      928.066      727.621     2024.627        0.289        0.184       39.259       22.586        0.331      339.770       13.331      862.061
04/25/2013  09:53:00       67.366       67.681       16.568       52.124       51.657       39.536     2716.937     2668.436     1563.071        0.817        0.347       95.493       31.792        0.111      339.645       13.120      862.053
04/25/2013  09:54:00       49.881       87.212        1.179       34.635       44.877       34.626     1199.606     2013.989     1198.927        0.725        0.221      100.469       32.283        0.103      339.623       13.084      862.039
04/25/2013  09:55:00      111.405       96.021       18.718       56.397       52.564       48.158     3180.612     2762.960     2319.230        1.512        0.413      147.075       24.891        0.029      339.693       13.202      862.036
04/25/2013  09:56:00      108.343       57.211       30.680       64.118       42.665       44.398     4111.150     1820.324     1971.170        1.193        0.395      122.521       39.667        0.105      339.835       13.440      862.023
04/25/2013  09:57:00      174.944       92.149       11.535       41.147       39.596       33.385     1693.090     1567.863     1114.539        2.180        0.219      197.729       20.450        0.011      339.398       12.702      862.023
04/25/2013  09:58:00      105.508       82.254       34.618       50.828       32.521       37.855     2583.527     1057.623     1433.029        1.208        0.254      133.782       30.616        0.052      339.724       13.254      862.029
04/25/2013  09:59:00       49.461       59.982       55.047       47.056       37.281       31.897     2214.239     1389.849     1017.423        0.685        0.231       77.745       18.081        0.054      339.892       13.539      862.032
04/25/2013  10:00:00        1.641       26.836       66.196       25.797       58.693       41.286      665.478     3444.878     1704.498        0.546        0.291       26.886       44.791        2.775      340.409       14.408      862.038
04/25/2013  10:01:00       39.736       65.648        7.414       50.724       42.287       34.926     2572.880     1788.184     1219.792        0.576        0.279       76.738       30.692        0.160      339.595       13.036      862.040
04/25/2013  10:02:00       64.251       77.011       -0.744       57.396       36.465       37.476     3294.342     1329.669     1404.435        0.804        0.301      100.294       23.678        0.056      339.764       13.320      862.039
04/25/2013  10:03:00       25.362       65.842       69.782       42.033       50.186       29.230     1766.777     2518.588      854.393        0.749        0.257       70.557       16.446        0.054      340.508       14.578      862.046
04/25/2013  10:04:00       65.422       73.395        3.750       65.291       61.011       48.055     4262.900     3722.375     2309.246        0.999        0.515       98.321       34.017        0.120      340.121       13.924      862.055
04/25/2013  10:05:00      110.442       84.038       10.744       64.316       54.491       37.303     4136.555     2969.280     1391.493        1.393        0.425      138.780       21.137        0.023      339.931       13.603      862.067
04/25/2013  10:06:00      133.268       83.633       36.602       62.169       49.892       57.903     3865.003     2489.162     3352.731        1.790        0.485      157.337       38.488        0.060      340.030       13.768      862.071
04/25/2013  10:07:00      110.682       90.210       34.936       56.892       43.974       39.711     3236.698     1933.680     1576.927        1.418        0.337      142.787       39.348        0.076      339.649       13.127      862.081
04/25/2013  10:08:00      120.484       71.961      -16.650       50.209       67.285       26.609     2520.969     4527.308      708.033        1.386        0.388      140.337       10.918        0.006      339.672       13.167      862.084
04/25/2013  10:09:00       34.131       27.149        1.598       58.554       64.940       40.473     3428.561     4217.233     1638.029        0.559        0.464       43.612       32.159        0.544      339.876       13.511      862.072
04/25/2013  10:10:00       80.800       31.703       10.167       67.634       38.400       37.305     4574.298     1474.528     1391.668        0.754        0.372       86.797       19.575        0.051      340.125       13.930      862.071
04/25/2013  10:11:00       16.604       23.089       27.608       50.076       51.753       37.910     2507.564     2678.403     1437.163        0.410        0.331       28.439       17.544        0.381      340.547       14.644      862.060
04/25/2013  10:12:00       37.432       42.681       -0.282       38.031       47.741       34.814     1446.328     2279.160     1212.046        0.408        0.247       56.769       14.543        0.066      340.294       14.215      862.045
04/25/2013  10:13:00        1.704       -1.405       38.833       58.496       53.214       41.125     3421.788     2831.756     1691.279        0.473        0.397        2.208       13.908       39.674      340.758       15.000      862.045
04/25/2013  10:14:00       11.734     -100.777      -11.352       61.116       67.933       40.862     3735.119     4614.945     1669.684        1.022        0.501      101.457       35.355        0.121      340.469       14.510      862.033
04/25/2013  10:15:00       29.898       -4.140       35.919       44.795       93.109       69.730     2006.618     8669.267     4862.293        0.887        0.777       30.184       61.357        4.132      340.436       14.454      862.030
04/25/2013  10:16:00       35.950      -47.056       13.561       71.540      106.168       57.196     5117.996    11271.619     3271.368        1.167        0.983       59.217       62.559        1.116      340.643       14.805      862.033
04/25/2013  10:17:00       32.471      -20.842       68.643       52.972       65.227       52.337     2806.006     4254.571     2739.134        0.800        0.490       38.584       43.455        1.268      341.044       15.483      862.033
04/25/2013  10:18:00       28.493       23.855       80.030       61.471       87.900       55.104     3778.709     7726.365     3036.420        1.116        0.727       37.161       48.646        1.714      340.665       14.840      862.048
04/25/2013  10:19:00       37.885       32.785       42.764       39.532       88.020       38.169     1562.766     7747.457     1456.886        0.755        0.538       50.101       50.258        1.006      340.234       14.115      862.059
04/25/2013  10:20:00       41.220     -141.742      -18.786       47.215       59.320       41.405     2229.236     3518.877     1714.368        1.480        0.373      147.614       30.465        0.043      340.136       13.949      862.063
04/25/2013  10:21:00       72.752      -96.155       -7.506       75.496       52.946       42.093     5699.631     2803.237     1771.826        1.243        0.514      120.576       37.589        0.097      340.344       14.301      862.065
04/25/2013  10:22:00       12.569      -48.309        9.022       43.099       34.145       22.992     1857.535     1165.884      528.647        0.306        0.178       49.918       18.048        0.131      340.324       14.266      862.053
04/25/2013  10:23:00       36.381       -8.948       43.331       44.968       62.103       31.357     2022.125     3856.817      983.240        0.507        0.343       37.466       37.055        0.978      340.629       14.782      862.060
04/25/2013  10:24:00       41.932       17.433       30.642       67.076       48.881       38.584     4499.148     2389.373     1488.720        0.569        0.419       45.411       24.246        0.285      340.654       14.824      862.046
04/25/2013  10:25:00       71.964       47.583       15.660       53.716       53.530       39.039     2885.355     2865.431     1524.040        0.748        0.364       86.273       23.968        0.077      340.412       14.415      862.047
04/25/2013  10:26:00       -2.431       15.504       30.191       15.618       27.016       23.614      243.918      729.878      557.626        0.134        0.077       15.693       18.794        1.434      341.387       16.066      862.029
04/25/2013  10:27:00       -1.820      -23.857       45.700       32.468       84.257       44.381     1054.188     7099.170     1969.631        0.639        0.506       23.927       56.218        5.521      341.197       15.744      862.030
04/25/2013  10:28:00       62.234      -77.047       19.500       83.406       91.086       55.002     6956.562     8296.743     3025.238        1.423        0.914       99.042       57.364        0.335      341.017       15.437      862.028
04/25/2013  10:29:00       87.248     -162.322      -17.491       73.120       74.021       61.550     5346.471     5479.084     3788.369        2.444        0.731      184.285       43.241        0.055      340.624       14.771      862.035
04/25/2013  10:30:00       54.239     -145.092      -18.186       47.282       47.400       51.252     2235.588     2246.719     2626.773        1.572        0.355      154.899       38.133        0.061      340.551       14.649      862.025
04/25/2013  10:31:00       33.643      -71.247        8.292       36.308       82.849       34.863     1318.293     6863.997     1215.461        0.784        0.470       78.791       47.322        0.361      340.662       14.838      862.036
04/25/2013  10:32:00       10.330       33.249       34.101       31.132       45.892       42.520      969.223     2106.063     1807.955        0.363        0.244       34.817       19.637        0.318      340.848       15.151      862.042
04/25/2013  10:33:00       13.800        2.754        2.084       40.994       24.640       34.183     1680.535      607.121     1168.463        0.183        0.173       14.072       23.765        2.852      340.852       15.161      862.032
04/25/2013  10:34:00        7.133      -30.350       29.392       43.705       66.966       30.132     1910.098     4484.438      907.965        0.457        0.365       31.176       36.397        1.363      341.000       15.410      862.041
04/25/2013  10:35:00       64.876       84.780       64.512       97.307       73.299       63.276     9468.611     5372.735     4003.864        1.720        0.942      106.755       47.999        0.202      340.986       15.384      862.026
04/25/2013  10:36:00       98.967       58.398       69.117       74.118       60.518       43.465     5493.534     3662.466     1889.207        1.451        0.552      114.911       37.700        0.108      340.812       15.090      862.043
04/25/2013  10:37:00       27.462       64.625       87.570       45.355       51.875       30.345     2057.045     2691.064      920.830        0.913        0.283       70.218       28.394        0.164      340.747       14.981      862.052
04/25/2013  10:38:00       42.953      -52.413       11.000       40.009       26.743       28.244     1600.751      715.164      797.713        0.391        0.156       67.765       25.462        0.141      340.626       14.777      862.041
04/25/2013  10:39:00      -27.440       34.626       38.490       33.850       33.109       36.525     1145.798     1096.202     1334.076        0.350        0.179       44.180       27.868        0.398      341.002       15.413      862.037
04/25/2013  10:40:00      -12.247       -0.428       20.955       59.104       43.354       33.720     3493.313     1879.579     1137.065        0.355        0.325       12.255       32.429        7.003      341.358       16.015      862.013
04/25/2013  10:41:00      -12.418      -21.277       16.721       35.781       23.327       21.948     1280.302      544.137      481.733        0.160        0.115       24.636       24.296        0.973      341.010       15.425      862.013
04/25/2013  10:42:00      -15.230      -68.693       15.741       44.725       71.363       42.484     2000.333     5092.726     1804.917        0.705        0.445       70.362       38.630        0.301      341.092       15.566      862.007
04/25/2013  10:43:00       32.744      -38.848       17.806       35.332       61.894       40.619     1248.349     3830.813     1649.914        0.481        0.336       50.807       42.514        0.700      341.272       15.873      861.988
04/25/2013  10:44:00       69.449       38.027       41.361       71.271       62.071       50.053     5079.490     3852.826     2505.261        0.971        0.572       79.179       23.011        0.084      341.068       15.523      861.988
04/25/2013  10:45:00       57.473       56.163       29.055       74.240       47.783       53.714     5511.513     2283.222     2885.155        0.899        0.534       80.358       37.514        0.218      341.177       15.707      861.977
04/25/2013  10:46:00      132.860       77.163       32.958       68.029       58.155       42.578     4628.004     3381.982     1812.883        1.726        0.491      153.642       44.865        0.085      340.576       14.691      861.980
04/25/2013  10:47:00       -1.538      -19.685       27.432       47.097       90.937       36.251     2218.115     8269.560     1314.157        0.647        0.590       19.745       19.236        0.949      340.930       15.290      861.969
04/25/2013  10:48:00       41.230       43.038       49.674       60.763       50.331       37.766     3692.195     2533.167     1426.238        0.683        0.383       59.600       36.476        0.375      341.464       16.195      861.957
04/25/2013  10:49:00       26.425       49.218       38.374       45.058       45.501       38.937     2030.261     2070.351     1516.118        0.510        0.281       55.863       28.379        0.258      341.482       16.226      861.954
04/25/2013  10:50:00       22.242       66.945        9.924       51.227       53.877       35.470     2624.193     2902.782     1258.147        0.593        0.339       70.543       34.236        0.236      341.334       15.976      861.942
04/25/2013  10:51:00        1.853      -69.621       -2.611       27.379       66.339       24.447      749.606     4400.818      597.638        0.530        0.287       69.646       12.190        0.031      341.435       16.146      861.930
04/25/2013  10:52:00       27.059     -154.895      -16.270       35.441       47.450       37.932     1256.061     2251.532     1438.860        1.497        0.247      157.241       19.545        0.015      341.430       16.137      861.917
04/25/2013  10:53:00        2.209       -6.389       72.935       44.618       58.070       27.286     1990.740     3372.180      744.546        0.574        0.305        6.760       34.646       26.271      341.667       16.540      861.904
04/25/2013  10:54:00       83.624       55.904       58.525       83.135       61.232       33.454     6911.455     3749.394     1119.195        1.266        0.589      100.589       25.474        0.064      341.296       15.910      861.907
04/25/2013  10:55:00      104.082       58.196       14.270       61.237       53.682       36.387     3749.956     2881.717     1323.979        1.119        0.398      119.247       21.023        0.031      341.148       15.660      861.902
04/25/2013  10:56:00      114.982       15.086        5.164       82.673       84.997       52.609     6834.907     7224.483     2767.662        1.515        0.841      115.968       31.391        0.073      341.398       16.082      861.899
04/25/2013  10:57:00       56.083       42.455       51.152       70.555       74.346       54.395     4978.065     5527.295     2958.822        1.051        0.673       70.340       25.797        0.135      341.735       16.655      861.899
04/25/2013  10:58:00      185.251      116.634       16.422       60.343       46.559       46.654     3641.306     2167.727     2176.558        2.809        0.399      218.910       15.624        0.005      341.046       15.484      861.888
04/25/2013  10:59:00       77.597       95.418        6.011       49.934       45.025       35.767     2493.373     2027.268     1279.251        1.048        0.290      122.987       31.743        0.067      341.019       15.442      861.886
04/25/2013  11:00:00       82.123       66.386       12.744       42.583       36.507       31.317     1813.342     1332.738      980.779        0.772        0.206      105.600       21.724        0.042      341.072       15.531      861.857
04/25/2013  11:01:00       27.431       48.734        8.267       43.331       29.616       32.091     1877.601      877.104     1029.828        0.349        0.189       55.924       11.383        0.041      341.384       16.059      861.852
04/25/2013  11:02:00        3.126       -1.078       -7.618       26.352       41.027       24.724      694.428     1683.211      611.261        0.153        0.149        3.307       19.740       35.630      341.627       16.472      861.850
04/25/2013  11:03:00       30.275       -2.806       21.122       42.626       54.293       38.480     1816.976     2947.701     1480.698        0.381        0.312       30.405       30.451        1.003      341.808       16.780      861.828
04/25/2013  11:04:00        1.200        6.061       54.378       53.972       65.187       40.214     2912.932     4249.360     1617.192        0.589        0.439        6.179       35.875       33.713      342.001       17.107      861.837
04/25/2013  11:05:00      117.007     -111.398      -11.940       60.606       48.824       39.365     3673.125     2383.738     1549.594        1.692        0.380      161.555       35.665        0.049      341.316       15.944      861.830
04/25/2013  11:06:00       46.560      -23.737       28.191       67.792       42.362       35.278     4595.695     1794.533     1244.569        0.558        0.382       52.261       30.720        0.346      341.447       16.167      861.828
04/25/2013  11:07:00       28.769      -21.707       35.357       48.285       91.006       50.401     2331.432     8282.099     2540.287        0.785        0.658       36.040       59.741        2.748      341.393       16.075      861.824
04/25/2013  11:08:00      112.759       96.009       70.476      108.304       45.920       64.296    11729.651     2108.665     4133.983        2.243        0.899      148.096       63.189        0.182      341.406       16.096      861.805
04/25/2013  11:09:00       42.917       60.823       56.681       62.152       43.766       30.982     3862.860     1915.496      959.903        0.774        0.337       74.440       25.876        0.121      341.805       16.775      861.818
04/25/2013  11:10:00        6.977      -24.802       27.084       34.865       51.416       30.222     1215.592     2643.597      913.349        0.308        0.239       25.764       20.348        0.624      341.838       16.830      861.815
04/25/2013  11:11:00       20.455       -2.095       40.076       38.470       62.925       27.795     1479.929     3959.599      772.565        0.412        0.311       20.562       17.746        0.745      341.519       16.289      861.810
04/25/2013  11:12:00       35.310       54.888       78.962       40.945       64.425       36.492     1676.498     4150.535     1331.656        0.883        0.358       65.264       39.232        0.361      341.705       16.603      861.820
04/25/2013  11:13:00       32.172      -32.239       20.769       34.192       44.245       34.501     1169.120     1957.652     1190.334        0.341        0.216       45.546       32.908        0.522      341.580       16.393      861.823
04/25/2013  11:14:00        4.882      -39.336       17.314       31.148       56.635       32.328      970.177     3207.571     1045.069        0.355        0.261       39.638       37.379        0.889      341.728       16.642      861.817
04/25/2013  11:15:00      -40.749      -12.224       15.712       53.407       31.002       35.847     2852.321      961.110     1285.041        0.358        0.255       42.543       30.828        0.525      342.177       17.406      861.810
04/25/2013  11:16:00       30.734       22.153       39.885       36.825       31.568       37.136     1356.086      996.567     1379.054        0.338        0.187       37.886       23.871        0.397      342.336       17.673      861.803
04/25/2013  11:17:00       48.879       55.143        6.541       38.342       28.174       31.222     1470.116      793.786      974.799        0.436        0.162       73.688       21.715        0.087      341.931       16.988      861.809
04/25/2013  11:18:00       52.244       44.979       23.746       95.890       60.281       45.214     9194.846     3633.820     2044.293        1.009        0.744       68.939       46.288        0.451      341.815       16.790      861.810
04/25/2013  11:19:00       34.550       47.813        2.384       51.637       34.652       35.905     2666.330     1200.752     1289.201        0.432        0.258       58.990       20.906        0.126      341.513       16.278      861.807
04/25/2013  11:20:00       -2.249       21.211       30.063       41.834       41.019       30.377     1750.069     1682.553      922.784        0.286        0.218       21.330       25.890        1.473      342.112       17.294      861.809
04/25/2013  11:21:00       66.610       44.385       25.573       41.149       41.793       62.147     1693.206     1746.634     3862.311        0.718        0.365       80.043       25.728        0.103      341.365       16.026      861.810
04/25/2013  11:22:00      114.163       53.680       33.459       59.820       63.737       44.247     3578.400     4062.459     1957.779        1.331        0.480      126.154       35.297        0.078      341.384       16.059      861.798
04/25/2013  11:23:00       78.565       72.751      -11.472       39.042       51.059       35.153     1524.240     2607.020     1235.737        0.848        0.268      107.076       25.122        0.055      341.304       15.924      861.812
04/25/2013  11:24:00      -14.845       -0.390        2.895       34.713       24.972       20.846     1204.990      623.582      434.575        0.125        0.113       14.851       14.218        0.917      341.485       16.231      861.798
04/25/2013  11:25:00       20.694      -66.228       11.040       39.174       66.367       37.193     1534.633     4404.526     1383.356        0.613        0.366       69.386       23.997        0.120      341.992       17.090      861.800
04/25/2013  11:26:00       21.023       55.944       26.418       35.854       29.437       32.591     1285.491      866.543     1062.146        0.374        0.161       59.764       22.511        0.142      341.990       17.088      861.799
04/25/2013  11:27:00      -84.575       91.732      -30.117       41.555       46.508       28.947     1726.848     2162.978      837.900        1.060        0.236      124.771       14.120        0.013      341.372       16.041      861.788
04/25/2013  11:28:00     -156.295       10.067      -26.826       33.497       39.638       29.559     1122.041     1571.162      873.740        1.441        0.178      156.619       17.846        0.013      341.501       16.259      861.778
04/25/2013  11:29:00      -74.998       -3.831       -8.097       50.076       39.331       23.571     2507.592     1546.909      555.584        0.516        0.231       75.095       19.573        0.068      341.825       16.808      861.769
04/25/2013  11:30:00       23.605        7.670       28.368       42.831       21.545       25.377     1834.503      464.190      644.010        0.218        0.147       24.820       13.262        0.286      342.353       17.703      861.767
04/25/2013  11:31:00       41.271       41.433        7.029       79.886       35.177       44.720     6381.698     1237.451     1999.863        0.654        0.481       58.480       30.058        0.264      341.946       17.012      861.758
04/25/2013  11:32:00      127.838       61.578       20.128       72.162       46.790       34.264     5207.344     2189.268     1174.002        1.455        0.429      141.896        8.798        0.004      341.747       16.672      861.749
04/25/2013  11:33:00        6.247      -40.138       17.492       47.328       64.389       24.023     2239.976     4145.927      577.122        0.446        0.348       40.621       20.215        0.248      341.727       16.641      861.754
04/25/2013  11:34:00       73.424       45.083       32.200       66.325       53.695       39.702     4398.992     2883.179     1576.277        0.866        0.443       86.160       13.519        0.025      342.074       17.229      861.748
04/25/2013  11:35:00      126.433      101.836       23.501       46.563       45.473       43.178     2168.111     2067.835     1864.307        1.650        0.305      162.344       24.229        0.022      341.589       16.406      861.742
04/25/2013  11:36:00       99.332       57.235        9.875       52.022       51.036       30.785     2706.245     2604.690      947.706        0.975        0.313      114.642       22.834        0.040      341.834       16.822      861.737
04/25/2013  11:37:00       81.380       53.083       28.337       76.150       52.105       48.107     5798.749     2714.975     2314.327        1.053        0.541       97.162       39.830        0.168      341.957       17.032      861.721
04/25/2013  11:38:00      120.990      103.446       -2.342       50.023       40.364       40.679     2502.282     1629.278     1654.805        1.556        0.289      159.185       19.455        0.015      341.592       16.411      861.706
04/25/2013  11:39:00       81.312       62.729       15.828       41.700       41.379       29.463     1738.927     1712.239      868.068        0.756        0.216      102.696       13.197        0.017      341.815       16.790      861.695
04/25/2013  11:40:00       30.915      137.068       -5.326       35.308       64.194       42.022     1246.676     4120.816     1765.820        1.345        0.357      140.511       44.800        0.102      341.768       16.709      861.674
04/25/2013  11:41:00       97.406       70.715       24.270       60.474       64.791       44.607     3657.092     4197.908     1989.803        1.246        0.492      120.368       22.281        0.034      342.069       17.219      861.664
04/25/2013  11:42:00       80.846       60.822       46.626      106.515       63.838       43.541    11345.506     4075.290     1895.794        1.486        0.866      101.170       52.227        0.266      342.187       17.420      861.635
04/25/2013  11:43:00      101.000       45.908        9.735       64.691       58.680       36.483     4184.933     3443.400     1330.986        1.068        0.448      110.944       33.332        0.090      342.063       17.210      861.623
04/25/2013  11:44:00       30.984       21.523       23.921       51.289       54.933       42.893     2630.555     3017.646     1839.793        0.474        0.374       37.726       28.700        0.579      342.228       17.492      861.629
04/25/2013  11:45:00       19.112       35.555       51.500       31.387       28.213       33.690      985.120      795.996     1135.013        0.360        0.146       40.366       22.833        0.320      342.632       18.178      861.625
04/25/2013  11:46:00       39.068      -41.105       40.159       46.850      105.656       65.855     2194.915    11163.179     4336.877        1.126        0.885       56.709       65.649        1.340      342.399       17.781      861.629
04/25/2013  11:47:00       49.778       32.452       56.056       66.292       51.370       42.196     4394.618     2638.906     1780.500        0.774        0.441       59.422       41.437        0.486      342.161       17.378      861.624
04/25/2013  11:48:00       47.347      -94.055       -1.856       51.132      125.169       46.902     2614.511    15667.171     2199.820        1.578        1.024      105.300       30.429        0.084      342.029       17.152      861.607
04/25/2013  11:49:00       30.154        9.513       80.802       74.377      136.349      100.247     5531.962    18591.028    10049.490        2.084        1.709       31.619      112.036       12.555      342.541       18.022      861.599
04/25/2013  11:50:00       44.000       -0.742       46.321       49.025       86.449       44.922     2403.414     7473.488     2017.952        0.799        0.595       44.006       41.963        0.909      342.477       17.914      861.594
04/25/2013  11:51:00       24.440       50.566       71.221       56.783       70.112       51.952     3224.297     4915.670     2698.970        0.953        0.542       56.163       47.563        0.717      342.361       17.716      861.605
04/25/2013  11:52:00       27.426       38.583       61.915       68.981       57.266       53.978     4758.351     3279.404     2913.627        0.851        0.548       47.338       50.574        1.141      342.203       17.449      861.614
04/25/2013  11:53:00       47.790      -35.739       34.025       47.626       70.512       42.684     2268.214     4971.923     1821.920        0.689        0.453       59.676       46.113        0.597      342.350       17.700      861.595
04/25/2013  11:54:00       34.734        5.441       18.346       34.284       32.326       27.849     1175.416     1044.988      775.582        0.228        0.150       35.158       23.647        0.452      342.199       17.444      861.592
04/25/2013  11:55:00       11.841        4.007      -10.907       39.715       31.015       18.045     1577.247      961.936      325.622        0.157        0.143       12.501        9.850        0.621      341.821       16.799      861.596
04/25/2013  11:56:00       44.988        4.440       12.785       50.758       66.922       35.886     2576.384     4478.489     1287.784        0.527        0.417       45.206       35.294        0.610      342.274       17.569      861.581
04/25/2013  11:57:00       80.454      -12.693       31.699       55.913       61.576       46.147     3126.211     3791.642     2129.539        0.834        0.452       81.449       30.034        0.136      342.247       17.524      861.564
04/25/2013  11:58:00       40.965       35.512       38.852       48.963       74.712       46.154     2397.338     5581.910     2130.150        0.728        0.505       54.215       22.029        0.165      342.215       17.470      861.561
04/25/2013  11:59:00       -8.718       17.769        0.761       32.976       54.677       28.751     1087.394     2989.620      826.626        0.265        0.245       19.792        5.327        0.072      342.331       17.666      861.555
04/25/2013  12:00:00       42.068        7.636       27.297       36.522       46.214       30.390     1333.849     2135.739      923.565        0.348        0.220       42.756       23.723        0.308      342.214       17.467      861.537
04/25/2013  12:01:00       77.768       93.569       95.449       97.178       79.251       64.012     9443.472     6280.800     4097.477        2.186        0.991      121.667       50.975        0.176      342.396       17.776      861.527
04/25/2013  12:02:00       55.086        0.946       62.219       88.605       84.342       51.839     7850.833     7113.593     2687.246        1.228        0.883       55.094       53.550        0.945      342.447       17.863      861.516
04/25/2013  12:03:00       60.799      -27.984       41.299       46.957       54.305       39.177     2204.963     2949.080     1534.807        0.644        0.334       66.930       28.892        0.186      342.427       17.830      861.520
04/25/2013  12:04:00       42.932       29.752       48.946       47.228       51.776       49.332     2230.444     2680.747     2433.659        0.623        0.367       52.233       20.352        0.152      342.512       17.974      861.515
04/25/2013  12:05:00       69.219       51.232       82.866       85.003       98.717       74.074     7225.476     9745.098     5487.000        1.837        1.123       86.116       73.624        0.731      342.095       17.263      861.516
04/25/2013  12:06:00        6.708       90.185       83.150       38.857       58.088       53.510     1509.896     3374.262     2863.348        1.142        0.387       90.434       41.423        0.210      342.121       17.310      861.516
04/25/2013  12:07:00       32.121       41.666       18.756       27.938       41.888       30.213      780.552     1754.610      912.850        0.328        0.172       52.610       17.784        0.114      342.206       17.453      861.497
04/25/2013  12:08:00       60.030      101.771      -14.113       58.185       46.061       28.230     3385.471     2121.636      796.910        1.023        0.315      118.156       19.034        0.026      342.147       17.354      861.491
04/25/2013  12:09:00      -28.485      158.376      -26.371       38.519       41.375       24.378     1483.703     1711.871      594.301        1.519        0.189      160.918       15.870        0.010      342.003       17.109      861.483
04/25/2013  12:10:00        9.899      107.935      -10.710       55.395       75.963       33.374     3068.644     5770.371     1113.832        1.091        0.498      108.388       31.351        0.084      342.290       17.598      861.467
04/25/2013  12:11:00      -61.713       39.717      -13.658       41.796       29.457       22.191     1746.866      867.724      492.426        0.434        0.155       73.389       14.665        0.040      342.150       17.358      861.436
04/25/2013  12:12:00      -19.808      -34.953       -3.320       56.697       36.839       29.977     3214.580     1357.102      898.622        0.355        0.274       40.176        8.171        0.041      342.373       17.736      861.403
04/25/2013  12:13:00       73.677        8.702       34.905       85.939       90.805       48.595     7385.470     8245.499     2361.447        1.235        0.900       74.189       50.576        0.465      342.728       18.340      861.397
04/25/2013  12:14:00      116.865      121.448      -16.247       72.318       89.057       53.352     5229.871     7931.176     2846.383        2.234        0.800      168.544       54.242        0.104      342.479       17.915      861.390
04/25/2013  12:15:00       -4.636      208.916      -23.646       47.797       55.140       33.093     2284.566     3040.460     1095.144        2.532        0.321      208.968       28.739        0.019      342.307       17.622      861.392
04/25/2013  12:16:00       52.029       86.806       15.048       79.317       63.408       45.926     6291.219     4020.563     2109.217        1.144        0.621      101.204       37.432        0.137      342.872       18.584      861.389
04/25/2013  12:17:00      211.829      104.141       14.920       93.627       63.447       53.523     8766.005     4025.496     2864.675        3.579        0.783      236.045       25.400        0.012      342.303       17.617      861.383
04/25/2013  12:18:00       64.994       19.124       12.215       95.771       85.173       50.270     9172.085     7254.432     2527.068        1.184        0.948       67.749       24.316        0.129      342.206       17.453      861.364
04/25/2013  12:19:00      180.157      155.391        1.549      108.726       92.155       82.989    11821.351     8492.482     6887.245        4.190        1.360      237.913       56.910        0.057      342.415       17.806      861.379
04/25/2013  12:20:00      232.597      120.420       -7.339       74.716       90.402       48.255     5582.554     8172.497     2328.540        4.237        0.804      261.920       41.141        0.025      342.105       17.277      861.398
04/25/2013  12:21:00      -26.128      154.521       -4.230       46.961      138.113       62.944     2205.316    19075.280     3961.992        2.490        1.262      156.714       61.885        0.156      342.297       17.606      861.396
04/25/2013  12:22:00      -42.898       95.440       17.451       38.520       66.724       42.056     1483.773     4452.069     1768.696        0.948        0.385      104.638       39.052        0.139      343.035       18.864      861.401
04/25/2013  12:23:00       -8.737      -17.745       27.702       43.758       30.974       42.215     1914.803      959.402     1782.129        0.291        0.233       19.779       40.875        4.271      342.874       18.590      861.420
04/25/2013  12:24:00      -64.474      -36.745       -7.147       71.524       54.543       37.792     5115.735     2974.906     1428.252        0.754        0.476       74.210       40.134        0.292      342.296       17.607      861.383
04/25/2013  12:25:00       -5.775      -61.302        9.800       59.839       62.543       53.360     3580.670     3911.594     2847.250        0.711        0.517       61.574       42.583        0.478      342.392       17.769      861.358
04/25/2013  12:26:00       25.592       24.433       14.686       45.914       36.629       37.468     2108.076     1341.686     1403.848        0.316        0.243       35.383       26.066        0.543      342.732       18.347      861.348
04/25/2013  12:27:00      -10.250       56.752       23.752       31.874       40.667       36.008     1015.924     1653.810     1296.557        0.393        0.198       57.670       31.091        0.291      343.051       18.891      861.327
04/25/2013  12:28:00       74.493      142.238       -4.443       73.323       71.460       61.464     5376.233     5106.551     3777.865        2.003        0.713      160.564       49.617        0.095      342.769       18.408      861.319
04/25/2013  12:29:00       59.736      115.248      -13.764       55.548       77.259       40.593     3085.605     5969.025     1647.764        1.387        0.535      129.809       44.448        0.117      342.513       17.973      861.326
04/25/2013  12:30:00       74.677      140.317        8.005       72.883       65.277       51.038     5311.984     4261.077     2604.881        1.875        0.609      158.951       50.344        0.100      342.416       17.808      861.301
04/25/2013  12:31:00       13.152      244.237      -31.319       37.258       37.101       30.373     1388.172     1376.488      922.499        3.225        0.184      244.591       22.515        0.008      342.355       17.702      861.296
04/25/2013  12:32:00       44.895       80.675       16.043       63.119       66.725       45.394     3983.970     4452.261     2060.590        0.964        0.525       92.325       42.142        0.208      342.666       18.236      861.284
04/25/2013  12:33:00     -115.725       74.139      -22.507       35.290       42.009       25.821     1245.401     1764.791      666.721        1.154        0.184      137.436       15.448        0.013      342.220       17.477      861.273
04/25/2013  12:34:00      -16.676       19.938       -2.800       41.590       28.785       26.106     1729.725      828.599      681.537        0.196        0.162       25.993       26.123        1.010      342.595       18.116      861.258
04/25/2013  12:35:00       14.706      -74.799        6.020       25.359       38.286       31.407      643.072     1465.844      986.402        0.447        0.155       76.231       23.963        0.099      342.543       18.027      861.248
04/25/2013  12:36:00      -88.923      -79.365      -21.644       79.256       43.780       31.612     6281.445     1916.707      999.331        1.193        0.460      119.189       28.111        0.056      342.314       17.636      861.231
04/25/2013  12:37:00     -139.754      -70.396      -10.258       76.852       53.142       38.064     5906.208     2824.040     1448.847        1.738        0.509      156.483       45.104        0.083      342.469       17.899      861.215
04/25/2013  12:38:00      -18.434      -67.629       26.042       72.894       67.325       42.339     5313.604     4532.613     1792.574        0.861        0.582       70.096       37.330        0.284      343.014       18.827      861.180
04/25/2013  12:39:00      -27.392      -60.640       18.215       65.022       62.287       48.339     4227.822     3879.695     2336.615        0.760        0.522       66.539       36.819        0.306      342.951       18.721      861.158
04/25/2013  12:40:00      -23.910       -7.764       18.173       37.051       26.517       25.596     1372.754      703.169      655.139        0.185        0.137       25.139       25.195        1.004      343.309       19.331      861.156
04/25/2013  12:41:00       -9.817       10.872       18.424       53.382       26.735       26.724     2849.616      714.758      714.182        0.242        0.214       14.648       31.892        4.740      343.233       19.200      861.133
04/25/2013  12:42:00       17.245       90.360        6.456       62.304       86.722       44.624     3881.756     7520.634     1991.258        1.095        0.670       91.991       46.139        0.252      342.968       18.748      861.126
04/25/2013  12:43:00       42.207      132.285       19.677       88.711       74.964       48.864     7869.599     5619.645     2387.676        1.777        0.794      138.855       48.797        0.123      342.878       18.593      861.095
04/25/2013  12:44:00       -3.941      140.798       -3.176       59.779       90.342       40.560     3573.551     8161.666     1645.090        1.661        0.669      140.854       41.258        0.086      343.157       19.070      861.076
04/25/2013  12:45:00      -37.397      144.885       -1.203       71.882       93.506       57.147     5167.019     8743.458     3265.730        1.978        0.859      149.634       52.439        0.123      342.980       18.769      861.081
04/25/2013  12:46:00      -93.725       59.136      -18.265       65.941       98.865       37.250     4348.267     9774.295     1387.579        1.406        0.776      110.822       30.622        0.076      342.618       18.154      861.076
04/25/2013  12:47:00      -17.433      151.109      -10.424       44.631       89.741       31.743     1991.970     8053.443     1007.600        1.715        0.553      152.111       39.358        0.067      342.769       18.410      861.059
04/25/2013  12:48:00       -4.872       43.349       27.512       30.093       74.895       27.776      905.562     5609.261      771.496        0.497        0.364       43.622       32.122        0.542      343.767       20.110      861.045
04/25/2013  12:49:00       59.998      -74.993      -10.932       78.470       70.980       32.366     6157.525     5038.104     1047.578        1.079        0.612       96.039       27.115        0.080      342.838       18.528      861.044
04/25/2013  12:50:00       62.353      -89.359       17.175       42.468       83.990       39.809     1803.544     7054.333     1584.767        1.130        0.522      108.963       41.099        0.142      342.780       18.429      861.025
04/25/2013  12:51:00       73.141      -49.736       45.996       72.401       88.088       63.853     5241.858     7759.421     4077.194        1.351        0.854       88.449       60.244        0.464      342.890       18.616      861.011
04/25/2013  12:52:00       -0.993      -18.553       20.677       32.616       33.311       32.987     1063.826     1109.654     1088.172        0.202        0.163       18.579       29.348        2.495      343.043       18.877      860.968
04/25/2013  12:53:00      -28.449       24.336       35.237       28.584       27.081       28.545      817.037      733.381      814.837        0.250        0.118       37.438       16.082        0.185      343.344       19.389      860.942
04/25/2013  12:54:00        3.540       -7.710       28.791       17.611       23.168       19.106      310.164      536.752      365.023        0.106        0.061        8.483       16.293        3.689      343.700       19.997      860.930
04/25/2013  12:55:00       52.398       34.418        2.906       48.895       41.660       31.360     2390.769     1735.524      983.472        0.452        0.255       62.691       24.829        0.157      343.116       19.002      860.918
04/25/2013  12:56:00      121.793      -37.104        3.898       53.735       61.168       44.246     2887.455     3741.568     1957.722        1.240        0.429      127.320       28.451        0.050      342.671       18.244      860.912
04/25/2013  12:57:00      108.820       70.860       27.230       72.405       63.598       58.727     5242.521     4044.697     3448.804        1.517        0.637      129.858       22.257        0.029      342.776       18.421      860.900
04/25/2013  12:58:00       35.931      -39.402      -15.105       35.524       57.182       37.748     1261.936     3269.745     1424.885        0.451        0.298       53.325       18.143        0.116      342.882       18.604      860.911
04/25/2013  12:59:00       -3.837      -13.761        0.804       31.298       55.183       29.518      979.587     3045.116      871.305        0.255        0.245       14.285       22.047        2.382      343.284       19.289      860.910
04/25/2013  13:00:00      126.628      204.590        8.512      134.951      106.784       75.983    18211.851    11402.872     5773.387        4.667        1.769      240.607       67.747        0.079      343.318       19.342      860.898
04/25/2013  13:01:00      143.366      155.645        8.898       90.020      108.401       62.931     8103.600    11750.688     3960.367        3.433        1.191      211.611       60.277        0.081      343.245       19.219      860.900
04/25/2013  13:02:00      -65.216      254.000      -44.697       50.745      102.105       36.406     2575.024    10425.490     1325.413        4.254        0.716      262.238       25.414        0.009      342.654       18.211      860.916
04/25/2013  13:03:00      -60.573       88.411      -20.021       48.870       95.357       41.589     2388.278     9092.974     1729.662        1.255        0.661      107.171       45.875        0.183      343.051       18.891      860.901
04/25/2013  13:04:00      -39.295      184.973      -13.012       74.897      101.112       49.397     5609.517    10223.641     2440.112        2.710        0.914      189.101       49.936        0.070      343.249       19.225      860.886
04/25/2013  13:05:00      -39.632      158.730      -21.484       28.242       57.341       24.006      797.599     3288.041      576.300        1.594        0.233      163.603       22.744        0.019      342.861       18.566      860.882
04/25/2013  13:06:00       -5.077       56.714       14.056       26.219       43.165       29.526      687.430     1863.194      871.792        0.343        0.171       56.941       26.785        0.221      343.808       20.183      860.855
04/25/2013  13:07:00       29.863       34.186       24.024       29.324       20.404       20.376      859.903      416.320      415.193        0.216        0.085       45.393       12.695        0.078      343.666       19.938      860.863
04/25/2013  13:08:00       34.791        7.688       22.437       25.012       30.600       24.046      625.599      936.347      578.209        0.196        0.107       35.631       15.277        0.184      343.029       18.854      860.849
04/25/2013  13:09:00       51.039      107.957      -11.949       44.044       56.096       35.627     1939.912     3146.736     1269.261        1.038        0.318      119.414       32.670        0.075      343.270       19.264      860.850
04/25/2013  13:10:00      -26.274      101.569       -6.282       39.915       57.948       35.793     1593.190     3357.936     1281.135        0.864        0.312      104.913       30.044        0.082      343.497       19.649      860.842
04/25/2013  13:11:00       98.879       89.542       24.265      102.704       52.296       55.988    10548.126     2734.893     3134.688        1.740        0.821      133.397       42.736        0.103      343.539       19.721      860.844
04/25/2013  13:12:00       51.618       86.580       75.429       67.116       72.250       64.233     4504.603     5220.066     4125.838        1.485        0.693      100.800       55.350        0.302      343.250       19.228      860.849
04/25/2013  13:13:00       48.009       39.508       50.042       79.352      117.323       66.391     6296.683    13764.719     4407.773        1.541        1.223       62.175       65.432        1.108      342.866       18.573      860.848
04/25/2013  13:14:00       83.373      134.867      112.592      100.432       74.688       58.199    10086.586     5578.370     3387.083        2.843        0.953      158.557       51.071        0.104      343.163       19.080      860.838
04/25/2013  13:15:00       46.594       76.130      101.991       72.664       73.573       55.058     5280.119     5413.048     3031.398        1.604        0.686       89.257       50.860        0.325      343.155       19.067      860.829
04/25/2013  13:16:00       74.144      102.589       81.174       71.785       71.785       63.551     5153.081     5153.122     4038.682        1.848        0.717      126.577       54.752        0.187      343.152       19.061      860.807
04/25/2013  13:17:00      143.382      114.695       71.019      136.494       92.592       70.037    18630.706     8573.199     4905.208        3.543        1.605      183.612       42.835        0.054      343.374       19.440      860.797
04/25/2013  13:18:00       95.062       15.323       -3.783       81.840      102.511       38.987     6697.855    10508.596     1519.987        1.400        0.936       96.289       13.187        0.019      343.342       19.386      860.789
04/25/2013  13:19:00      -22.056      -34.736       -1.563       41.810       54.310       31.713     1748.047     2949.523     1005.699        0.370        0.285       41.146       32.744        0.633      343.064       18.913      860.795
04/25/2013  13:20:00       25.611       23.449       24.774       44.210       44.989       45.568     1954.547     2024.003     2076.465        0.394        0.303       34.725       31.778        0.838      343.812       20.188      860.818
04/25/2013  13:21:00       78.133       31.522       32.963       90.842       73.233       46.821     8252.182     5363.102     2192.169        1.199        0.790       84.252       39.848        0.224      343.558       19.754      860.808
04/25/2013  13:22:00       41.015       39.722       31.868       56.759       39.414       43.298     3221.603     1553.478     1874.738        0.546        0.332       57.097       19.305        0.114      343.500       19.656      860.817
04/25/2013  13:23:00      -31.570       29.012       12.520       39.606       33.910       42.673     1568.604     1149.872     1821.001        0.327        0.227       42.877       28.206        0.433      343.484       19.628      860.823
04/25/2013  13:24:00     -140.311       25.221      -18.604       66.154       56.537       30.365     4376.382     3196.436      922.013        1.458        0.425      142.560       21.066        0.022      343.522       19.691      860.813
04/25/2013  13:25:00     -125.908      -49.740       -3.686       69.954       44.417       33.872     4893.503     1972.870     1147.338        1.318        0.401      135.377       34.693        0.066      343.356       19.409      860.812
04/25/2013  13:26:00      -35.187      -41.880       21.686       56.363       56.903       32.784     3176.835     3237.900     1074.794        0.547        0.374       54.700       25.385        0.215      343.611       19.845      860.816
04/25/2013  13:27:00      -68.578        4.877        2.843       42.643       25.737       21.570     1818.436      662.401      465.260        0.384        0.147       68.751       24.293        0.125      343.505       19.665      860.813
04/25/2013  13:28:00      -57.627        2.160        9.371       37.045       47.333       22.656     1372.318     2240.455      513.301        0.377        0.206       57.668       12.517        0.047      343.462       19.590      860.785
04/25/2013  13:29:00     -215.259      -38.450       -8.618       55.349       53.885       32.442     3063.550     2903.565     1052.481        2.745        0.351      218.666       38.301        0.031      343.114       18.993      860.775
04/25/2013  13:30:00     -178.002      -82.474      -14.731       85.468       60.729       36.240     7304.821     3688.017     1313.301        2.550        0.615      196.180       40.219        0.042      343.205       19.149      860.761
04/25/2013  13:31:00      -88.543     -179.628      -11.533       36.561       50.476       32.623     1336.699     2547.802     1064.256        2.259        0.247      200.265       16.092        0.006      343.016       18.829      860.742
04/25/2013  13:32:00      -91.836     -124.218      -21.466       43.828       43.012       30.865     1920.866     1849.994      952.632        1.452        0.236      154.479        6.830        0.002      342.927       18.680      860.753
04/25/2013  13:33:00       27.929       -8.146       33.680       52.925       39.575       49.901     2801.047     1566.211     2490.065        0.442        0.343       29.093       36.729        1.594      343.574       19.782      860.757
04/25/2013  13:34:00       20.239       41.801       13.264       18.321       48.605       26.897      335.676     2362.445      723.466        0.288        0.171       46.443        8.911        0.037      343.321       19.351      860.751
04/25/2013  13:35:00       11.465       54.422       15.194       30.677       52.147       40.550      941.049     2719.319     1644.288        0.431        0.265       55.617       38.690        0.484      343.714       20.022      860.752
04/25/2013  13:36:00       17.170       68.323        6.059       32.949       81.834       33.911     1085.626     6696.761     1149.944        0.696        0.447       70.447       39.884        0.321      343.621       19.860      860.746
04/25/2013  13:37:00       29.766       39.874       12.231       39.291       55.380       31.842     1543.815     3066.914     1013.937        0.412        0.281       49.759       33.007        0.440      343.892       20.324      860.755
04/25/2013  13:38:00       43.729      -12.273        2.114       39.767       55.168       27.468     1581.385     3043.455      754.483        0.372        0.269       45.419       31.094        0.469      343.350       19.400      860.750
04/25/2013  13:39:00       48.218       28.470       19.233       36.845       56.481       33.795     1357.528     3190.048     1142.124        0.460        0.284       55.996       34.768        0.386      343.445       19.561      860.724
04/25/2013  13:40:00       33.534       -9.885       13.177       48.224       49.972       36.700     2325.600     2497.230     1346.921        0.378        0.308       34.961       29.082        0.692      343.561       19.760      860.721
04/25/2013  13:41:00      121.577       75.209       16.033       73.903       62.582       49.948     5461.641     3916.525     2494.816        1.628        0.594      142.959       47.364        0.110      343.422       19.520      860.701
04/25/2013  13:42:00      170.281      104.111       36.859       95.773       71.427       47.867     9172.377     5101.826     2291.274        2.888        0.828      199.586       15.136        0.006      343.413       19.505      860.672
04/25/2013  13:43:00       19.842       55.861        4.312       46.701       61.012       36.459     2180.957     3722.407     1329.292        0.538        0.362       59.280       34.443        0.338      343.773       20.121      860.689
04/25/2013  13:44:00       15.283      -15.604       17.262       39.116       37.555       33.986     1530.100     1410.343     1155.073        0.243        0.205       21.842        7.653        0.123      343.916       20.367      860.688
04/25/2013  13:45:00       -8.348      -23.444       -9.483       37.587       31.206       21.982     1412.754      973.801      483.207        0.179        0.143       24.885       21.553        0.750      343.701       19.997      860.676
04/25/2013  13:46:00       10.863      -12.479       22.135       26.022       44.447       36.619      677.150     1975.552     1340.947        0.238        0.200       16.545       38.972        5.549      344.002       20.512      860.672
04/25/2013  13:47:00       -3.654      -72.749       12.014       48.972       59.635       52.678     2398.212     3556.320     2774.983        0.709        0.436       72.841       47.525        0.426      344.266       20.964      860.649
04/25/2013  13:48:00        9.767      -33.374       22.184       93.058       88.440       49.555     8659.786     7821.644     2455.649        1.032        0.947       34.774       62.618        3.243      344.240       20.920      860.669
04/25/2013  13:49:00       55.826       35.432        5.687       35.269       42.405       38.507     1243.905     1798.158     1482.782        0.446        0.226       66.121       12.403        0.035      343.936       20.399      860.679
04/25/2013  13:50:00       -4.175       83.587        0.374       57.828       54.593       32.668     3344.131     2980.366     1067.178        0.720        0.370       83.691       27.568        0.109      343.923       20.378      860.679
04/25/2013  13:51:00       82.796       54.508       25.432       72.973       53.995       41.058     5325.060     2915.421     1685.741        1.020        0.496       99.128       36.088        0.133      344.011       20.527      860.690
04/25/2013  13:52:00       29.025       55.795       19.401       46.030       50.347       32.030     2118.806     2534.792     1025.946        0.500        0.284       62.893       34.643        0.303      344.157       20.778      860.686
04/25/2013  13:53:00      -84.724       42.984       -7.325       89.287       78.990       45.424     7972.112     6239.453     2063.361        1.267        0.814       95.004       65.592        0.477      343.943       20.411      860.673
04/25/2013  13:54:00     -154.198       81.320      -22.657       75.029       51.573       42.102     5629.349     2659.815     1772.609        2.048        0.503      174.327       32.476        0.035      343.838       20.231      860.648
04/25/2013  13:55:00     -300.776       -5.315      -22.323      123.495      100.292       52.222    15250.974    10058.394     2727.125        5.951        1.402      300.823       46.739        0.024      343.984       20.477      860.631
04/25/2013  13:56:00     -113.431      -37.250       13.497      105.865       77.623       58.662    11207.329     6025.272     3441.273        1.755        1.034      119.390       58.402        0.239      344.165       20.789      860.619
04/25/2013  13:57:00     -219.960      -44.939      -16.746      120.402       80.683       64.050    14496.637     6509.691     4102.368        3.789        1.255      224.504       53.578        0.057      343.836       20.224      860.624
04/25/2013  13:58:00     -104.451      -16.905      -24.198       93.017       77.211       50.735     8652.249     5961.580     2574.068        1.448        0.859      105.810       42.825        0.164      343.840       20.235      860.629
04/25/2013  13:59:00     -146.540      -48.651       -8.184       78.607       61.606       31.894     6179.100     3795.306     1017.256        1.745        0.550      154.404       34.172        0.049      343.916       20.364      860.624
04/25/2013  14:00:00     -153.902       -9.998      -13.510       84.497       47.710       38.615     7139.706     2276.249     1491.088        1.744        0.545      154.226       43.514        0.080      343.795       20.157      860.626
04/25/2013  14:01:00     -217.362       14.376      -14.216       83.892      100.235       47.470     7037.799    10047.146     2253.396        3.349        0.967      217.837       47.331        0.047      344.038       20.571      860.613
04/25/2013  14:02:00      -14.348       48.744       30.502       61.206       45.762       47.780     3746.190     2094.124     2282.956        0.582        0.406       50.812       43.806        0.743      344.585       21.510      860.608
04/25/2013  14:03:00       22.783       -1.610       46.025       33.074       23.954       35.370     1093.892      573.783     1251.050        0.278        0.146       22.839       21.178        0.860      344.477       21.322      860.591
04/25/2013  14:04:00       19.097       22.104       20.398       44.669       76.211       26.662     1995.320     5808.145      710.841        0.489        0.426       29.211       14.022        0.230      344.162       20.787      860.571
04/25/2013  14:05:00     -106.408       59.997      -22.362       50.310       68.291       31.862     2531.097     4663.695     1015.157        1.181        0.410      122.157       13.287        0.012      344.017       20.539      860.579
04/25/2013  14:06:00      -77.306      100.437       15.539       69.790       87.003       50.238     4870.643     7569.441     2523.883        1.563        0.748      126.743       42.721        0.114      344.274       20.975      860.592
04/25/2013  14:07:00        3.579      127.672       -4.850       45.680       62.130       41.713     2086.677     3860.171     1739.962        1.201        0.384      127.722       38.074        0.089      343.976       20.469      860.605
04/25/2013  14:08:00       34.696       94.625       -0.755       56.902       52.383       36.487     3237.865     2743.994     1331.320        0.873        0.366      100.785       34.532        0.117      343.846       20.247      860.602
04/25/2013  14:09:00     -117.110       82.339      -19.902       63.245       71.802       35.857     3999.899     5155.502     1285.714        1.566        0.522      143.158       40.504        0.080      343.926       20.381      860.584
04/25/2013  14:10:00      -47.052       75.980       -1.788       51.192       64.283       35.957     2620.580     4132.250     1292.891        0.802        0.402       89.369       32.537        0.133      344.012       20.530      860.584
04/25/2013  14:11:00      -82.066      191.151      -21.255       53.382       60.033       44.160     2849.648     3603.928     1950.139        2.606        0.420      208.023       40.344        0.038      343.927       20.382      860.592
04/25/2013  14:12:00       11.301       67.451       14.863       42.108       72.029       31.517     1773.097     5188.235      993.322        0.642        0.398       68.391       38.214        0.312      343.976       20.468      860.585
04/25/2013  14:13:00       63.254       34.722       27.389       45.146       34.732       31.025     2038.198     1206.329      962.543        0.508        0.210       72.158       18.728        0.067      343.935       20.399      860.580
04/25/2013  14:14:00        2.055       27.255       33.628       42.536       46.223       33.583     1809.302     2136.603     1127.792        0.347        0.254       27.332       36.141        1.748      344.321       21.058      860.562
04/25/2013  14:15:00       61.380       99.698       14.403       93.156      102.858       48.885     8678.026    10579.733     2389.748        1.778        1.082      117.077       52.536        0.201      343.870       20.285      860.554
04/25/2013  14:16:00       -0.025      190.951      -23.084       37.179       93.233       33.962     1382.274     8692.314     1153.427        2.411        0.561      190.951       42.426        0.049      343.616       19.852      860.541
04/25/2013  14:17:00      -27.933      108.890      -28.174       43.962       48.260       25.475     1932.693     2329.073      648.974        0.917        0.246      112.416       16.152        0.021      343.521       19.692      860.532
04/25/2013  14:18:00        3.705       48.957       11.377       27.659       41.009       34.034      765.012     1681.713     1158.280        0.307        0.180       49.097       25.436        0.268      344.073       20.632      860.519
04/25/2013  14:19:00      -68.577        2.150        7.810       68.914       31.603       29.595     4749.091      998.745      875.873        0.569        0.331       68.611       17.663        0.066      344.274       20.978      860.489
04/25/2013  14:20:00     -112.375       80.638       -9.759       43.858       36.937       34.038     1923.519     1364.371     1158.555        1.184        0.222      138.313       31.102        0.051      343.744       20.070      860.483
04/25/2013  14:21:00     -105.416       -5.140      -11.507       45.930       62.564       31.020     2109.578     3914.289      962.242        0.913        0.349      105.542       27.404        0.067      343.945       20.415      860.463
04/25/2013  14:22:00      -25.129      -62.244       -2.682       37.899       48.715       33.597     1436.298     2373.142     1128.788        0.472        0.247       67.125       25.851        0.148      344.295       21.012      860.458
04/25/2013  14:23:00      -72.065       -0.029      -14.604       31.228       51.504       21.419      975.210     2652.648      458.785        0.475        0.204       72.065       23.868        0.110      343.695       19.987      860.450
04/25/2013  14:24:00       -5.721       38.478       20.987       22.439       35.480       28.470      503.508     1258.848      810.550        0.226        0.129       38.901       20.798        0.286      344.414       21.216      860.439
04/25/2013  14:25:00       53.645       -3.417       31.447       46.046       43.797       43.534     2120.225     1918.150     1895.184        0.490        0.297       53.754       37.090        0.476      343.692       19.984      860.425
04/25/2013  14:26:00       59.375       -1.049       -6.062       31.319       38.189       33.781      980.873     1458.379     1141.186        0.357        0.179       59.384       13.737        0.054      343.453       19.575      860.421
04/25/2013  14:27:00       27.607      -24.600       22.120       61.863       47.310       41.752     3826.976     2238.268     1743.226        0.483        0.390       36.977       33.369        0.814      343.989       20.491      860.420
04/25/2013  14:28:00      -13.493      -29.531       10.994       64.406       78.799       44.646     4148.097     6209.278     1993.304        0.676        0.618       32.467       41.575        1.640      344.325       21.063      860.411
04/25/2013  14:29:00       12.209     -114.075      -17.476       76.846       63.437       42.793     5905.297     4024.237     1831.217        1.261        0.588      114.727       32.024        0.078      344.032       20.562      860.440
04/25/2013  14:30:00      -17.354     -126.411      -10.663       83.859       56.255       25.307     7032.299     3164.571      640.454        1.361        0.542      127.596       24.789        0.038      343.795       20.158      860.438
04/25/2013  14:31:00       64.874      -12.558       12.633       67.068       80.205       39.972     4498.096     6432.904     1597.726        0.852        0.626       66.078       27.035        0.167      343.851       20.255      860.432
04/25/2013  14:32:00      105.533      105.417       84.694      110.904       72.143       67.414    12299.764     5204.678     4544.712        2.573        1.102      149.164       66.306        0.198      343.931       20.390      860.422
04/25/2013  14:33:00      105.087      120.311       91.724       93.267       69.451       78.164     8698.760     4823.468     6109.550        2.678        0.982      159.744       70.637        0.196      343.811       20.184      860.409
04/25/2013  14:34:00      126.901       26.485       42.108      102.646       89.765       51.255    10536.181     8057.722     2627.038        1.990        1.061      129.636       50.117        0.149      343.873       20.291      860.406
04/25/2013  14:35:00       61.355      -58.663       -2.173       61.971       80.073       46.507     3840.351     6411.761     2162.914        0.981        0.621       84.887       40.629        0.229      343.720       20.029      860.401
04/25/2013  14:36:00       32.137      -50.112       16.152       68.326       94.081       49.111     4668.403     8851.218     2411.905        0.986        0.797       59.531       50.955        0.733      344.209       20.866      860.384
04/25/2013  14:37:00      100.552       72.502       66.625       99.305       87.702       47.596     9861.448     7691.669     2265.373        1.981        0.991      123.965       30.223        0.059      343.785       20.140      860.373
04/25/2013  14:38:00      135.834       73.993       34.345       51.649       32.072       35.317     2667.581     1028.593     1247.267        1.502        0.247      154.680       13.421        0.008      344.068       20.623      860.379
04/25/2013  14:39:00      -11.609      179.737      -20.674       49.741       74.133       31.915     2474.194     5495.747     1018.597        2.093        0.449      180.112       31.955        0.031      344.023       20.547      860.385
04/25/2013  14:40:00       71.979      199.621      -21.446       85.296       50.093       46.213     7275.413     2509.263     2135.687        2.870        0.596      212.201       29.686        0.020      343.936       20.395      860.374
04/25/2013  14:41:00       65.121      131.100       -5.883       88.280      109.111       53.680     7793.333    11905.296     2881.568        2.202        1.129      146.383       51.562        0.124      344.132       20.732      860.354
04/25/2013  14:42:00       61.491      277.205      -45.919       70.677       71.799       47.233     4995.205     5155.069     2230.981        4.755        0.619      283.943       39.909        0.020      343.861       20.266      860.360
04/25/2013  14:43:00       48.984      209.834      -28.084       95.228      127.046       64.473     9068.399    16140.573     4156.730        3.829        1.468      215.476       69.896        0.105      344.274       20.974      860.358
04/25/2013  14:44:00      109.848      152.343      -20.022       80.487       86.588       65.070     6478.095     7497.439     4234.050        2.694        0.910      187.816       39.165        0.043      344.003       20.510      860.376
04/25/2013  14:45:00      137.768       -6.567        9.531       65.438      119.661       44.709     4282.134    14318.681     1998.860        1.985        1.030      137.925       26.517        0.037      343.705       20.003      860.361
04/25/2013  14:46:00       26.031      -48.939       14.250       39.690       55.882       42.980     1575.269     3122.841     1847.293        0.491        0.327       55.432       39.980        0.520      343.636       19.886      860.337
04/25/2013  14:47:00       38.911      128.685       -6.715       65.092       80.465       48.774     4236.997     6474.652     2378.872        1.560        0.655      134.439       50.233        0.140      344.176       20.807      860.356
04/25/2013  14:48:00      -35.890       47.687       -9.653       31.991       49.371       28.845     1023.416     2437.476      832.040        0.397        0.215       59.684       26.134        0.192      344.259       20.950      860.367
04/25/2013  14:49:00       30.145      111.685        2.742       52.474      116.501       45.762     2753.501    13572.431     2094.189        1.590        0.921      115.681       58.587        0.256      344.197       20.843      860.367
04/25/2013  14:50:00      -15.325      123.080      -19.097       26.427       97.158       34.000      698.403     9439.639     1155.976        1.352        0.565      124.030       43.094        0.121      344.074       20.633      860.401
04/25/2013  14:51:00        9.924       56.560       -4.199       30.989       37.206       25.984      960.302     1384.279      675.166        0.317        0.151       57.424       20.832        0.132      344.101       20.681      860.368
04/25/2013  14:52:00        5.432       23.835        7.832       13.032       24.788       19.591      169.833      614.469      383.800        0.091        0.058       24.446       13.392        0.300      344.263       20.957      860.351
04/25/2013  14:53:00       17.505       20.381       -0.255       20.757       20.444       26.884      430.867      417.974      722.726        0.115        0.079       26.866       15.406        0.329      344.029       20.558      860.340
04/25/2013  14:54:00       51.188        6.614       18.532       38.732       25.326       31.682     1500.177      641.413     1003.719        0.308        0.157       51.614       18.111        0.123      343.583       19.797      860.328
04/25/2013  14:55:00       47.695      -10.218       -6.935       28.498       41.998       25.175      812.132     1763.809      633.784        0.282        0.160       48.778       19.241        0.156      343.668       19.942      860.317
04/25/2013  14:56:00      -87.759      -34.408       -4.314       70.917       68.329       31.640     5029.188     4668.846     1001.118        0.980        0.535       94.263       26.214        0.077      344.466       21.304      860.308
04/25/2013  14:57:00      -97.805        3.002       -9.789       65.497       21.244       23.568     4289.912      451.305      555.452        0.748        0.265       97.851       31.578        0.104      344.435       21.250      860.303
04/25/2013  14:58:00       43.476      -28.432       23.948       56.319       66.736       33.236     3171.774     4453.735     1104.660        0.600        0.437       51.947       36.972        0.507      344.207       20.863      860.270
04/25/2013  14:59:00       18.276     -159.467        1.349       95.955       57.388       39.083     9207.449     3293.338     1527.469        1.989        0.701      160.511       33.431        0.043      344.209       20.861      860.253
04/25/2013  15:00:00       60.323      -82.425       19.035       78.844      108.282       54.930     6216.417    11725.007     3017.334        1.587        1.048      102.141       69.285        0.460      344.330       21.071      860.226
04/25/2013  15:01:00       71.266     -151.772      -11.524       72.294       49.065       37.213     5226.468     2407.338     1384.776        1.863        0.451      167.671       28.662        0.029      344.353       21.111      860.207
04/25/2013  15:02:00       29.683      -81.959       24.880       45.219      105.707       51.530     2044.728    11173.948     2655.299        1.204        0.794       87.168       60.339        0.479      344.208       20.863      860.185
04/25/2013  15:03:00        5.234      -40.343       22.106       55.818       55.583       38.503     3115.619     3089.483     1482.518        0.491        0.384       40.681       31.327        0.593      344.480       21.329      860.153
04/25/2013  15:04:00      100.426     -119.215      -10.959       45.229       50.875       31.555     2045.623     2588.252      995.723        1.502        0.281      155.877       19.275        0.015      344.276       20.978      860.146
04/25/2013  15:05:00       15.557      -58.419       -5.781       58.509       47.317       48.688     3423.256     2238.920     2370.550        0.586        0.402       60.455       43.689        0.522      343.882       20.308      860.142
04/25/2013  15:06:00      -26.941      -15.520       28.480       35.042       49.290       35.473     1227.968     2429.485     1258.311        0.335        0.246       31.092       23.405        0.567      344.238       20.916      860.143
04/25/2013  15:07:00       22.022      -35.329       -2.644       32.489       24.245       23.770     1055.514      587.815      565.002        0.197        0.110       41.630       12.076        0.084      344.071       20.630      860.141
04/25/2013  15:08:00       12.597       12.518        4.870       32.414       43.159       25.444     1050.686     1862.733      647.398        0.195        0.178       17.759       12.953        0.532      344.333       21.078      860.140
04/25/2013  15:09:00       45.029      124.967      -14.067       41.947       53.139       37.001     1759.564     2823.741     1369.107        1.190        0.298      132.832       32.046        0.058      344.466       21.305      860.149
04/25/2013  15:10:00      -98.661       89.329       -9.568       99.567      101.482       55.079     9913.585    10298.598     3033.701        2.052        1.162      133.093       54.651        0.169      344.729       21.753      860.142
04/25/2013  15:11:00       53.173      279.763      -43.647      157.396      132.086       81.426    24773.648    17446.621     6630.179        6.592        2.443      284.772       75.190        0.070      344.777       21.833      860.115
04/25/2013  15:12:00      -80.994      330.148      -50.333       83.900       95.820       47.750     7039.289     9181.448     2280.087        6.829        0.925      339.938       52.740        0.024      344.274       20.973      860.140
04/25/2013  15:13:00      -86.001      236.766      -31.213       62.802       75.472       44.641     3944.119     5696.074     1992.777        3.803        0.582      251.901       41.758        0.027      344.378       21.151      860.126
04/25/2013  15:14:00       20.843      236.754      -22.187       55.549       75.139       48.147     3085.637     5645.821     2318.128        3.401        0.552      237.670       41.239        0.030      344.385       21.160      860.114
04/25/2013  15:15:00     -100.444       55.734      -12.472       88.470       74.610       43.636     7827.008     5566.589     1904.077        1.432        0.765      114.871       38.081        0.110      344.795       21.866      860.097
04/25/2013  15:16:00      -46.578       -9.653       13.117       59.410       59.752       44.676     3529.543     3570.256     1995.949        0.576        0.455       47.567       45.437        0.912      344.738       21.770      860.080
04/25/2013  15:17:00      -31.746       55.743       -3.606       68.326      129.113       50.385     4668.411    16670.194     2538.630        1.400        1.194       64.149       58.506        0.832      344.528       21.409      860.090
04/25/2013  15:18:00       74.255      126.011       16.402      103.104       99.067       54.042    10630.537     9814.195     2920.589        2.251        1.168      146.262       49.299        0.114      344.909       22.062      860.072
04/25/2013  15:19:00      202.480      140.893       46.952      122.112       80.963       75.194    14911.287     6555.043     5654.129        4.508        1.356      246.676       66.786        0.073      344.910       22.060      860.052
04/25/2013  15:20:00       76.398      119.174        6.088      109.889       90.999       61.245    12075.673     8280.750     3750.921        2.209        1.205      141.560       49.721        0.123      344.822       21.912      860.055
04/25/2013  15:21:00      -25.227      196.823      -24.027       26.865       54.449       20.536      721.703     2964.717      421.735        2.203        0.205      198.433       18.939        0.009      344.280       20.985      860.036
04/25/2013  15:22:00       -4.513       57.995       12.090       28.451       49.140       31.313      809.463     2414.727      980.479        0.387        0.210       58.170       33.980        0.341      344.950       22.135      860.013
04/25/2013  15:23:00       -1.504       18.915       14.345       54.213       29.106       20.284     2939.082      847.183      411.431        0.238        0.210       18.975       23.702        1.560      345.125       22.433      860.020
04/25/2013  15:24:00       28.834       51.442       36.251       45.509       43.322       41.284     2071.024     1876.809     1704.405        0.522        0.283       58.972       42.206        0.512      344.920       22.081      860.037
04/25/2013  15:25:00       -8.849       68.568       12.191       39.559       57.508       30.629     1564.877     3307.126      938.157        0.537        0.291       69.137       33.988        0.242      344.888       22.027      860.020
04/25/2013  15:26:00      -36.203      241.607      -33.572       82.672       60.322       41.880     6834.652     3638.801     1753.917        3.652        0.611      244.304       33.765        0.019      344.575       21.486      860.008
04/25/2013  15:27:00       31.101      182.204       -9.619       74.933      101.828       62.534     5614.970    10368.856     3910.474        2.707        0.995      184.839       58.810        0.101      344.743       21.777      859.988
04/25/2013  15:28:00      -55.624      219.890      -12.884       97.117      137.893       60.481     9431.757    19014.584     3657.931        4.185        1.605      226.817       47.250        0.043      345.074       22.344      859.940
04/25/2013  15:29:00     -183.575      133.110      -14.896       96.641       77.379       39.652     9339.547     5987.542     1572.260        3.427        0.845      226.755       29.085        0.016      345.054       22.307      859.959
04/25/2013  15:30:00     -159.392       50.929      -12.988       95.542       75.040       40.102     9128.184     5631.045     1608.168        2.226        0.818      167.331       41.315        0.061      345.108       22.402      859.984
04/25/2013  15:31:00      -58.184      181.224      -21.700       70.410       88.830       42.233     4957.518     7890.793     1783.628        2.566        0.732      190.335       42.627        0.050      344.929       22.095      860.024
04/25/2013  15:32:00      -56.538      290.563      -30.876       87.835      156.680       56.111     7714.915    24548.483     3148.403        6.199        1.771      296.012       66.681        0.051      344.986       22.190      860.007
04/25/2013  15:33:00      -90.794      411.299      -56.572       84.154      196.947       60.686     7081.863    38788.141     3682.747       11.507        2.478      421.201       77.777        0.034      345.132       22.442      859.964
04/25/2013  15:34:00     -199.484      235.698      -44.708      110.681      177.464       69.102    12250.384    31493.518     4775.075        7.292        2.426      308.784       53.919        0.030      345.133       22.441      859.990
04/25/2013  15:35:00     -162.064      194.967      -36.210       99.504      130.658       59.330     9901.052    17071.396     3520.017        4.803        1.525      253.529       50.676        0.040      344.878       22.007      859.994
04/25/2013  15:36:00     -105.568      221.842      -12.592       77.515       87.802       46.608     6008.562     7709.185     2172.290        3.820        0.795      245.679       39.642        0.026      344.861       21.977      859.995
04/25/2013  15:37:00     -135.511      114.878      -26.981       74.248       88.141       49.103     5512.817     7768.803     2411.089        2.399        0.785      177.652       38.877        0.048      345.003       22.222      859.966
04/25/2013  15:38:00      -69.805        1.942       22.684      133.387       77.168       57.625    17792.191     5954.881     3320.682        1.622        1.353       69.832       59.737        0.732      345.193       22.547      859.917
04/25/2013  15:39:00        0.669      372.969      -35.759      101.153      159.770       78.047    10231.988    25526.365     6091.348        9.111        2.092      372.970       84.326        0.051      344.731       21.755      859.980
04/25/2013  15:40:00       -8.471      406.946      -40.837      110.900      129.940       65.810    12298.816    16884.404     4330.914       10.042        1.676      407.034       64.607        0.025      344.839       21.940      859.967
04/25/2013  15:41:00      -47.728      361.395      -51.284       62.196      110.237       41.796     3868.399    12152.101     1746.874        7.664        0.888      364.533       49.211        0.018      344.360       21.119      859.990
04/25/2013  15:42:00      -47.399      172.858      -10.996       85.514      117.041       51.468     7312.678    13698.635     2648.993        2.795        1.183      179.239       48.887        0.074      344.683       21.672      859.942
04/25/2013  15:43:00     -204.325      199.125      -50.860      106.322      126.861       70.736    11304.426    16093.651     5003.614        5.819        1.620      285.306       55.235        0.037      344.809       21.888      859.933
04/25/2013  15:44:00     -178.647      227.646      -41.312      141.716      102.457       62.734    20083.446    10497.417     3935.503        5.997        1.726      289.375       62.559        0.047      344.924       22.085      859.934
04/25/2013  15:45:00     -135.911      235.335      -30.809      137.256      154.687       83.394    18839.249    23927.936     6954.566        6.225        2.486      271.762      100.850        0.138      345.027       22.262      859.977
04/25/2013  15:46:00     -176.748      314.272      -56.224      114.963      123.880       67.824    13216.495    15346.326     4600.077        8.316        1.658      360.565       61.860        0.029      344.718       21.732      859.987
04/25/2013  15:47:00      -71.801      345.617      -56.012      107.659      147.201       66.971    11590.537    21668.113     4485.169        8.274        1.887      352.996       65.185        0.034      344.887       22.021      859.947
04/25/2013  15:48:00       14.145      336.193      -29.762      139.713      180.338       87.505    19519.766    32521.882     7657.042        8.689        2.985      336.490      104.697        0.097      345.026       22.260      859.904
04/25/2013  15:49:00      -95.352      299.411      -17.312       96.202      155.068       62.670     9254.768    24046.082     3927.541        6.813        1.861      314.228       69.382        0.049      345.186       22.533      859.946
04/25/2013  15:50:00     -202.050      184.501      -25.470      118.401       92.848       66.652    14018.898     8620.668     4442.497        5.129        1.354      273.614       75.224        0.076      344.997       22.211      859.937
04/25/2013  15:51:00     -138.452      120.639       -5.093      108.872       78.249       57.930    11853.160     6122.965     3355.918        2.754        1.067      183.638       36.956        0.040      345.099       22.385      859.935
04/25/2013  15:52:00     -164.717      294.509      -31.799       72.489      104.482       60.999     5254.707    10916.487     3720.850        6.738        0.995      337.442       55.959        0.028      345.001       22.215      859.946
04/25/2013  15:53:00      -66.106      163.650      -11.573       70.172      105.359       49.736     4924.112    11100.553     2473.655        2.489        0.925      176.498       54.421        0.095      345.035       22.276      859.947
04/25/2013  15:54:00     -102.546      344.071      -44.869       84.938      132.393       59.201     7214.507    17527.796     3504.751        7.957        1.412      359.027       65.981        0.034      344.990       22.198      859.963
04/25/2013  15:55:00     -147.901      228.616      -38.611       94.085      117.625       51.440     8852.039    13835.573     2646.087        5.048        1.267      272.286       46.482        0.029      344.592       21.518      859.971
04/25/2013  15:56:00        7.511      135.609        2.211      128.933       98.184       83.179    16623.669     9640.100     6918.778        2.581        1.659      135.817       71.322        0.276      344.841       21.943      859.922
04/25/2013  15:57:00      212.057      165.701       24.050      137.896       85.506       68.860    19015.247     7311.202     4741.762        5.203        1.553      269.119       40.163        0.022      344.744       21.776      859.863
04/25/2013  15:58:00      -37.768      272.149      -33.639      121.111       80.771       53.045    14667.757     6523.909     2813.791        5.031        1.200      274.757       49.412        0.032      345.006       22.225      859.870
04/25/2013  15:59:00      -13.244      226.602      -25.104       86.727       83.488       56.102     7521.510     6970.175     3147.471        3.489        0.882      226.989       43.088        0.036      344.845       21.950      859.855
04/25/2013  16:00:00      -25.098      252.816      -34.850      136.863      141.796       63.613    18731.478    20106.031     4046.659        5.431        2.144      254.059       57.401        0.051      344.947       22.124      859.836
04/25/2013  16:01:00       13.531      145.661      -11.539       65.117      116.123       65.204     4240.214    13484.546     4251.617        2.175        1.099      146.288       55.849        0.146      345.218       22.590      859.811
04/25/2013  16:02:00       34.412      365.558      -40.993       99.000      194.948       81.150     9801.023    38004.629     6585.294        9.543        2.720      367.174      102.648        0.078      344.906       22.053      859.819
04/25/2013  16:03:00      -59.212      379.445      -48.773       92.165      131.593       58.088     8494.325    17316.818     3374.171        8.952        1.459      384.037       54.120        0.020      344.806       21.883      859.827
04/25/2013  16:04:00      -22.346      175.612      -18.949       81.984      137.799       58.396     6721.319    18988.576     3410.100        3.040        1.456      177.028       64.999        0.135      345.228       22.607      859.849
04/25/2013  16:05:00      -95.150      362.394      -49.591       92.357       80.460       54.664     8529.817     6473.775     2988.121        8.041        0.900      374.677       46.456        0.015      344.861       21.976      859.866
04/25/2013  16:06:00      -18.025      248.382       -6.878      113.255      133.612       81.518    12826.759    17852.195     6645.217        4.969        1.866      249.035       79.580        0.102      345.072       22.337      859.860
04/25/2013  16:07:00       86.175      163.328      -23.916       86.493      117.759       70.446     7480.990    13867.145     4962.573        3.049        1.316      184.668       77.315        0.175      344.883       22.015      859.814
04/25/2013  16:08:00      -14.030      184.255      -25.340       81.752      122.954       54.485     6683.312    15117.648     2968.621        2.977        1.238      184.788       59.669        0.104      344.969       22.163      859.813
04/25/2013  16:09:00      -52.507      204.909       -9.175       95.167       86.007       46.556     9056.831     7397.149     2167.428        3.172        0.931      211.529       38.990        0.034      345.186       22.534      859.830
04/25/2013  16:10:00     -186.417      160.095      -11.407      114.493      102.947       70.526    13108.616    10598.044     4973.854        4.459        1.434      245.727       56.271        0.052      345.298       22.725      859.874
04/25/2013  16:11:00     -140.446      108.394      -29.832       87.684      101.589       54.808     7688.559    10320.333     3003.916        2.668        1.051      177.410       47.688        0.072      345.218       22.589      859.863
04/25/2013  16:12:00     -164.584       87.818      -33.084      144.780      204.026       76.899    20961.201    41626.549     5913.483        5.219        3.425      186.548       74.651        0.160      344.862       21.979      859.885
04/25/2013  16:13:00     -116.414      357.968      -33.201       82.960      111.460       49.014     6882.440    12423.233     2402.369        8.225        1.085      376.422       53.808        0.020      344.669       21.648      859.840
04/25/2013  16:14:00     -165.120      262.853      -21.691       96.809      150.556       70.137     9371.923    22667.017     4919.252        6.689        1.848      310.413       60.072        0.037      344.987       22.193      859.850
04/25/2013  16:15:00      -79.728       94.732       -2.642      113.663      109.143       45.707    12919.304    11912.180     2089.154        2.112        1.346      123.818       43.127        0.121      345.201       22.560      859.803
04/25/2013  16:16:00     -196.319      220.038      -38.981      110.295      107.167       71.425    12164.950    11484.820     5101.522        5.861        1.438      294.886       61.422        0.043      345.031       22.268      859.870
04/25/2013  16:17:00     -283.362      344.547      -75.136      143.430      127.285       74.901    20572.184    16201.394     5610.149       12.351        2.119      446.102       86.556        0.038      344.795       21.865      859.907
04/25/2013  16:18:00     -177.866      227.810      -35.752       90.143       80.650       54.057     8125.802     6504.471     2922.108        5.118        0.878      289.022       55.031        0.036      344.770       21.820      859.917
04/25/2013  16:19:00      -98.624      245.701      -20.799       76.429       84.859       46.835     5841.449     7201.014     2193.549        4.288        0.762      264.756       42.992        0.026      344.717       21.729      859.841
04/25/2013  16:20:00     -159.149       92.805      -34.059       66.649      116.917       29.077     4442.087    13669.580      845.472        2.703        0.948      184.231       36.598        0.039      344.875       22.001      859.811
04/25/2013  16:21:00      -94.795       -2.095        5.511       93.498       69.754       62.753     8741.951     4865.627     3937.914        1.328        0.877       94.818       49.509        0.273      345.299       22.728      859.787
04/25/2013  16:22:00      -73.289      120.486      -19.446       76.295      139.656       56.303     5820.994    19503.783     3170.015        2.437        1.425      141.025       38.632        0.075      345.317       22.760      859.789
04/25/2013  16:23:00     -120.003      359.694      -39.386      123.937      137.123       74.542    15360.257    18802.733     5556.581        9.252        1.986      379.184       68.112        0.032      345.087       22.363      859.840
04/25/2013  16:24:00      -51.826      202.138      -11.951       79.968      110.573       59.723     6394.879    12226.340     3566.875        3.293        1.109      208.676       46.341        0.049      344.970       22.163      859.825
04/25/2013  16:25:00      -65.233      289.339      -17.015       77.499      126.147       52.313     6006.101    15913.071     2736.628        5.645        1.233      296.601       60.903        0.042      345.085       22.360      859.828
04/25/2013  16:26:00       -3.944      350.967      -34.746      106.541      130.756       75.517    11350.943    17097.040     5702.788        7.927        1.708      350.989       62.768        0.032      344.878       22.006      859.839
04/25/2013  16:27:00     -146.916      309.805      -37.086      166.064      147.556       81.787    27577.321    21772.847     6689.075        8.748        2.802      342.875       86.439        0.064      344.882       22.013      859.868
04/25/2013  16:28:00     -260.632      316.997      -57.390      118.813      125.369       76.302    14116.555    15717.272     5822.046       10.368        1.783      410.385       72.012        0.031      344.781       21.840      859.941
04/25/2013  16:29:00     -110.815      209.267      -24.775       83.102       90.135       43.880     6905.910     8124.379     1925.470        3.682        0.848      236.796       45.780        0.037      344.856       21.970      859.908
04/25/2013  16:30:00      -78.852      203.035      -20.465       57.345      101.824       46.827     3288.462    10368.105     2192.788        3.185        0.792      217.809       48.879        0.050      344.730       21.752      859.878
04/25/2013  16:31:00     -137.303      160.084      -14.592      100.207       92.185       43.858    10041.404     8498.156     1923.486        3.257        1.023      210.900       38.159        0.033      344.890       22.025      859.850
04/25/2013  16:32:00     -179.409      177.775      -29.708       95.515       80.018       49.744     9123.123     6402.923     2474.491        4.133        0.900      252.570       47.092        0.035      344.820       21.906      859.892
04/25/2013  16:33:00     -158.208      235.282      -37.135       59.172      100.676       51.673     3501.378    10135.713     2670.133        4.903        0.815      283.526       50.054        0.031      344.775       21.829      859.869
04/25/2013  16:34:00     -103.371      167.500      -32.061      107.598      108.682       42.777    11577.317    11811.752     1829.834        3.249        1.261      196.830       50.054        0.065      344.832       21.928      859.841
04/25/2013  16:35:00      -81.468      151.762      -30.159       81.247       98.569       35.265     6601.018     9715.837     1243.651        2.407        0.878      172.246       32.013        0.035      344.922       22.083      859.830
04/25/2013  16:36:00      -15.626      115.261      -11.345       58.096      125.102       35.215     3375.150    15650.503     1240.064        1.696        1.013      116.315       48.448        0.173      344.825       21.918      859.819
04/25/2013  16:37:00     -143.742      327.340      -39.350      129.253      117.582       61.735    16706.303    13825.504     3811.158        8.185        1.717      357.510       61.868        0.030      344.923       22.082      859.864
04/25/2013  16:38:00     -205.070      270.293      -40.583      106.514      130.899       73.450    11345.333    17134.466     5394.917        7.531        1.694      339.281       73.926        0.047      344.951       22.130      859.923
04/25/2013  16:39:00     -134.443      348.751      -47.961      121.870      160.922       56.217    14852.368    25895.808     3160.376        9.295        2.195      373.768       61.287        0.027      344.740       21.770      859.904
04/25/2013  16:40:00      -22.878      197.684      -18.267       40.811       64.397       35.835     1665.572     4146.941     1284.154        2.351        0.355      199.004       32.072        0.026      344.632       21.586      859.843
04/25/2013  16:41:00      -47.084      355.220      -60.567       60.186       72.743       34.092     3622.329     5291.524     1162.246        7.107        0.504      358.327       32.484        0.008      344.600       21.530      859.826
04/25/2013  16:42:00     -147.362      295.688      -41.735       80.170      103.063       50.620     6427.167    10622.073     2562.362        6.525        0.981      330.374       51.219        0.024      344.853       21.963      859.864
04/25/2013  16:43:00     -101.095      298.889      -42.490       77.423       70.668       39.178     5994.325     4993.998     1534.907        5.694        0.626      315.523       28.496        0.008      344.838       21.936      859.852
04/25/2013  16:44:00     -196.430      207.711      -37.974      159.109      114.531       71.326    25315.658    13117.321     5087.391        6.334        2.176      285.882       70.968        0.062      345.042       22.286      859.866
04/25/2013  16:45:00     -206.233      183.842      -32.059      130.039      125.168       60.930    16910.208    15667.012     3712.414        5.682        1.814      276.279       76.497        0.077      344.906       22.055      859.868
04/25/2013  16:46:00     -170.314      201.713      -23.515      104.278      141.142       55.172    10873.826    19921.191     3043.901        5.204        1.692      263.998       63.581        0.058      344.949       22.126      859.863
04/25/2013  16:47:00     -160.587      265.681      -39.050       73.167      153.171       66.867     5353.468    23461.332     4471.223        6.559        1.664      310.442       62.586        0.041      345.043       22.288      859.880
04/25/2013  16:48:00     -184.284      141.510      -21.874      118.240      134.065       67.407    13980.586    17973.332     4543.749        4.547        1.825      232.348       63.368        0.074      345.209       22.573      859.896
04/25/2013  16:49:00     -236.605      -46.780      -15.985      173.471      133.206       72.365    30092.242    17743.893     5236.622        5.574        2.654      241.185       63.564        0.069      345.247       22.638      859.858
04/25/2013  16:50:00      -35.535      154.063       12.275       76.680      106.156       58.900     5879.801    11269.067     3469.211        2.288        1.031      158.108       62.205        0.155      345.122       22.425      859.852
04/25/2013  16:51:00     -107.657      293.502      -28.256       90.819      132.346       64.766     8248.054    17515.357     4194.646        6.424        1.498      312.623       65.810        0.044      344.909       22.060      859.875
04/25/2013  16:52:00      -20.782      243.713      -26.736       96.221      138.520       62.630     9258.386    19187.720     3922.473        4.645        1.618      244.598       73.438        0.090      345.020       22.248      859.814
04/25/2013  16:53:00     -124.250      171.373       -9.888       74.521      171.057       51.034     5553.316    29260.327     2604.460        4.115        1.871      211.676       64.666        0.093      345.397       22.896      859.853
04/25/2013  16:54:00      -85.836      270.013       -8.322      156.271      246.304      100.913    24420.653    60665.841    10183.501        8.779        4.763      283.328      106.970        0.143      345.258       22.656      859.878
04/25/2013  16:55:00     -312.922      234.771      -48.218      123.313      147.577       72.068    15206.090    21778.946     5193.737        9.876        2.109      391.200       53.581        0.019      345.079       22.349      859.968
04/25/2013  16:56:00     -394.042      437.784     -102.242      122.185      186.429       76.970    14929.193    34755.915     5924.432       20.648        2.780      589.003       88.372        0.023      344.867       21.987      860.004
04/25/2013  16:57:00     -108.353      393.512      -61.555      147.291      171.410       70.251    21694.522    29381.540     4935.191       11.319        2.801      408.157       75.490        0.034      344.877       22.004      860.010
04/25/2013  16:58:00       13.943      467.007      -61.702       96.287      107.137       60.060     9271.174    11478.278     3607.181       12.322        1.218      467.215       61.750        0.017      344.762       21.807      859.981
04/25/2013  16:59:00       60.441      156.923        7.637      157.435      105.252       69.685    24785.696    11077.960     4855.960        3.452        2.036      168.160       71.420        0.180      344.948       22.126      859.966
04/25/2013  17:00:00      -41.363      443.099      -54.009       80.421       92.072       45.160     6467.548     8477.311     2039.457       10.897        0.849      445.025       38.108        0.007      344.681       21.669      860.002
04/25/2013  17:01:00     -212.341      202.681      -42.733       86.643       94.340       63.876     7507.087     8900.093     4080.135        5.424        1.024      293.544       69.583        0.056      344.797       21.868      860.003
04/25/2013  17:02:00       18.538      175.959       -1.478      117.067      121.019       68.577    13704.673    14645.692     4702.858        3.217        1.653      176.932       71.541        0.163      344.973       22.171      860.001
04/25/2013  17:03:00       20.210      154.432      -16.183       78.010       68.131       53.568     6085.547     4641.777     2869.542        1.906        0.680      155.749       40.320        0.067      345.199       22.557      859.995
04/25/2013  17:04:00      -69.864      280.957      -27.785      121.837      108.936       64.981    14844.290    11867.155     4222.508        5.776        1.547      289.513       42.759        0.022      345.058       22.315      860.033
04/25/2013  17:05:00      -85.806      370.009      -42.974       76.885      119.922       51.724     5911.253    14381.176     2675.343        8.454        1.148      379.828       49.340        0.017      344.748       21.782      860.010
04/25/2013  17:06:00      110.176      256.360      -10.791      122.973      180.386      119.702    15122.463    32539.069    14328.605        6.997        3.100      279.033      119.777        0.184      344.685       21.677      860.023
04/25/2013  17:07:00       71.847      124.189       19.276       94.198       88.641       73.975     8873.343     7857.181     5472.255        2.158        1.110      143.475       54.028        0.142      344.789       21.856      860.017
04/25/2013  17:08:00       62.637      351.101      -53.794       79.009      191.352       61.432     6242.464    36615.758     3773.926        8.835        2.332      356.644       89.560        0.063      344.646       21.610      860.031
04/25/2013  17:09:00      -54.968      413.487      -53.517       90.462       94.454       42.791     8183.300     8921.616     1831.098        9.789        0.947      417.125       46.281        0.012      344.494       21.350      860.047
04/25/2013  17:10:00       68.842      289.771      -13.363      131.795      169.253       91.946    17370.010    28646.700     8454.103        7.167        2.724      297.837       85.580        0.083      344.723       21.741      860.025
04/25/2013  17:11:00      132.676      189.862        6.920      144.757      127.422       78.172    20954.454    16236.418     6110.829        4.849        2.165      231.625       72.944        0.099      344.840       21.942      860.014
04/25/2013  17:12:00       26.488      202.784        6.949      115.538      167.512       78.952    13349.111    28060.345     6233.497        4.475        2.382      204.507       88.604        0.188      345.041       22.286      860.039
04/25/2013  17:13:00      -15.816      335.347      -34.803      100.063      207.839       69.965    10012.666    43197.081     4895.167        8.600        2.905      335.720      104.086        0.096      344.909       22.060      860.059
04/25/2013  17:14:00       -2.810      268.249      -21.473       88.867      137.195       67.525     7897.328    18822.587     4559.655        5.185        1.564      268.264       72.363        0.073      345.096       22.379      860.062
04/25/2013  17:15:00       22.518      214.365      -18.744      106.688      110.841       70.384    11382.318    12285.628     4953.935        3.771        1.431      215.545       65.355        0.092      345.074       22.342      860.060
04/25/2013  17:16:00       32.318      281.678      -27.751       99.339      168.804       74.448     9868.246    28494.731     5542.506        6.252        2.195      283.526       80.598        0.081      344.911       22.063      860.058
04/25/2013  17:17:00       18.938      211.539      -19.693      114.231      130.941       58.969    13048.736    17145.437     3477.372        3.958        1.684      212.385       58.134        0.075      344.818       21.902      860.077
04/25/2013  17:18:00      133.965      140.419        1.697      112.931      103.987       69.454    12753.486    10813.241     4823.812        3.302        1.420      194.072       61.463        0.100      344.664       21.640      860.054
04/25/2013  17:19:00       61.357      192.272      -14.517       78.316      162.100       60.351     6133.371    26276.376     3642.257        3.849        1.803      201.824       73.367        0.132      344.784       21.847      860.046
04/25/2013  17:20:00       -7.026      293.609      -18.465       80.177      137.238       62.547     6428.426    18834.250     3912.114        5.788        1.459      293.693       67.988        0.054      344.908       22.058      860.080
04/25/2013  17:21:00      148.666      238.568        4.494      134.206      157.697      102.590    18011.328    24868.335    10524.785        6.621        2.670      281.098       96.388        0.118      344.640       21.600      860.059
04/25/2013  17:22:00      188.333      184.559       24.723      143.106       78.921       70.624    20479.234     6228.561     4987.726        5.091        1.585      263.688       61.562        0.055      344.938       22.110      860.017
04/25/2013  17:23:00      147.032      177.188       -2.489      102.238      102.441       73.443    10452.685    10494.233     5393.813        3.968        1.317      230.247       65.803        0.082      344.808       21.888      860.043
04/25/2013  17:24:00      107.386      170.971      -19.321      103.735      116.375       64.973    10760.981    13543.190     4221.474        3.483        1.426      201.898       63.661        0.099      344.786       21.849      860.037
04/25/2013  17:25:00       23.742      260.880      -23.692       86.468      131.621       67.399     7476.680    17324.090     4542.666        4.926        1.467      261.958       60.191        0.053      345.017       22.244      860.052
04/25/2013  17:26:00       81.340      284.123      -38.821      118.160      178.513       96.968    13961.687    31866.824     9402.756        7.203        2.762      295.537       93.321        0.100      344.835       21.934      860.071
04/25/2013  17:27:00       58.732      189.231      -21.664       92.516      148.948       63.886     8559.174    22185.569     4081.425        3.727        1.741      198.136       60.267        0.093      344.890       22.026      860.076
04/25/2013  17:28:00      163.262      316.579      -22.168      155.167      232.787      128.100    24076.723    54189.928    16409.650       11.100        4.734      356.197      131.858        0.137      344.636       21.592      860.089
04/25/2013  17:29:00       43.893      362.541      -39.827      106.461      185.944       85.837    11333.928    34575.030     7368.013        9.410        2.664      365.189      105.205        0.083      344.652       21.620      860.116
04/25/2013  17:30:00      -46.084      312.223      -30.169       66.003       92.928       46.828     4356.383     8635.563     2192.826        5.785        0.759      315.606       44.776        0.020      344.587       21.507      860.127
04/25/2013  17:31:00      -29.924      207.041      -18.480       66.940       86.362       43.226     4481.015     7458.447     1868.457        2.895        0.690      209.192       45.718        0.048      344.824       21.914      860.120
04/25/2013  17:32:00      -55.301      273.921      -25.582       80.792      116.966       59.569     6527.308    13681.118     3548.518        5.125        1.188      279.447       55.092        0.039      344.780       21.838      860.114
04/25/2013  17:33:00       52.962      212.098      -16.017       65.597      134.811       51.503     4302.914    18174.048     2652.511        3.658        1.256      218.610       47.105        0.046      344.927       22.091      860.138
04/25/2013  17:34:00      252.643      174.371       35.470      127.544       82.891       88.493    16267.474     6870.957     7831.083        6.322        1.548      306.975       43.957        0.021      344.735       21.761      860.118
04/25/2013  17:35:00      177.508      138.310       17.278      113.795       72.536       62.261    12949.403     5261.477     3876.392        3.651        1.104      225.030       34.166        0.023      344.796       21.864      860.109
04/25/2013  17:36:00       52.356      199.044      -27.330       85.953      186.080       68.714     7387.847    34625.938     4721.578        4.491        2.337      205.815       84.138        0.167      344.979       22.181      860.101
04/25/2013  17:37:00      121.127      236.481      -18.146      130.721      151.268      105.183    17088.014    22882.096    11063.512        6.097        2.552      265.697       99.959        0.142      344.870       21.992      860.140
04/25/2013  17:38:00      103.670      292.397      -22.821      101.236      166.063      100.423    10248.688    27577.082    10084.864        7.233        2.396      310.231       99.608        0.103      344.606       21.540      860.146
04/25/2013  17:39:00      120.976       96.916        7.295       98.078       85.312       73.928     9619.352     7278.152     5465.332        2.322        1.118      155.010       53.780        0.120      344.701       21.706      860.129
04/25/2013  17:40:00       65.294       99.749        6.230       91.522       61.928       60.699     8376.207     3835.065     3684.321        1.507        0.795      119.219       42.608        0.128      344.584       21.505      860.109
04/25/2013  17:41:00      190.813      208.798        0.467      148.282      140.157       99.072    21987.493    19644.057     9815.206        6.572        2.572      282.854       66.527        0.055      344.474       21.314      860.104
04/25/2013  17:42:00      140.358      208.846        5.073      129.429      165.571       95.250    16751.876    27413.603     9072.579        5.828        2.662      251.629       85.838        0.116      344.587       21.509      860.082
04/25/2013  17:43:00      400.713      253.322       31.100      150.534      125.788      102.454    22660.532    15822.535    10496.751       13.734        2.449      474.071       69.649        0.022      344.519       21.391      860.068
04/25/2013  17:44:00      401.330      258.058       41.657      177.292      146.547      107.923    31432.321    21476.170    11647.296       14.696        3.228      477.137       80.175        0.028      344.671       21.653      860.031
04/25/2013  17:45:00      437.656      280.652       52.093      173.248      141.898       99.638    30015.008    20134.946     9927.828       16.654        3.004      519.912       68.276        0.017      344.574       21.485      860.057
04/25/2013  17:46:00      147.709      246.386       -3.531      180.433      134.931       80.296    32555.921    18206.476     6447.506        6.986        2.860      287.270       91.549        0.102      344.713       21.723      860.129
04/25/2013  17:47:00       29.784      388.208      -41.283       99.065      142.126       70.845     9813.900    20199.810     5019.033        9.416        1.752      389.348       68.551        0.031      344.724       21.741      860.184
04/25/2013  17:48:00      -19.158      305.132      -23.475       78.576      127.391       72.379     6174.148    16228.351     5238.687        6.083        1.382      305.733       70.331        0.053      344.707       21.713      860.195
04/25/2013  17:49:00      -64.986      368.535      -44.608       95.698       90.091       58.779     9158.026     8116.383     3454.918        8.138        1.036      374.221       50.095        0.018      344.731       21.754      860.216
04/25/2013  17:50:00      -62.221      297.363      -41.239       64.948      108.310       38.517     4218.236    11731.057     1483.543        5.571        0.872      303.803       39.107        0.017      344.806       21.882      860.216
04/25/2013  17:51:00       28.389      130.717       -0.332       66.271       80.393       51.740     4391.826     6462.959     2677.056        1.571        0.677      133.765       43.065        0.104      344.975       22.175      860.205
04/25/2013  17:52:00       63.280      220.665      -12.436      106.572      134.625       79.825    11357.577    18123.899     6371.971        4.435        1.793      229.559       76.939        0.112      344.798       21.869      860.213
04/25/2013  17:53:00       16.655      231.032      -27.236       80.730       94.208       49.208     6517.317     8875.203     2421.393        3.610        0.891      231.631       45.237        0.038      344.765       21.813      860.215
04/25/2013  17:54:00       -2.151      264.807      -37.857       85.612      123.135       47.438     7329.366    15162.268     2250.377        4.815        1.237      264.816       51.739        0.038      344.797       21.866      860.214
04/25/2013  17:55:00      -56.651      335.740      -38.731       82.594      100.679       51.015     6821.741    10136.266     2602.516        6.849        0.978      340.486       54.952        0.026      344.712       21.722      860.235
04/25/2013  17:56:00      -88.556      205.635      -25.686       54.418       72.232       36.940     2961.348     5217.459     1364.591        3.016        0.477      223.893       29.718        0.018      344.755       21.795      860.260
04/25/2013  17:57:00      -33.401      209.013      -30.804       60.941       68.369       36.919     3713.843     4674.302     1363.040        2.775        0.488      211.665       28.763        0.018      344.685       21.676      860.251
04/25/2013  17:58:00      -54.433      198.795      -23.968       38.903       64.398       32.890     1513.434     4147.094     1081.760        2.490        0.337      206.113       28.377        0.019      344.779       21.838      860.268
04/25/2013  17:59:00     -177.795      284.203      -44.830       96.259      164.121       52.393     9265.807    26935.630     2745.055        7.666        1.947      335.235       63.771        0.036      344.647       21.611      860.287
04/25/2013  18:00:00     -130.760      223.624      -25.045       96.021      149.555       53.163     9219.946    22366.765     2826.278        5.107        1.721      259.048       59.158        0.052      344.678       21.664      860.281
04/25/2013  18:01:00      -97.966      331.837      -39.267       74.209      107.816       50.174     5506.993    11624.183     2517.390        7.045        0.982      345.996       39.523        0.013      344.631       21.584      860.293
04/25/2013  18:02:00      -73.863      326.163      -34.335       78.591      111.801       51.374     6176.555    12499.575     2639.302        6.716        1.066      334.422       52.117        0.024      344.719       21.734      860.305
04/25/2013  18:03:00     -147.457      306.218      -44.625       83.328       98.262       54.044     6943.630     9655.440     2920.722        6.851        0.976      339.872       51.404        0.023      344.766       21.814      860.332
04/25/2013  18:04:00     -157.150      409.823      -39.830       93.067      131.246       76.834     8661.437    17225.448     5903.452       11.301        1.590      438.920       74.709        0.029      344.648       21.613      860.347
04/25/2013  18:05:00     -154.108      329.566      -33.361      119.415      117.869       68.788    14259.915    13893.077     4731.742        8.317        1.644      363.817       65.395        0.032      344.665       21.642      860.372
04/25/2013  18:06:00       -6.457      193.644      -26.720       80.136      106.448       51.140     6421.708    11331.149     2615.340        2.931        1.018      193.752       44.818        0.054      344.612       21.554      860.356
04/25/2013  18:07:00      -60.794      319.144      -28.969       86.470      111.060       58.721     7477.105    12334.226     3448.206        6.482        1.163      324.883       57.583        0.031      344.684       21.674      860.364
04/25/2013  18:08:00     -158.924      249.195      -19.116      132.270      136.376       74.541    17495.284    18598.361     5556.366        6.468        2.083      295.559       82.783        0.078      344.678       21.664      860.366
04/25/2013  18:09:00     -178.753      261.545      -38.385      114.624      121.592       55.627    13138.571    14784.642     3094.326        6.642        1.551      316.794       61.158        0.037      344.578       21.493      860.364
04/25/2013  18:10:00     -227.073      296.290      -64.585      110.670      190.191       68.095    12247.942    36172.525     4636.933        9.828        2.653      373.296       65.440        0.031      344.654       21.623      860.354
04/25/2013  18:11:00     -126.256      530.559      -63.808      121.039      181.227       71.417    14650.470    32843.191     5100.391       17.704        2.630      545.374       84.765        0.024      344.496       21.353      860.374
04/25/2013  18:12:00      -93.931      539.753      -71.407      100.754      115.197       62.806    10151.405    13270.458     3944.609       16.631        1.368      547.865       59.244        0.012      344.488       21.339      860.370
04/25/2013  18:13:00      -78.581      473.226      -51.027      126.658      182.474       78.857    16042.204    33296.677     6218.491       14.413        2.778      479.706       96.304        0.040      344.528       21.408      860.342
04/25/2013  18:14:00      -97.166      270.490      -26.342      110.094      121.248       56.224    12120.736    14701.163     3161.085        5.664        1.499      287.413       45.017        0.025      344.696       21.694      860.344
04/25/2013  18:15:00     -101.937      292.548      -19.632      147.847      185.230       88.081    21858.650    34310.156     7758.217        8.013        3.196      309.799      100.319        0.105      344.708       21.714      860.362
04/25/2013  18:16:00      -80.354      255.165      -24.856       85.279      135.776       62.777     7272.444    18434.994     3940.978        5.091        1.482      267.518       74.609        0.078      344.742       21.773      860.381
04/25/2013  18:17:00     -169.559      195.185      -37.844      145.971      107.969       52.809    21307.442    11657.306     2788.756        5.201        1.788      258.549       56.193        0.047      344.735       21.762      860.373
04/25/2013  18:18:00     -177.917      206.475      -26.800      114.562      130.635       71.845    13124.506    17065.491     5161.756        5.517        1.768      272.555       64.505        0.056      344.714       21.724      860.368
04/25/2013  18:19:00     -129.616      162.188      -22.767       98.141      120.309       56.451     9631.681    14474.146     3186.761        3.545        1.365      207.618       66.287        0.102      344.771       21.825      860.375
04/25/2013  18:20:00     -214.680      219.567      -33.969      100.575      144.833       68.184    10115.235    20976.503     4649.051        6.559        1.787      307.078       63.752        0.043      344.783       21.842      860.376
04/25/2013  18:21:00      -19.880      433.837      -40.855       76.706      127.784       58.215     5883.751    16328.779     3388.974       10.794        1.280      434.292       62.381        0.021      344.642       21.600      860.412
04/25/2013  18:22:00      -70.122      420.881      -49.282       82.437       93.219       60.346     6795.837     8689.715     3641.668       10.180        0.956      426.682       53.373        0.016      344.625       21.572      860.428
04/25/2013  18:23:00      -87.362      287.163      -30.053       80.469       92.956       50.474     6475.210     8640.829     2547.604        5.433        0.883      300.158       43.841        0.021      344.649       21.613      860.438
04/25/2013  18:24:00     -178.069      283.524      -46.593      145.655      165.666       65.787    21215.397    27445.196     4327.987        8.362        2.649      334.805       67.916        0.041      344.587       21.508      860.449
04/25/2013  18:25:00     -185.372      354.050      -47.576      132.322      127.679       83.123    17509.206    16302.040     6909.400       10.134        2.036      399.643       85.490        0.046      344.582       21.499      860.441
04/25/2013  18:26:00     -184.907      438.417      -62.058      124.131      150.546       72.833    15408.587    22664.025     5304.578       13.681        2.169      475.815       74.228        0.024      344.511       21.379      860.469
04/25/2013  18:27:00     -207.744      400.628      -63.483      104.161      109.839       63.586    10849.598    12064.692     4043.137       11.732        1.348      451.288       53.473        0.014      344.474       21.314      860.474
04/25/2013  18:28:00     -220.070      465.097      -57.256      118.467      168.731       88.703    14034.362    28469.993     7868.139       15.919        2.519      514.535       84.703        0.027      344.399       21.188      860.504
04/25/2013  18:29:00     -185.260      401.927      -46.804      101.587      125.894       67.762    10319.889    15849.269     4591.673       11.440        1.538      442.568       60.984        0.019      344.382       21.157      860.500
04/25/2013  18:30:00     -107.006      445.815      -49.691      107.942      160.684       64.945    11651.399    25819.246     4217.862       12.717        2.084      458.477       76.910        0.028      344.463       21.297      860.503
04/25/2013  18:31:00      -75.877      465.933      -57.699       79.669      169.722       54.262     6347.098    28805.675     2944.341       13.213        1.905      472.070       73.646        0.024      344.434       21.246      860.507
04/25/2013  18:32:00     -115.306      510.629      -59.692      114.817      121.872       62.106    13182.895    14852.770     3857.131       15.474        1.595      523.485       64.367        0.015      344.437       21.252      860.505
04/25/2013  18:33:00      -95.722      600.239      -67.769      113.877      142.905       70.983    12967.883    20421.943     5038.616       20.623        1.921      607.824       66.074        0.012      344.412       21.209      860.509
04/25/2013  18:34:00     -172.692      368.941      -39.373      121.268      127.283       73.612    14705.858    16200.957     5418.694       10.190        1.816      407.357       66.093        0.026      344.430       21.239      860.525
04/25/2013  18:35:00     -172.402      334.159      -42.093      118.415      137.960       76.193    14022.164    19033.048     5805.364        9.100        1.943      376.012       71.129        0.036      344.430       21.239      860.533
04/25/2013  18:36:00     -134.300      374.934      -48.224      102.353      141.867       62.240    10476.215    20126.324     3873.872        9.770        1.724      398.262       60.444        0.023      344.469       21.308      860.517
04/25/2013  18:37:00     -124.723      393.161      -46.165       97.892      127.076       54.695     9582.879    16148.257     2991.594       10.049        1.436      412.470       54.983        0.018      344.460       21.290      860.512
04/25/2013  18:38:00      -49.689      290.417      -33.162       87.690       80.658       37.908     7689.468     6505.704     1437.053        5.177        0.782      294.637       34.658        0.014      344.509       21.373      860.496
04/25/2013  18:39:00      -15.629      448.854      -51.037      108.048      175.279       79.230    11674.311    30722.850     6277.368       12.649        2.434      449.126       92.340        0.042      344.483       21.330      860.514
04/25/2013  18:40:00      -21.797      337.827      -42.091       97.954      109.561       56.113     9594.948    12003.644     3148.650        7.056        1.237      338.529       49.901        0.022      344.504       21.367      860.510
04/25/2013  18:41:00      -16.352      503.221      -60.663       91.362      141.589       64.155     8347.071    20047.352     4115.810       14.484        1.626      503.487       69.118        0.019      344.490       21.342      860.532
04/25/2013  18:42:00     -159.698      350.245      -49.270      132.826      200.091       62.405    17642.771    40036.414     3894.373       10.608        3.079      384.935       63.983        0.028      344.489       21.341      860.541
04/25/2013  18:43:00     -110.363      261.295      -29.089       88.803      176.673       63.617     7885.961    31213.262     4047.139        6.222        2.157      283.646       60.452        0.045      344.482       21.328      860.544
04/25/2013  18:44:00     -102.885      305.847      -19.846       72.648      112.399       56.624     5277.790    12633.546     3206.332        6.282        1.056      322.688       47.796        0.022      344.469       21.306      860.525
04/25/2013  18:45:00     -147.557      222.499      -36.789      105.481       98.853       49.152    11126.286     9771.863     2415.872        4.797        1.166      266.981       47.029        0.031      344.591       21.514      860.529
04/25/2013  18:46:00     -127.095      226.774      -33.748      109.553      117.439       52.793    12001.757    13791.928     2787.128        4.864        1.429      259.960       47.441        0.033      344.567       21.474      860.539
04/25/2013  18:47:00     -160.454      479.550      -51.226      108.115      146.323       65.006    11688.951    21410.358     4225.793       14.782        1.866      505.682       65.774        0.017      344.419       21.220      860.538
04/25/2013  18:48:00     -196.598      207.614      -38.089      138.094      113.060       79.291    19069.934    12782.501     6287.136        6.066        1.907      285.927       67.705        0.056      344.474       21.315      860.560
04/25/2013  18:49:00     -225.453      346.887      -54.103      142.191      172.210       86.858    20218.152    29656.170     7544.361       11.574        2.871      413.714       80.762        0.038      344.408       21.201      860.573
04/25/2013  18:50:00     -141.059      305.838      -34.731      119.988      157.763       73.896    14397.199    24889.108     5460.620        7.969        2.237      336.801       83.188        0.061      344.372       21.141      860.592
04/25/2013  18:51:00     -112.726      699.182      -81.844      115.939      161.003       75.868    13441.867    25921.819     5755.949       27.668        2.256      708.211       83.292        0.014      344.326       21.064      860.592
04/25/2013  18:52:00     -133.834      469.635      -67.492      134.996      159.825       64.696    18223.831    25544.004     4185.532       14.548        2.398      488.332       57.337        0.014      344.337       21.080      860.595
04/25/2013  18:53:00      -85.808      444.396      -52.659       95.794      151.392       73.013     9176.496    22919.400     5330.938       12.252        1.871      452.605       77.116        0.029      344.316       21.044      860.600
04/25/2013  18:54:00      -72.110      433.021      -56.553       90.983      155.643       57.252     8277.922    24224.775     3277.823       11.584        1.789      438.984       59.909        0.019      344.335       21.078      860.586
04/25/2013  18:55:00     -137.371      335.832      -41.644      137.389      127.335       74.396    18875.773    16214.166     5534.789        8.700        2.031      362.842       71.513        0.039      344.350       21.101      860.591
04/25/2013  18:56:00     -231.399      295.953      -56.803      146.064      145.424       72.022    21334.756    21148.257     5187.197        9.601        2.384      375.678       78.489        0.044      344.365       21.128      860.618
04/25/2013  18:57:00     -210.981      415.320      -60.126      114.260      153.211       65.885    13055.246    23473.619     4340.888       13.074        2.043      465.837       72.239        0.024      344.318       21.049      860.614
04/25/2013  18:58:00     -155.773      310.891      -44.369       88.776      122.082       68.812     7881.121    14904.000     4735.053        7.520        1.376      347.734       64.358        0.034      344.326       21.062      860.621
04/25/2013  18:59:00      -86.343      302.994      -26.789      117.676      176.999       70.256    13847.655    31328.698     4935.930        7.504        2.506      315.056       67.669        0.046      344.323       21.056      860.627
04/25/2013  19:00:00     -107.216      374.027      -36.968      110.572      190.204       61.518    12226.274    36177.686     3784.455       10.246        2.609      389.091       84.687        0.047      344.317       21.048      860.624
04/25/2013  19:01:00     -145.072      374.792      -48.395      133.347      144.520       84.574    17781.396    20886.076     7152.845       10.483        2.291      401.890       86.744        0.047      344.287       20.996      860.652
04/25/2013  19:02:00     -188.399      381.945      -46.648      138.277      130.839       73.828    19120.605    17118.721     5450.595       11.261        2.084      425.882       81.802        0.037      344.278       20.980      860.664
04/25/2013  19:03:00      -73.816      406.131      -49.240       75.384      164.063       50.975     5682.817    26916.586     2598.485       10.400        1.760      412.785       52.648        0.016      344.284       20.991      860.687
04/25/2013  19:04:00     -194.956      255.913      -56.942       97.082      113.402       51.993     9424.909    12860.086     2703.229        6.586        1.249      321.713       57.353        0.032      344.296       21.012      860.695
04/25/2013  19:05:00     -192.580      230.464      -55.723      114.434       90.323       53.066    13095.128     8158.252     2816.015        5.868        1.203      300.334       62.030        0.043      344.326       21.061      860.708
04/25/2013  19:06:00     -119.903      247.876      -37.323       91.023       90.559       37.486     8285.113     8201.017     1405.196        4.755        0.895      275.353       31.284        0.013      344.299       21.015      860.711
04/25/2013  19:07:00      -88.994      248.184      -30.544       93.979      103.983       60.638     8832.104    10812.556     3676.972        4.688        1.166      263.657       52.708        0.040      344.289       20.998      860.727
04/25/2013  19:08:00     -152.640      175.660      -23.631      116.758       95.948       58.283    13632.436     9205.949     3396.948        4.047        1.312      232.713       67.063        0.083      344.301       21.018      860.727
04/25/2013  19:09:00     -202.698      252.349      -52.082      126.423      118.222       66.893    15982.750    13976.449     4474.632        7.095        1.722      323.677       72.453        0.050      344.324       21.058      860.743
04/25/2013  19:10:00     -108.078      274.877      -15.129       66.781      114.139       57.451     4459.689    13027.796     3300.647        5.412        1.039      295.361       47.463        0.026      344.255       20.941      860.743
04/25/2013  19:11:00      -86.401      173.576      -11.436      108.232      107.198       55.821    11714.125    11491.443     3115.978        3.202        1.316      193.891       56.513        0.085      344.282       20.988      860.761
04/25/2013  19:12:00      -81.294      334.490      -40.864      156.170      198.587       61.469    24389.201    39436.792     3778.449        9.387        3.380      344.227       71.161        0.043      344.252       20.937      860.770
04/25/2013  19:13:00      -89.535      246.589      -25.923       91.553      118.817       54.094     8381.985    14117.583     2926.164        4.746        1.271      262.341       54.383        0.043      344.245       20.925      860.799
04/25/2013  19:14:00     -124.114      232.083      -31.942       95.368      152.897       58.132     9095.120    23377.454     3379.327        5.306        1.793      263.185       65.716        0.062      344.250       20.931      860.820
04/25/2013  19:15:00     -131.208      326.573      -42.468      126.488      130.200       56.822    15999.279    16952.138     3228.767        8.092        1.809      351.945       65.095        0.034      344.227       20.893      860.826
04/25/2013  19:16:00      -61.420      434.682      -58.216       58.960       94.067       42.863     3476.297     8848.633     1837.259       10.513        0.708      439.000       36.169        0.007      344.223       20.887      860.833
04/25/2013  19:17:00     -100.149      272.623      -34.552       58.070      119.696       42.190     3372.171    14327.163     1779.966        5.251        0.974      290.436       43.865        0.023      344.209       20.859      860.846
04/25/2013  19:18:00     -139.826      161.563      -35.183       76.181       90.467       49.757     5803.588     8184.300     2475.767        3.167        0.823      213.668       47.715        0.050      344.232       20.902      860.850
04/25/2013  19:19:00     -135.022      161.984      -25.148       52.601       64.898       42.963     2766.889     4211.731     1845.857        2.696        0.441      210.878       34.806        0.027      344.246       20.925      860.863
04/25/2013  19:20:00     -159.987      212.896      -32.412       86.931      127.858       58.251     7556.987    16347.756     3393.122        4.963        1.365      266.309       55.281        0.043      344.234       20.906      860.889
04/25/2013  19:21:00     -190.404      150.383      -40.962       96.367       79.280       44.692     9286.537     6285.348     1997.334        3.905        0.878      242.629       53.856        0.049      344.252       20.937      860.927
04/25/2013  19:22:00     -156.196      101.817      -19.704       87.318       84.395       50.100     7624.481     7122.503     2509.979        2.620        0.863      186.450       38.688        0.043      344.236       20.910      860.941
04/25/2013  19:23:00     -121.463       53.684      -32.342       69.735       55.131       36.349     4863.036     3039.426     1321.257        1.395        0.461      132.798       21.449        0.026      344.163       20.785      860.951
04/25/2013  19:24:00      -60.753      100.119      -10.777       58.630       82.004       39.909     3437.512     6724.617     1592.727        1.279        0.588      117.110       32.473        0.077      344.080       20.646      860.980
04/25/2013  19:25:00      -70.499      115.561       -2.916       48.032       71.527       34.122     2307.065     5116.055     1164.284        1.346        0.429      135.368       32.483        0.058      344.010       20.524      861.003
04/25/2013  19:26:00     -173.181      -77.579      -15.625      124.953       62.160       39.455    15613.151     3863.891     1556.681        2.864        1.052      189.763       35.581        0.035      344.047       20.587      861.007
04/25/2013  19:27:00     -201.490      -47.780       -1.138       85.527       61.237       42.824     7314.797     3750.008     1833.923        2.789        0.645      207.078       43.255        0.044      343.929       20.384      861.002
04/25/2013  19:28:00     -225.447      -67.466      -15.782       91.130       80.515       40.031     8304.697     6482.645     1602.516        3.601        0.819      235.325       46.409        0.039      343.877       20.296      861.021
04/25/2013  19:29:00     -199.961      -73.920       -0.834       80.731       73.271       41.589     6517.428     5368.653     1729.649        2.953        0.681      213.187       42.669        0.040      343.839       20.231      861.051
04/25/2013  19:30:00     -115.790       42.073        3.925       98.199       96.661       49.773     9643.114     9343.378     2477.307        1.832        1.073      123.197       57.217        0.216      343.833       20.222      861.041
04/25/2013  19:31:00     -149.389      -10.888       -3.827       71.956      105.634       48.112     5177.713    11158.547     2314.805        2.055        0.933      149.786       39.662        0.070      343.926       20.380      861.058
04/25/2013  19:32:00      -64.462      -41.695       11.610       67.539       43.546       30.312     4561.540     1896.211      918.835        0.670        0.369       76.771       30.531        0.158      343.838       20.233      861.075
04/25/2013  19:33:00      -99.934      -56.721        5.585       61.476       33.679       27.125     3779.333     1134.250      735.791        0.944        0.282      114.909       32.914        0.082      343.913       20.360      861.078
04/25/2013  19:34:00     -115.047      -94.379       -1.079      111.920       53.298       43.168    12526.097     2840.660     1863.445        1.968        0.862      148.806       51.994        0.122      343.882       20.304      861.100
04/25/2013  19:35:00     -107.155       22.251       -2.920       64.354       70.557       29.141     4141.477     4978.307      849.197        1.098        0.498      109.441       27.007        0.061      343.788       20.145      861.107
04/25/2013  19:36:00     -258.607       -4.416      -11.403      140.362      107.745       56.486    19701.537    11609.056     3190.666        5.076        1.725      258.645       56.478        0.048      343.798       20.161      861.107
04/25/2013  19:37:00     -214.332      -68.734       -3.033      119.982       93.462       60.598    14395.658     8735.206     3672.121        3.873        1.340      225.084       59.573        0.070      343.785       20.139      861.107
04/25/2013  19:38:00     -250.297     -137.529      -20.775       90.094       79.545       52.675     8116.986     6327.458     2774.656        4.960        0.861      285.592       48.231        0.029      343.778       20.127      861.106
04/25/2013  19:39:00     -161.376      -66.498        3.587       92.339       75.939       50.563     8526.426     5766.793     2556.633        2.366        0.842      174.540       47.235        0.073      343.727       20.040      861.104
04/25/2013  19:40:00     -112.590      -54.692        5.544       81.371       65.000       39.917     6621.221     4225.007     1593.340        1.407        0.622      125.171       39.277        0.098      343.732       20.049      861.098
04/25/2013  19:41:00     -223.057     -112.167       -0.290      149.635       86.503       57.490    22390.694     7482.721     3305.144        4.775        1.659      249.671       69.269        0.077      343.694       19.981      861.091
04/25/2013  19:42:00     -210.243     -149.460       -6.165      138.717       93.574       58.449    19242.499     8756.113     3416.280        4.899        1.571      257.954       58.170        0.051      343.702       19.994      861.088
04/25/2013  19:43:00     -319.077     -107.597      -15.349      119.413       84.982       46.921    14259.354     7221.921     2201.547        6.865        1.184      336.730       46.248        0.019      343.684       19.965      861.103
04/25/2013  19:44:00     -193.491      -57.684       -6.924      139.971       73.888       55.139    19591.900     5459.404     3040.263        3.445        1.405      201.906       69.802        0.120      343.616       19.849      861.117
04/25/2013  19:45:00     -289.052      -87.442       -8.641      155.185      158.017       70.473    24082.472    24969.512     4966.455        7.263        2.701      301.988       74.174        0.060      343.643       19.897      861.137
04/25/2013  19:46:00     -200.800     -133.495       -3.354      144.461      131.617       68.997    20868.968    17322.920     4760.641        5.054        2.148      241.125       73.552        0.093      343.642       19.894      861.163
04/25/2013  19:47:00     -292.731      -90.428      -20.829      151.304      127.051       78.720    22892.774    16142.079     6196.835        6.976        2.262      306.380       94.485        0.095      343.663       19.930      861.182
04/25/2013  19:48:00     -137.723      -44.259       -3.521      123.693       61.783       54.888    15300.068     3817.119     3012.692        2.153        1.106      144.660       54.187        0.140      343.596       19.818      861.207
04/25/2013  19:49:00     -282.208      -36.261      -16.405      119.806       98.765       57.055    14353.574     9754.569     3255.296        5.429        1.368      284.528       59.705        0.044      343.630       19.872      861.229
04/25/2013  19:50:00     -245.973      -56.687        8.654      135.519       83.979       58.562    18365.455     7052.434     3429.563        4.631        1.442      252.420       61.805        0.060      343.540       19.719      861.252
04/25/2013  19:51:00     -289.661      -58.742       -5.267      117.709       69.709       55.277    13855.377     4859.318     3055.591        5.457        1.089      295.557       54.396        0.034      343.594       19.813      861.268
04/25/2013  19:52:00     -253.823      -15.404       -9.607       99.266       74.336       49.099     9853.681     5525.811     2410.712        4.127        0.890      254.290       52.054        0.042      343.538       19.718      861.288
04/25/2013  19:53:00     -223.318      -60.629      -15.719       79.749       54.956       39.242     6359.849     3020.151     1539.922        3.235        0.546      231.402       37.010        0.026      343.534       19.709      861.300
04/25/2013  19:54:00     -313.087      -70.608       -9.256       64.063       77.701       37.193     4104.077     6037.483     1383.309        5.731        0.576      320.951       33.078        0.011      343.520       19.685      861.312
04/25/2013  19:55:00     -285.955      -77.828       -7.826      145.723      136.418       63.156    21235.084    18609.975     3988.620        6.585        2.192      296.357       76.581        0.067      343.510       19.668      861.323
04/25/2013  19:56:00     -267.415      -60.912      -15.893      105.825       87.252       45.471    11198.981     7612.905     2067.606        4.817        1.044      274.265       47.182        0.030      343.461       19.586      861.333
04/25/2013  19:57:00     -147.703      -48.622        5.166      110.895       77.494       51.072    12297.730     6005.303     2608.385        2.255        1.046      155.500       57.054        0.135      343.391       19.467      861.352
04/25/2013  19:58:00     -288.652      -49.364       -9.540      132.047      118.036       60.130    17436.375    13932.536     3615.648        6.041        1.749      292.842       46.356        0.025      343.415       19.507      861.392
04/25/2013  19:59:00     -302.601      -44.954       -1.918      128.177      108.059       67.044    16429.392    11676.789     4494.874        6.309        1.630      305.922       66.219        0.047      343.398       19.478      861.399
04/25/2013  20:00:00     -303.925       -9.892       -3.921      115.012      111.977       62.445    13227.724    12538.759     3899.364        6.107        1.483      304.086       60.503        0.040      343.371       19.430      861.417
04/25/2013  20:01:00     -435.930       -4.981      -16.030      159.519      154.870       66.581    25446.451    23984.718     4433.087       12.208        2.693      435.959       74.823        0.029      343.406       19.492      861.410
04/25/2013  20:02:00     -270.827      -21.051      -11.778      174.352      127.757       70.008    30398.644    16321.858     4901.114        6.277        2.581      271.644       78.214        0.083      343.341       19.382      861.413
04/25/2013  20:03:00     -380.349     -110.320       -0.824      183.414      143.335       76.056    33640.534    20544.907     5784.541       10.839        2.998      396.025       85.813        0.047      343.313       19.335      861.443
04/25/2013  20:04:00     -295.454     -148.384       -0.734      215.208      131.820       84.045    46314.684    17376.485     7063.607        9.002        3.538      330.622       85.312        0.067      343.320       19.345      861.454
04/25/2013  20:05:00     -384.069      -71.466      -11.588      151.045      148.372       79.985    22814.661    22014.126     6397.677       10.198        2.561      390.661       82.399        0.044      343.352       19.400      861.471
04/25/2013  20:06:00     -391.581      -21.026      -24.186      182.513      138.989       84.087    33310.972    19318.004     7070.596       10.702        2.985      392.145       87.320        0.050      343.343       19.385      861.473
04/25/2013  20:07:00     -199.861     -164.185        2.635      128.728      109.924       73.200    16570.772    12083.354     5358.173        5.045        1.701      258.653       66.636        0.066      343.347       19.393      861.490
04/25/2013  20:08:00     -209.038     -110.092        7.853      138.575       94.209       61.676    19203.134     8875.263     3803.884        4.387        1.594      236.256       80.842        0.117      343.293       19.299      861.526
04/25/2013  20:09:00     -312.899     -118.823      -20.167      189.031      109.416       67.342    35732.754    11971.957     4534.947        8.233        2.612      334.701       67.357        0.040      343.305       19.319      861.537
04/25/2013  20:10:00     -464.238      -42.408      -25.171      199.538      137.938       77.785    39815.325    19027.007     6050.437       14.141        3.245      466.171       95.970        0.042      343.273       19.264      861.547
04/25/2013  20:11:00     -410.449     -109.529      -27.779      172.884      154.185       83.150    29888.770    23773.076     6913.928       12.089        3.029      424.812       93.164        0.048      343.224       19.180      861.555
04/25/2013  20:12:00     -443.549      -85.040      -19.469      206.464      149.434       79.103    42627.534    22330.665     6257.217       13.777        3.561      451.628       85.954        0.036      343.204       19.145      861.559
04/25/2013  20:13:00     -285.195     -102.502       -4.297      156.410      142.297       65.230    24464.032    20248.425     4254.951        7.040        2.448      303.056       78.379        0.067      343.177       19.102      861.593
04/25/2013  20:14:00     -207.976     -124.551       -5.802      123.271      126.740       67.879    15195.688    16063.134     4607.540        4.733        1.793      242.419       70.437        0.084      343.182       19.111      861.631
04/25/2013  20:15:00     -158.417      -69.832       -3.882      138.025       83.596       55.590    19050.808     6988.300     3090.295        2.955        1.456      173.126       64.643        0.139      343.166       19.085      861.655
04/25/2013  20:16:00     -372.730     -159.871       -8.411      141.009      104.065       57.695    19883.615    10829.459     3328.694        9.929        1.702      405.569       62.905        0.024      343.186       19.115      861.673
04/25/2013  20:17:00     -228.662      -76.233      -10.752       91.648       74.025       46.414     8399.390     5479.634     2154.230        3.712        0.802      241.035       39.696        0.027      343.180       19.107      861.702
04/25/2013  20:18:00     -211.663     -129.624       -9.650      126.893      102.675       64.431    16101.816    10542.241     4151.325        4.624        1.540      248.201       64.818        0.068      343.139       19.037      861.714
04/25/2013  20:19:00     -238.737      -55.480      -14.830      104.282       76.056       44.121    10874.809     5784.585     1946.626        3.945        0.930      245.099       39.356        0.026      343.135       19.032      861.732
04/25/2013  20:20:00     -232.871      -33.440      -11.448      103.724       75.757       43.407    10758.743     5739.108     1884.208        3.693        0.919      235.260       39.486        0.028      343.080       18.936      861.745
04/25/2013  20:21:00     -317.879      -69.194      -19.726      162.311      171.682       69.435    26344.780    29474.825     4821.204        8.342        3.032      325.323       56.093        0.030      343.059       18.901      861.773
04/25/2013  20:22:00     -337.202      -72.551      -21.445      157.777      105.375       65.165    24893.679    11103.994     4246.473        7.983        2.012      344.918       75.097        0.047      343.041       18.870      861.796
04/25/2013  20:23:00     -363.625      -61.437      -19.273      167.861      137.601       74.475    28177.402    18934.162     5546.530        9.450        2.633      368.778       79.994        0.047      343.001       18.800      861.815
04/25/2013  20:24:00     -341.454      -42.585       -8.629      119.443      101.785       63.908    14266.698    10360.118     4084.248        7.359        1.436      344.099       60.363        0.031      342.992       18.786      861.839
04/25/2013  20:25:00      -97.802        4.861       25.755       99.152      102.855       56.307     9831.176    10579.189     3170.466        1.691        1.179       97.922       48.794        0.248      342.968       18.748      861.860
04/25/2013  20:26:00     -239.859      -28.547       -3.429      140.736      108.645       70.129    19806.558    11803.656     4918.094        4.744        1.826      241.552       79.035        0.107      342.980       18.766      861.874
04/25/2013  20:27:00     -325.636      -33.383      -32.262      104.168      104.562       52.346    10850.926    10933.126     2740.144        6.635        1.226      327.342       51.200        0.024      342.982       18.770      861.895
04/25/2013  20:28:00     -321.382      -76.815       -8.440       95.475       81.527       56.643     9115.408     6646.676     3208.444        6.411        0.949      330.434       50.242        0.023      342.946       18.708      861.910
04/25/2013  20:29:00     -313.090      -75.546      -19.631      104.970       99.844       55.336    11018.793     9968.883     3062.069        6.408        1.202      322.076       59.477        0.034      342.902       18.634      861.933
04/25/2013  20:30:00     -200.964        3.688        0.227      135.496      106.559       60.567    18359.102    11354.860     3668.303        3.688        1.669      200.998       64.877        0.104      342.846       18.539      861.939
04/25/2013  20:31:00     -376.274     -109.883      -18.248      109.793      123.902       62.003    12054.612    15351.691     3844.316        9.261        1.563      391.990       48.980        0.016      342.903       18.635      861.947
04/25/2013  20:32:00     -250.851      -87.705       -4.528      171.345       98.039       62.147    29359.186     9611.668     3862.305        5.673        2.142      265.742       78.201        0.087      342.828       18.510      861.960
04/25/2013  20:33:00     -274.716      -29.527       -2.303      147.619       96.170       50.916    21791.412     9248.754     2592.466        5.498        1.682      276.298       63.063        0.052      342.770       18.410      861.984
04/25/2013  20:34:00     -407.090      -53.525      -15.952      147.725      106.965       72.442    21822.761    11441.466     5247.894       10.367        1.926      410.593       75.977        0.034      342.815       18.486      862.000
04/25/2013  20:35:00     -450.756     -141.456      -26.747      164.216      133.541       77.852    26966.871    17833.180     6060.941       13.737        2.543      472.431       85.898        0.033      342.862       18.565      862.020
04/25/2013  20:36:00     -229.603       13.053       -1.582      145.315       93.402       64.356    21116.542     8723.960     4141.756        4.343        1.699      229.974       67.758        0.087      342.782       18.428      862.057
04/25/2013  20:37:00     -253.732      -53.380       -1.395       97.660       96.093       58.230     9537.556     9233.950     3390.772        4.469        1.108      259.286       54.938        0.045      342.787       18.438      862.080
04/25/2013  20:38:00     -213.581       -2.908       -3.148      120.557      110.662       61.160    14533.947    12246.178     3740.510        3.807        1.526      213.601       64.276        0.091      342.759       18.390      862.096
04/25/2013  20:39:00     -190.409      -33.443        4.884      107.809       96.807       56.974    11622.812     9371.578     3246.026        3.081        1.212      193.323       55.264        0.082      342.787       18.439      862.107
04/25/2013  20:40:00     -246.478      -42.383       -7.687      111.865       83.413       50.410    12513.678     6957.736     2541.192        4.231        1.101      250.096       51.083        0.042      342.756       18.385      862.115
04/25/2013  20:41:00     -249.570      -22.876       -5.721      126.471       93.808       49.317    15994.913     8799.972     2432.151        4.503        1.361      250.616       48.496        0.037      342.711       18.308      862.131
04/25/2013  20:42:00     -263.799      -27.908      -13.365       99.197       85.081       49.634     9840.060     7238.842     2463.512        4.504        0.977      265.271       42.901        0.026      342.694       18.280      862.146
04/25/2013  20:43:00     -306.900      -71.632      -12.762      102.009      101.124       55.502    10405.930    10226.004     3080.437        6.159        1.186      315.149       52.896        0.028      342.736       18.349      862.166
04/25/2013  20:44:00     -289.339      -61.999      -11.485      125.312      119.044       57.765    15702.974    14171.490     3336.771        6.045        1.661      295.907       61.540        0.043      342.708       18.303      862.200
04/25/2013  20:45:00     -298.092      -96.552       -5.697      164.442       97.440       63.926    27041.022     9494.617     4086.489        6.941        2.031      313.339       75.640        0.058      342.727       18.336      862.196
04/25/2013  20:46:00     -235.072     -113.555      -12.016      103.620       98.809       46.542    10737.126     9763.208     2166.121        4.548        1.133      261.063       47.915        0.034      342.748       18.371      862.215
04/25/2013  20:47:00     -224.562      -41.729      -11.152      135.043      103.500       60.900    18236.576    10712.165     3708.777        4.247        1.633      228.406       60.141        0.069      342.759       18.389      862.218
04/25/2013  20:48:00     -200.547      -43.070        3.418      109.589       99.222       58.443    12009.841     9845.099     3415.623        3.367        1.264      205.120       64.859        0.100      342.739       18.358      862.233
04/25/2013  20:49:00     -254.831      -19.077       -2.553      120.254       94.019       64.753    14460.977     8839.556     4192.919        4.640        1.375      255.544       71.330        0.078      342.658       18.218      862.261
04/25/2013  20:50:00     -334.099      -49.876      -24.219      116.844      121.729       56.449    13652.610    14817.925     3186.473        7.317        1.583      337.802       56.560        0.028      342.628       18.167      862.285
04/25/2013  20:51:00     -322.479      -82.714      -19.502       92.307       80.373       50.824     8520.532     6459.743     2583.031        6.439        0.878      332.918       48.147        0.021      342.628       18.167      862.305
04/25/2013  20:52:00     -272.244      -89.896       -3.830      123.923       73.464       46.694    15356.807     5396.987     2180.315        5.257        1.147      286.703       42.338        0.022      342.636       18.181      862.313
04/25/2013  20:53:00     -276.493      -32.019       -8.256      131.982       96.883       57.986    17419.183     9386.277     3362.375        5.385        1.508      278.341       54.804        0.039      342.586       18.096      862.330
04/25/2013  20:54:00     -326.797     -115.345       -4.358      113.525       94.381       54.435    12887.901     8907.814     2963.208        7.243        1.238      346.555       48.887        0.020      342.572       18.073      862.338
04/25/2013  20:55:00     -420.131      -22.620      -36.132      123.553      102.284       68.321    15265.418    10461.983     4667.715       10.436        1.520      420.740       74.180        0.031      342.544       18.023      862.363
04/25/2013  20:56:00     -242.735      -42.175      -10.060      179.330       83.211       58.501    32159.315     6924.135     3422.355        5.164        2.125      246.372       74.437        0.091      342.488       17.930      862.380
04/25/2013  20:57:00     -152.317       -5.618       14.136      126.770       76.294       64.178    16070.731     5820.777     4118.795        2.472        1.301      152.421       73.564        0.233      342.429       17.829      862.390
04/25/2013  20:58:00     -147.939      -46.858        3.956      112.584       89.156       58.338    12675.075     7948.834     3403.334        2.406        1.201      155.183       58.958        0.144      342.399       17.781      862.398
04/25/2013  20:59:00     -210.054      -32.692       -7.566      101.550       80.259       45.282    10312.423     6441.507     2050.443        3.202        0.940      212.582       48.751        0.053      342.482       17.921      862.421
04/25/2013  21:00:00     -202.459      -53.239        5.819      101.386       89.146       51.908    10279.148     7947.098     2694.418        3.239        1.046      209.342       51.560        0.061      342.433       17.835      862.445
04/25/2013  21:01:00     -267.393      -50.372      -16.207      123.183      104.577       51.974    15173.974    10936.252     2701.345        5.155        1.441      272.096       46.354        0.029      342.478       17.914      862.451
04/25/2013  21:02:00     -262.981      -36.366      -13.824      122.453       96.296       53.077    14994.785     9272.895     2817.117        4.887        1.354      265.483       53.937        0.041      342.456       17.875      862.469
04/25/2013  21:03:00     -168.766      -27.239      -21.336      117.039       81.961       50.977    13698.016     6717.545     2598.615        2.634        1.151      170.950       52.522        0.094      342.456       17.875      862.489
04/25/2013  21:04:00     -166.375      -59.254      -18.398       89.648       49.362       36.662     8036.807     2436.585     1344.131        2.167        0.591      176.612       27.024        0.023      342.411       17.798      862.496
04/25/2013  21:05:00     -175.119      -73.705      -14.310       83.620       76.264       39.708     6992.381     5816.219     1576.714        2.534        0.719      189.997       30.327        0.025      342.373       17.734      862.509
04/25/2013  21:06:00     -181.159      -30.270        3.165       90.371      108.203       51.485     8166.938    11707.965     2650.667        2.813        1.126      183.670       44.399        0.058      342.309       17.626      862.534
04/25/2013  21:07:00     -353.043      -41.957      -19.039      119.242       97.021       49.244    14218.670     9413.092     2425.012        7.640        1.303      355.528       58.827        0.027      342.362       17.715      862.547
04/25/2013  21:08:00     -334.312     -123.569      -14.140      122.571       86.948       54.274    15023.650     7559.966     2945.638        7.638        1.276      356.418       58.104        0.027      342.343       17.682      862.563
04/25/2013  21:09:00     -185.712      -35.197        9.114      120.348      134.227       65.787    14483.686    18016.955     4327.915        3.631        1.841      189.018       71.844        0.144      342.302       17.614      862.578
04/25/2013  21:10:00     -271.334      -86.910        1.835      154.275      118.496       68.878    23800.775    14041.305     4744.220        6.187        2.129      284.913       80.366        0.080      342.294       17.600      862.587
04/25/2013  21:11:00     -262.668      -71.481      -10.169      122.692      111.686       52.083    15053.217    12473.789     2712.594        5.222        1.512      272.220       52.285        0.037      342.291       17.596      862.598
04/25/2013  21:12:00     -299.162     -110.835      -10.923      145.515      126.090       65.354    21174.717    15898.690     4271.133        7.161        2.067      319.033       58.398        0.034      342.311       17.628      862.624
04/25/2013  21:13:00     -370.455      -37.685      -28.217      100.501      104.381       51.874    10100.448    10895.374     2690.934        8.157        1.184      372.367       40.662        0.012      342.301       17.612      862.650
04/25/2013  21:14:00     -266.438     -116.314      -19.460      113.899       94.433       62.840    12972.925     8917.564     3948.810        5.536        1.292      290.720       48.634        0.028      342.269       17.559      862.670
04/25/2013  21:15:00     -332.327       16.142      -25.012      133.013       95.837       61.294    17692.568     9184.789     3756.983        7.097        1.532      332.719       66.849        0.040      342.275       17.568      862.687
04/25/2013  21:16:00     -329.718      -59.891      -20.597      114.550       71.601       56.758    13121.681     5126.768     3221.525        6.709        1.073      335.113       57.978        0.030      342.276       17.569      862.703
04/25/2013  21:17:00     -308.983      -21.166       -6.957      146.642       99.622       65.736    21503.734     9924.600     4321.213        6.585        1.787      309.707       76.255        0.061      342.218       17.471      862.729
04/25/2013  21:18:00     -307.252      -94.789      -10.765      108.813      101.161       60.146    11840.284    10233.646     3617.594        6.459        1.285      321.541       64.324        0.040      342.238       17.506      862.729
04/25/2013  21:19:00     -248.473      -86.405        0.586      133.499       90.217       61.080    17822.114     8139.044     3730.746        4.944        1.485      263.068       58.550        0.050      342.225       17.483      862.737
04/25/2013  21:20:00     -309.503     -106.233      -28.077      142.000       83.392       56.874    20164.130     6954.229     3234.697        6.910        1.518      327.227       61.980        0.036      342.247       17.518      862.740
04/25/2013  21:21:00     -352.336      -95.402        5.257      163.373      101.916       68.351    26690.605    10386.852     4671.925        8.750        2.087      365.023       77.621        0.045      342.209       17.456      862.746
04/25/2013  21:22:00     -262.115      -25.600      -17.317      108.518       88.628       55.181    11776.166     7854.970     3044.907        4.616        1.134      263.362       53.648        0.041      342.208       17.453      862.768
04/25/2013  21:23:00     -299.980      -70.876       -4.061      147.965       95.060       58.383    21893.730     9036.348     3408.615        6.468        1.717      308.239       70.461        0.052      342.208       17.455      862.796
04/25/2013  21:24:00     -242.059      -13.176      -12.879      116.338       96.765       48.218    13534.562     9363.390     2324.993        4.207        1.261      242.417       55.339        0.052      342.173       17.395      862.810
04/25/2013  21:25:00     -357.407      -77.958      -13.121      102.789      114.979       60.033    10565.494    13220.209     3603.998        8.068        1.369      365.811       54.050        0.022      342.213       17.462      862.819
04/25/2013  21:26:00     -395.365      -79.116      -21.034      110.061       99.179       56.443    12113.455     9836.381     3185.830        9.407        1.257      403.203       51.167        0.016      342.201       17.442      862.839
04/25/2013  21:27:00     -240.567      -26.449        2.442      126.290      100.890       55.468    15949.201    10178.692     3076.728        4.389        1.460      242.016       67.948        0.079      342.164       17.380      862.853
04/25/2013  21:28:00     -244.162      -64.015       -1.808       94.141      112.517       50.529     8862.493    12660.128     2553.169        4.389        1.204      252.415       47.091        0.035      342.173       17.393      862.858
04/25/2013  21:29:00     -233.508      -43.388       -5.495      109.236       80.724       52.389    11932.512     6516.361     2744.600        3.881        1.060      237.504       53.152        0.050      342.159       17.371      862.885
04/25/2013  21:30:00     -234.475      -68.022       -4.597      115.566       84.434       43.151    13355.453     7129.033     1861.993        4.098        1.117      244.142       47.510        0.038      342.169       17.388      862.896
04/25/2013  21:31:00     -229.013      -44.658      -19.513      105.114       69.996       44.813    11048.853     4899.438     2008.211        3.639        0.898      233.327       45.162        0.037      342.132       17.325      862.905
04/25/2013  21:32:00     -213.993     -160.876      -10.105      103.856       85.473       53.545    10786.022     7305.606     2867.028        4.636        1.048      267.721       52.534        0.039      342.114       17.295      862.904
04/25/2013  21:33:00     -288.572     -101.535      -21.614      126.874      111.579       58.987    16096.994    12449.877     3479.455        6.303        1.601      305.914       61.584        0.041      342.154       17.362      862.927
04/25/2013  21:34:00     -338.332      -66.322       -7.366      153.168      118.289       69.443    23460.523    13992.171     4822.375        8.059        2.114      344.771       76.524        0.049      342.152       17.359      862.940
04/25/2013  21:35:00     -184.738       -5.639       -4.903       85.322       81.910       44.894     7279.847     6709.176     2015.470        2.509        0.800      184.825       31.442        0.029      342.143       17.344      862.936
04/25/2013  21:36:00     -309.731      -69.343       -8.112      178.815      112.910       78.056    31974.682    12748.625     6092.757        7.580        2.541      317.398       85.285        0.072      342.175       17.397      862.932
04/25/2013  21:37:00     -265.137      -93.677       -8.009      124.876      123.249       57.717    15593.919    15190.267     3331.234        5.662        1.706      281.199       57.693        0.042      342.172       17.393      862.941
04/25/2013  21:38:00     -225.002      -55.208       -9.623      126.088       87.779       60.232    15898.234     7705.205     3627.868        4.049        1.362      231.677       67.530        0.085      342.147       17.352      862.963
04/25/2013  21:39:00     -273.679      -41.802       -3.737      142.039       94.514       62.976    20175.064     8932.889     3966.034        5.486        1.654      276.853       66.955        0.058      342.154       17.362      862.961
04/25/2013  21:40:00     -261.856      -52.472       -1.628      128.762       96.820       58.385    16579.693     9374.034     3408.750        5.034        1.468      267.061       62.388        0.055      342.148       17.353      862.963
04/25/2013  21:41:00     -141.427      -22.899       -0.413       60.825       76.540       45.784     3699.700     5858.445     2096.194        1.609        0.583      143.269       40.475        0.080      342.169       17.389      862.977
04/25/2013  21:42:00     -242.027      -98.387      -16.980      145.181       93.274       53.265    21077.584     8700.105     2837.108        5.057        1.631      261.260       59.690        0.052      342.235       17.500      862.984
04/25/2013  21:43:00     -406.731      -71.118      -26.872      129.840       96.978       63.683    16858.491     9404.722     4055.508       10.076        1.516      412.902       56.445        0.019      342.222       17.477      863.008
04/25/2013  21:44:00     -265.884      -53.423       -7.999      130.064       64.587       50.922    16916.592     4171.514     2593.094        4.864        1.184      271.198       65.049        0.058      342.173       17.393      863.039
04/25/2013  21:45:00     -330.514      -45.776      -23.308      133.189       74.269       49.342    17739.266     5515.864     2434.598        6.878        1.284      333.669       58.024        0.030      342.163       17.377      863.061
04/25/2013  21:46:00     -308.298      -51.818      -17.992       94.716       98.251       51.115     8971.153     9653.197     2612.778        5.964        1.062      312.622       49.666        0.025      342.158       17.368      863.076
04/25/2013  21:47:00     -169.811      -69.519       -2.043      101.587       93.272       42.107    10319.862     8699.582     1772.984        2.723        1.040      183.490       49.150        0.072      342.125       17.313      863.096
04/25/2013  21:48:00     -228.617      -58.145      -19.338       80.567       77.676       48.109     6490.996     6033.494     2314.516        3.543        0.742      235.895       43.464        0.034      342.132       17.325      863.101
04/25/2013  21:49:00     -142.667      -34.091      -12.349      101.287       94.902       45.873    10259.136     9006.419     2104.360        2.152        1.068      146.684       40.804        0.077      342.094       17.263      863.115
04/25/2013  21:50:00     -358.745      -47.519      -30.603      143.068       87.574       51.760    20468.494     7669.256     2679.058        8.135        1.541      361.878       63.057        0.030      342.107       17.282      863.110
04/25/2013  21:51:00     -247.892      -31.223      -20.815      102.725       94.808       49.010    10552.437     8988.468     2401.939        4.240        1.097      249.851       48.171        0.037      342.107       17.282      863.126
04/25/2013  21:52:00     -288.616      -42.575      -32.264      140.349      104.374       54.819    19697.937    10894.001     3005.170        5.987        1.680      291.739       56.711        0.038      342.136       17.332      863.108
04/25/2013  21:53:00     -169.157       -1.244       -6.060      106.355       83.376       46.747    11311.478     6951.567     2185.279        2.455        1.022      169.161       53.559        0.100      342.127       17.317      863.104
04/25/2013  21:54:00     -232.084      -15.413       -8.743       80.458       73.255       45.552     6473.420     5366.346     2074.944        3.404        0.696      232.595       41.852        0.032      342.112       17.291      863.117
04/25/2013  21:55:00     -274.464      -15.611      -35.890      104.076       74.366       54.259    10831.891     5530.304     2944.059        4.808        0.965      274.908       49.066        0.032      342.196       17.433      863.091
04/25/2013  21:56:00     -274.110      -51.290      -14.081      174.029       88.715       65.277    30286.234     7870.274     4261.148        6.018        2.121      278.868       75.378        0.073      342.150       17.356      863.094
04/25/2013  21:57:00     -213.687      -44.315      -11.913       95.882       71.741       43.345     9193.294     5146.839     1878.762        3.199        0.811      218.233       45.074        0.043      342.161       17.373      863.111
04/25/2013  21:58:00     -112.017      -21.610        2.393       66.909       57.287       38.176     4476.879     3281.856     1457.396        1.112        0.461      114.082       35.891        0.099      342.074       17.229      863.112
04/25/2013  21:59:00     -185.248      -73.670       -5.893      105.115       90.343       45.336    11049.226     8161.821     2055.321        3.052        1.063      199.360       27.265        0.019      342.167       17.386      863.116
04/25/2013  22:00:00     -319.235     -167.926      -10.743      153.403      150.670       63.363    23532.609    22701.364     4014.926        9.023        2.512      360.707       52.070        0.021      342.229       17.490      863.111
04/25/2013  22:01:00     -206.401      -64.606       -6.662       84.950      100.042       44.697     7216.575    10008.346     1997.826        3.302        0.961      216.276       44.660        0.043      342.146       17.347      863.123
04/25/2013  22:02:00     -208.936      -72.098      -19.726       91.725       66.341       42.884     8413.509     4401.142     1839.071        3.194        0.733      221.026       45.394        0.042      342.164       17.380      863.118
04/25/2013  22:03:00     -289.848      -56.824        6.218      137.272      136.600       69.231    18843.613    18659.664     4792.870        6.478        2.115      295.366       67.619        0.052      342.164       17.380      863.116
04/25/2013  22:04:00     -175.612      -74.173        1.217       94.945      126.799       46.300     9014.563    16077.883     2143.667        3.178        1.362      190.634       46.155        0.059      342.157       17.367      863.108
04/25/2013  22:05:00     -280.554      -70.568       -4.550      130.278      155.075       56.432    16972.316    24048.207     3184.557        6.395        2.210      289.293       45.416        0.025      342.135       17.328      863.115
04/25/2013  22:06:00     -189.540      -28.629      -11.645       80.299       79.398       42.195     6447.994     6304.011     1780.396        2.570        0.727      191.690       42.134        0.048      342.105       17.279      863.115
04/25/2013  22:07:00     -251.058     -134.176      -22.698      163.220      101.381       63.915    26640.622    10278.170     4085.128        6.127        2.050      284.664       73.143        0.066      342.157       17.368      863.119
04/25/2013  22:08:00     -358.416      -94.896      -20.271      110.463       86.984       54.526    12202.125     7566.213     2973.086        8.031        1.137      370.765       51.867        0.020      342.128       17.319      863.127
04/25/2013  22:09:00     -212.494      -30.467      -13.154      108.030       76.014       48.402    11670.433     5778.128     2342.765        3.302        0.990      214.667       54.867        0.065      342.070       17.218      863.142
04/25/2013  22:10:00     -202.594       15.029       -4.628      123.173       85.776       48.160    15171.626     7357.474     2319.357        3.307        1.242      203.151       47.679        0.055      342.018       17.131      863.170
04/25/2013  22:11:00     -135.507        1.581       -0.393       77.609       60.138       35.454     6023.232     3616.615     1256.984        1.463        0.545      135.516       25.274        0.035      341.966       17.045      863.175
04/25/2013  22:12:00     -187.622      -25.066       -4.474      102.406       63.801       42.992    10487.071     4070.609     1848.324        2.612        0.820      189.289       47.925        0.064      342.016       17.128      863.171
04/25/2013  22:13:00     -193.838       11.205       -6.372      134.359       90.610       44.300    18052.339     8210.175     1962.454        3.298        1.411      194.162       53.346        0.075      341.993       17.090      863.166
04/25/2013  22:14:00     -224.512      -10.466      -29.149       98.572       69.118       35.598     9716.364     4777.300     1267.221        3.356        0.788      224.756       17.639        0.006      342.005       17.110      863.170
04/25/2013  22:15:00     -167.546      -13.022      -14.004       51.275       63.708       25.041     2629.138     4058.674      627.072        1.787        0.366      168.051       23.960        0.020      341.962       17.039      863.183
04/25/2013  22:16:00     -238.343      -38.597      -21.796       95.730       72.803       34.673     9164.207     5300.314     1202.215        3.722        0.783      241.448       38.289        0.025      341.950       17.015      863.180
04/25/2013  22:17:00     -127.730      -33.757      -10.146       40.144       42.488       29.632     1611.518     1805.193      878.075        1.093        0.215      132.116       16.423        0.015      341.897       16.928      863.183
04/25/2013  22:18:00     -143.217      -29.534      -12.130       43.579       50.291       25.155     1899.111     2529.232      632.765        1.329        0.253      146.231       22.503        0.024      341.888       16.914      863.198
04/25/2013  22:19:00     -183.728        7.410      -19.478       50.333       63.178       29.333     2533.395     3991.435      860.436        2.079        0.369      183.878       25.927        0.020      341.862       16.869      863.193
04/25/2013  22:20:00     -203.876      -35.347      -22.369       43.448       38.299       26.681     1887.749     1466.813      711.880        2.369        0.203      206.918       23.602        0.013      341.880       16.898      863.193
04/25/2013  22:21:00     -136.180      -46.893       -6.135       49.870       47.895       28.396     2486.973     2293.975      806.350        1.318        0.279      144.028       18.792        0.017      341.811       16.785      863.193
04/25/2013  22:22:00     -188.577      -12.498      -10.631       55.754       44.395       29.552     3108.519     1970.937      873.313        2.089        0.298      188.990       26.260        0.019      341.854       16.853      863.202
04/25/2013  22:23:00     -146.460      -15.148      -14.594       51.272       47.782       27.225     2628.802     2283.143      741.193        1.377        0.283      147.242       25.345        0.030      341.819       16.796      863.200
04/25/2013  22:24:00     -115.045      -27.004       -9.559       51.335       41.984       27.843     2635.254     1762.676      775.252        0.961        0.259      118.171       25.580        0.047      341.776       16.724      863.212
04/25/2013  22:25:00     -128.551      -74.056       -0.299       51.438       41.756       28.722     2645.820     1743.601      824.934        1.361        0.261      148.357       26.341        0.032      341.791       16.750      863.208
04/25/2013  22:26:00     -118.883      -70.244        0.361       57.950       44.651       31.347     3358.226     1993.748      982.661        1.270        0.317      138.085       30.764        0.050      341.775       16.722      863.213
04/25/2013  22:27:00      -40.105      -26.326       19.348       60.512       54.625       32.350     3661.700     2983.925     1046.535        0.518        0.385       47.974       29.793        0.386      341.762       16.699      863.206
04/25/2013  22:28:00     -132.405       -0.502      -15.442       49.933       43.806       22.233     2493.262     1918.960      494.312        1.134        0.245      132.406       21.879        0.027      341.772       16.716      863.221
04/25/2013  22:29:00     -196.139      -18.076      -12.049       87.880       55.926       32.822     7722.865     3127.687     1077.257        2.543        0.596      196.970       36.978        0.035      341.849       16.847      863.222
04/25/2013  22:30:00     -144.513       -2.578      -20.772       86.307       78.751       40.966     7448.954     6201.785     1678.221        1.832        0.766      144.536       41.716        0.083      342.034       17.160      863.210
04/25/2013  22:31:00      -28.761       10.905       18.031       38.615       40.040       22.460     1491.084     1603.206      504.469        0.243        0.180       30.758       12.915        0.176      341.829       16.813      863.196
04/25/2013  22:32:00     -142.881       42.976      -25.218       56.032       64.274       36.481     3139.596     4131.173     1330.860        1.575        0.430      149.205       34.669        0.054      342.047       17.183      863.220
04/25/2013  22:33:00      -32.797      -11.466        6.796       51.141       69.753       35.256     2615.353     4865.523     1242.975        0.499        0.436       34.743       30.259        0.759      342.030       17.153      863.213
04/25/2013  22:34:00      -54.818       -8.664       -5.732       40.084       29.612       23.473     1606.688      876.865      550.979        0.307        0.152       55.499       17.241        0.097      341.977       17.064      863.236
04/25/2013  22:35:00      -53.936       -2.937       -0.945       43.213       25.785       17.539     1867.369      664.854      307.619        0.288        0.142       54.016       20.125        0.139      342.011       17.123      863.267
04/25/2013  22:36:00      -25.186       38.186       -3.363       46.563       41.487       27.350     2168.089     1721.188      748.009        0.337        0.232       45.744       26.998        0.348      342.201       17.444      863.271
04/25/2013  22:37:00      -28.343       85.340      -18.009       25.258       62.586       26.448      637.986     3916.951      699.474        0.683        0.263       89.924       24.672        0.075      342.315       17.638      863.272
04/25/2013  22:38:00      -61.477      116.314      -12.189       50.946       61.053       32.390     2595.526     3727.444     1049.132        1.241        0.369      131.561       31.450        0.057      342.362       17.719      863.282
04/25/2013  22:39:00     -141.801      217.978      -28.482       87.215       80.991       52.630     7606.386     6559.521     2769.924        4.268        0.847      260.042       42.342        0.027      342.425       17.822      863.275
04/25/2013  22:40:00     -117.468       60.451      -17.453       75.818       59.019       34.059     5748.434     3483.227     1159.986        1.407        0.520      132.110       34.686        0.069      342.425       17.824      863.274
04/25/2013  22:41:00     -162.096      191.823      -29.904      108.193      146.435       58.247    11705.776    21443.103     3392.682        5.025        1.827      251.140       46.727        0.035      342.494       17.941      863.274
04/25/2013  22:42:00      -85.585       94.428      -10.157       58.881       87.912       56.981     3466.996     7728.534     3246.802        1.539        0.722      127.442       21.160        0.028      342.443       17.854      863.260
04/25/2013  22:43:00      -72.915       23.977       -4.875       54.476       80.762       42.713     2967.679     6522.453     1824.366        0.861        0.566       76.756       31.262        0.166      342.386       17.758      863.278
04/25/2013  22:44:00      -74.386      111.694       -9.784       57.454       78.576       41.458     3300.963     6174.258     1718.792        1.465        0.560      134.197       44.925        0.112      342.364       17.721      863.283
04/25/2013  22:45:00     -124.457       53.240      -18.383       91.434       52.607       40.051     8360.183     2767.535     1604.092        1.569        0.637      135.366       32.888        0.059      342.333       17.669      863.285
04/25/2013  22:46:00     -158.376      -27.371       -8.551       61.234       77.358       43.807     3749.590     5984.259     1919.043        1.878        0.583      160.723       32.290        0.040      342.442       17.854      863.286
04/25/2013  22:47:00      -47.841       42.431        3.118       51.549       81.951       36.427     2657.316     6715.921     1326.903        0.740        0.535       63.947       38.038        0.354      342.298       17.609      863.290
04/25/2013  22:48:00      -32.726        6.615       -1.396       32.475       29.933       24.196     1054.607      895.969      585.467        0.183        0.127       33.388       16.418        0.242      342.322       17.650      863.291
04/25/2013  22:49:00      -40.725      103.921      -22.642       49.940       71.167       33.644     2493.983     5064.738     1131.897        1.083        0.435      111.616       38.030        0.116      342.387       17.760      863.311
04/25/2013  22:50:00      -66.846       52.231        0.110       64.893       54.063       31.579     4211.121     2922.790      997.222        0.766        0.407       84.832       37.464        0.195      342.337       17.676      863.335
04/25/2013  22:51:00     -128.751      162.844      -29.135       72.741       58.507       37.546     5291.234     3423.018     1409.687        2.703        0.506      207.593       33.663        0.026      342.378       17.743      863.336
04/25/2013  22:52:00     -113.669       69.581      -16.291       61.883       42.840       27.956     3829.556     1835.305      781.530        1.224        0.322      133.275       23.116        0.030      342.315       17.638      863.328
04/25/2013  22:53:00       -3.374       41.935       -9.428       29.892       24.215       17.011      893.526      586.348      289.386        0.181        0.088       42.070        9.950        0.056      342.319       17.645      863.331
04/25/2013  22:54:00      -25.677       28.560        0.517       29.265       24.237       18.445      856.454      587.429      340.201        0.163        0.089       38.405       10.199        0.071      342.224       17.485      863.339
04/25/2013  22:55:00      -43.809      -13.326       -5.231       42.474       47.778       27.441     1804.068     2282.702      753.017        0.348        0.242       45.791       24.213        0.280      342.266       17.555      863.333
04/25/2013  22:56:00      -60.148       54.001      -17.607       35.189       39.941       23.775     1238.271     1595.251      565.235        0.512        0.170       80.833       12.241        0.023      342.271       17.564      863.333
04/25/2013  22:57:00      -33.930       -4.713       -1.146       18.005       38.193       13.241      324.166     1458.734      175.329        0.157        0.098       34.256        8.634        0.064      342.233       17.499      863.345
04/25/2013  22:58:00      -40.796       54.061      -12.934       82.498       65.458       30.691     6805.869     4284.734      941.934        0.839        0.602       67.727       47.081        0.483      342.192       17.429      863.361
04/25/2013  22:59:00      -51.430       90.664      -16.986       36.686       35.833       25.714     1345.838     1283.977      661.196        0.722        0.165      104.235       28.352        0.074      342.222       17.479      863.374
04/25/2013  23:00:00      -34.970       31.539      -17.983       27.459       24.932       12.279      754.011      621.595      150.766        0.203        0.076       47.091       14.163        0.090      342.230       17.496      863.380
04/25/2013  23:01:00       -3.394       23.830       16.028       51.036       30.273       20.902     2604.635      916.446      436.890        0.240        0.198       24.070       10.360        0.185      342.101       17.276      863.372
04/25/2013  23:02:00      -12.189        1.644       -6.294       33.181       12.748       10.723     1100.972      162.515      114.984        0.078        0.069       12.299       10.278        0.698      342.156       17.369      863.364
04/25/2013  23:03:00      -32.847       73.779       -3.965       36.347       56.618       30.824     1321.137     3205.635      950.107        0.601        0.274       80.761       34.319        0.181      342.258       17.543      863.379
04/25/2013  23:04:00     -121.169      157.947      -29.094      102.996       91.379       41.647    10608.087     8350.193     1734.498        3.058        1.035      199.070       30.355        0.023      342.443       17.852      863.396
04/25/2013  23:05:00      -63.081       94.801      -12.484       62.514       43.798       20.220     3907.959     1918.228      408.829        0.968        0.312      113.871       24.024        0.045      342.229       17.491      863.396
04/25/2013  23:06:00      -32.145       15.284      -11.328       29.894       12.828        9.560      893.650      164.548       91.390        0.127        0.057       35.593        5.930        0.028      342.260       17.546      863.392
04/25/2013  23:07:00      -41.126       26.476       -5.295       41.590       39.010       23.907     1729.749     1521.775      571.559        0.312        0.191       48.912       13.693        0.078      342.339       17.679      863.390
04/25/2013  23:08:00      -64.424       15.346       -2.861       34.661       32.825       17.315     1201.370     1077.475      299.793        0.349        0.129       66.226       17.091        0.067      342.292       17.601      863.410
04/25/2013  23:09:00      -41.531       21.906       10.112       50.919       38.654       43.448     2592.771     1494.164     1887.734        0.414        0.299       46.955       36.079        0.590      342.234       17.500      863.434
04/25/2013  23:10:00      -26.621       78.160      -10.406       51.403       43.605       29.749     2642.301     1901.363      885.021        0.618        0.271       82.569        5.104        0.004      342.302       17.618      863.436
04/25/2013  23:11:00      -27.063       89.383       -8.278       40.864       50.546       25.681     1669.900     2554.883      659.528        0.684        0.244       93.390       16.693        0.032      342.175       17.400      863.444
04/25/2013  23:12:00      -10.299      140.036      -12.808       42.588       63.316       24.572     1813.759     4008.934      603.764        1.315        0.321      140.414       24.625        0.031      342.148       17.353      863.461
04/25/2013  23:13:00       59.911       40.046        1.404       22.291       26.047       26.575      496.884      678.438      706.243        0.354        0.094       72.062       12.571        0.030      341.989       17.085      863.461
04/25/2013  23:14:00       59.963       27.555       22.648       40.361       25.074       20.732     1629.028      628.713      429.831        0.378        0.134       65.992       15.256        0.053      341.765       16.705      863.476
04/25/2013  23:15:00       89.359       49.672       28.032       45.480       36.916       42.288     2068.418     1362.823     1788.267        0.823        0.261      102.236       35.671        0.122      341.730       16.647      863.481
04/25/2013  23:16:00      127.674       29.738       22.393       47.358       40.225       34.277     2242.736     1618.042     1174.944        1.136        0.252      131.092       24.992        0.036      341.637       16.486      863.494
04/25/2013  23:17:00       71.262       33.923       39.807       59.329       62.676       42.668     3519.876     3928.271     1820.516        0.854        0.463       78.924       38.387        0.237      341.528       16.302      863.510
04/25/2013  23:18:00      130.885       78.448       46.912       72.586       55.780       58.048     5268.785     3111.463     3369.528        1.862        0.587      152.594       40.105        0.069      341.498       16.252      863.526
04/25/2013  23:19:00      101.060       57.712       33.080       47.989       36.342       34.500     2302.906     1320.705     1190.237        0.973        0.241      116.378       21.911        0.035      341.476       16.216      863.542
04/25/2013  23:20:00      122.436       69.113       82.357       68.489       57.042       52.803     4690.689     3253.832     2788.106        1.864        0.537      140.596       42.822        0.093      341.474       16.211      863.543
04/25/2013  23:21:00      102.631       81.082       69.454       49.223       44.108       45.255     2422.877     1945.548     2048.039        1.417        0.321      130.795       33.587        0.066      341.607       16.437      863.553
04/25/2013  23:22:00       80.546       84.510       56.849       59.547       49.502       55.706     3545.865     2450.453     3103.154        1.298        0.455      116.746       30.618        0.069      341.400       16.086      863.558
04/25/2013  23:23:00       76.447       97.834       91.994       62.829       45.469       50.118     3947.522     2067.459     2511.834        1.620        0.426      124.160       39.547        0.101      341.416       16.112      863.561
04/25/2013  23:24:00      109.830       52.993       28.427       56.948       53.535       37.420     3243.105     2865.953     1400.251        1.159        0.375      121.947       24.677        0.041      341.349       16.000      863.580
04/25/2013  23:25:00      115.889       83.613       50.208       72.128       51.366       52.260     5202.508     2638.500     2731.140        1.676        0.529      142.903       30.280        0.045      341.265       15.857      863.571
04/25/2013  23:26:00       73.401       96.303       89.572       73.633       39.695       44.857     5421.886     1575.716     2012.178        1.585        0.450      121.086       45.431        0.141      341.205       15.756      863.555
04/25/2013  23:27:00       37.952       85.421       84.711       39.103       45.314       29.676     1529.058     2053.384      880.683        1.019        0.223       93.472       30.621        0.107      341.245       15.824      863.568
04/25/2013  23:28:00       19.169       35.751       61.527       41.596       45.097       27.164     1730.233     2033.698      737.906        0.497        0.225       40.566       21.811        0.289      341.200       15.748      863.570
04/25/2013  23:29:00       99.157       73.043       80.763       47.045       47.655       40.780     2213.271     2270.993     1663.026        1.392        0.307      123.156       32.277        0.069      341.179       15.712      863.585
04/25/2013  23:30:00       92.738       69.187       53.304       56.781       50.747       35.985     3224.060     2575.290     1294.885        1.166        0.355      115.703       21.108        0.033      341.106       15.588      863.588
04/25/2013  23:31:00       67.644       -8.141       48.994       35.151       62.806       32.528     1235.618     3944.652     1058.056        0.664        0.312       68.132       34.936        0.263      341.085       15.554      863.599
04/25/2013  23:32:00       75.892      -34.508       20.313       57.959       34.162       29.001     3359.203     1167.069      841.066        0.636        0.268       83.369       32.402        0.151      341.097       15.574      863.605
04/25/2013  23:33:00       86.222       -6.737       22.878       77.360       32.988       24.783     5984.593     1088.196      614.190        0.784        0.384       86.485       30.478        0.124      341.064       15.517      863.614
04/25/2013  23:34:00       53.656       26.414       54.431       51.540       34.014       25.278     2656.386     1156.979      638.984        0.549        0.223       59.805       18.248        0.093      340.999       15.408      863.614
04/25/2013  23:35:00       26.309       14.675       60.872       50.710       44.143       41.085     2571.469     1948.585     1687.957        0.541        0.310       30.125       36.793        1.492      341.027       15.455      863.600
04/25/2013  23:36:00       21.961      -10.470       47.043       45.010       57.474       32.797     2025.901     3303.284     1075.664        0.460        0.320       24.329       33.022        1.842      340.988       15.389      863.615
04/25/2013  23:37:00       80.033       12.993       44.572       46.325       36.000       34.517     2145.991     1296.018     1191.410        0.660        0.232       81.080       21.595        0.071      340.963       15.346      863.644
04/25/2013  23:38:00       30.946       42.891       41.174       30.375       27.327       28.201      922.657      746.763      795.280        0.348        0.123       52.889       20.498        0.150      340.897       15.234      863.646
04/25/2013  23:39:00       34.063       24.538       37.902       27.058       23.888       18.067      732.137      570.641      326.428        0.241        0.081       41.981       11.154        0.071      340.810       15.086      863.648
04/25/2013  23:40:00      135.965       52.732       31.868       62.024       46.700       27.813     3846.939     2180.890      773.581        1.454        0.340      145.832       16.096        0.012      340.942       15.310      863.645
04/25/2013  23:41:00      120.535       83.507       27.133       37.522       27.720       37.729     1407.884      768.390     1423.480        1.292        0.180      146.636        8.189        0.003      341.093       15.567      863.638
04/25/2013  23:42:00       74.356       52.990       22.847       27.850       13.015       21.291      775.620      169.385      453.292        0.513        0.070       91.305       18.852        0.043      340.976       15.367      863.651
04/25/2013  23:43:00       49.209       57.211       50.795       28.624       20.165       20.886      819.347      406.628      436.233        0.497        0.083       75.463       13.044        0.030      341.013       15.432      863.665
04/25/2013  23:44:00       21.936       47.116       57.578       29.837       33.355       34.351      890.275     1112.528     1179.998        0.460        0.159       51.972       22.592        0.189      341.075       15.537      863.687
04/25/2013  23:45:00       14.648       25.854       52.163       24.833       36.529       19.342      616.667     1334.377      374.106        0.296        0.116       29.715       21.829        0.540      341.109       15.594      863.714
04/25/2013  23:46:00       30.392       48.621       67.387       33.440       29.012       17.744     1118.258      841.682      314.843        0.505        0.114       57.338       17.110        0.089      341.034       15.468      863.731
04/25/2013  23:47:00       82.393       25.048       47.930       42.054       39.908       36.368     1768.528     1592.684     1322.660        0.720        0.234       86.116       28.302        0.108      341.112       15.598      863.751
04/25/2013  23:48:00       14.492       42.582       80.519       33.928       35.840       27.259     1151.096     1284.494      743.063        0.584        0.159       44.980       24.248        0.291      340.968       15.355      863.759
04/25/2013  23:49:00       51.604       48.828       70.913       43.212       44.569       30.703     1867.309     1986.354      942.685        0.744        0.240       71.043       30.213        0.181      341.031       15.462      863.763
04/25/2013  23:50:00       53.031       24.003       60.974       57.827       51.091       39.707     3343.915     2610.294     1576.666        0.732        0.377       58.210       42.399        0.531      341.105       15.588      863.774
04/25/2013  23:51:00       52.557       40.644       72.671       47.892       53.194       44.023     2293.656     2829.551     1938.037        0.838        0.353       66.439       41.349        0.387      341.077       15.539      863.784
04/25/2013  23:52:00       78.531       33.012       59.387       46.838       46.274       41.551     2193.753     2141.267     1726.481        0.842        0.303       85.187       39.569        0.216      341.114       15.604      863.781
04/25/2013  23:53:00       50.193       78.712       83.460       43.784       47.292       26.464     1917.011     2236.546      700.367        1.027        0.243       93.353       23.057        0.061      341.093       15.567      863.782
04/25/2013  23:54:00       62.923       84.195       84.974       49.502       47.695       37.264     2450.459     2274.853     1388.575        1.219        0.306      105.110       28.859        0.075      341.168       15.693      863.769
04/25/2013  23:55:00       13.251       23.447       58.474       34.452       37.677       26.614     1186.937     1419.560      708.295        0.373        0.166       26.932       29.095        1.167      341.114       15.603      863.769
04/25/2013  23:56:00       56.231      -33.695       22.393       31.700       50.437       29.280     1004.871     2543.937      857.296        0.460        0.220       65.553       32.687        0.249      341.144       15.653      863.785
04/25/2013  23:57:00       41.628       23.035       23.944       45.882       36.716       30.097     2105.149     1348.051      905.849        0.360        0.218       47.576       19.670        0.171      341.108       15.591      863.809
04/25/2013  23:58:00       22.302       93.105       -0.632       34.981       28.570       17.807     1223.659      816.245      317.073        0.576        0.118       95.739       17.596        0.034      340.922       15.277      863.824
04/25/2013  23:59:00       12.151       81.495      -13.662       18.781       34.014       10.376      352.713     1156.976      107.652        0.430        0.081       82.396        7.240        0.008      340.873       15.195      863.837
